[[{"header":{"parameterUnit":"m.s-1","parameterCategory":1,"la1":30.6,"la2":29.2853,"lo1":-89.7004,"lo2":-87.6739,"dy":0.0162,"dx":0.0183,"nx":112,"ny":82,"refTime":"2026-03-19T12:00:00:Z","depth":0,"parameterNumber":2,"parameterNumberName":"U-component_of_WINDS"},"data":[0.0,0.0,0.0,0.0,0.0,0.0,0.0,0.0,0.0,0.0,0.0,0.0,0.0,0.0,0.0,0.0,0.0,0.0,0.0,0.0,0.0,0.0,0.0,0.0,0.0,0.0,0.0,0.0,0.0,0.0,0.0,0.0,0.0,0.0,0.0,0.0,0.0,0.0,0.0,0.0,0.0,0.0,0.0,0.0,0.0,0.0,0.0,0.0,0.0,0.0,0.0,0.0,0.0,0.0,0.0,0.0,0.0,0.0,0.0,0.0,0.0,0.0,0.0,0.0,0.0,0.0,0.0,0.0,0.0,0.0,0.0,0.0,0.0,0.0,0.0,0.0,0.0,0.0,0.0,0.0,0.0,0.0,0.0,0.0,0.0,0.0,0.0,0.0,0.0,0.0,0.0,-0.7607,-0.8323,-0.8804,-0.8804,-0.8764,-0.851,-0.7915,0.0,0.0,0.0,0.0,0.0,0.0,0.0,0.0,0.0,0.0,0.0,0.0,0.0,0.0,0.0,0.0,0.0,0.0,0.0,0.0,0.0,0.0,0.0,0.0,0.0,0.0,0.0,0.0,0.0,0.0,0.0,0.0,0.0,0.0,0.0,0.0,0.0,0.0,0.0,0.0,0.0,0.0,0.0,0.0,0.0,0.0,0.0,0.0,0.0,0.0,0.0,0.0,0.0,0.0,0.0,0.0,0.0,0.0,0.0,0.0,0.0,0.0,0.0,0.0,0.0,0.0,0.0,0.0,0.0,0.0,0.0,0.0,0.0,0.0,0.0,0.0,0.0,0.0,0.0,0.0,0.0,0.0,0.0,0.0,0.0,0.0,0.0,0.0,0.0,0.0,0.0,0.0,0.0,0.0,0.0,0.0,0.0,0.0,0.0,0.0,0.0,0.0,0.0,0.0,-0.7061,-0.8172,-0.8577,-0.8804,-0.8804,-0.8577,-0.8297,-0.7902,0.0,0.0,0.0,0.0,0.0,0.0,0.0,0.0,0.0,0.0,0.0,0.0,0.0,0.0,0.0,0.0,0.0,0.0,0.0,0.0,0.0,0.0,0.0,0.0,0.0,0.0,0.0,0.0,0.0,0.0,0.0,0.0,0.0,0.0,0.0,0.0,0.0,0.0,0.0,0.0,0.0,0.0,0.0,0.0,0.0,0.0,0.0,0.0,0.0,0.0,0.0,0.0,0.0,0.0,0.0,0.0,0.0,0.0,0.0,0.0,0.0,0.0,0.0,0.0,0.0,0.0,0.0,0.0,0.0,0.0,0.0,0.0,0.0,0.0,0.0,0.0,0.0,0.0,0.0,0.0,0.0,0.0,0.0,0.0,0.0,0.0,0.0,0.0,0.0,0.0,0.0,0.0,0.0,0.0,0.0,0.0,0.0,0.0,0.0,0.0,0.0,0.0,0.0,-0.6561,-0.7148,-0.8018,-0.8508,-0.8804,-0.8804,-0.8684,-0.8417,-0.7915,-0.7488,0.0,0.0,0.0,0.0,0.0,0.0,0.0,0.0,0.0,0.0,0.0,0.0,0.0,0.0,0.0,0.0,0.0,0.0,0.0,0.0,0.0,0.0,0.0,0.0,0.0,0.0,0.0,0.0,0.0,0.0,0.0,0.0,0.0,0.0,0.0,0.0,0.0,0.0,0.0,0.0,0.0,0.0,0.0,0.0,0.0,0.0,0.0,0.0,0.0,0.0,0.0,0.0,0.0,0.0,0.0,0.0,0.0,0.0,0.0,0.0,0.0,0.0,0.0,0.0,0.0,0.0,0.0,0.0,0.0,0.0,0.0,0.0,0.0,0.0,0.0,0.0,0.0,0.0,0.0,0.0,0.0,0.0,0.0,0.0,0.0,0.0,0.0,0.0,0.0,0.0,0.0,0.0,0.0,0.0,0.0,0.0,0.0,0.0,0.0,0.0,0.0,0.0,-0.6623,-0.7265,-0.7846,-0.8421,-0.8804,-0.8804,-0.8744,-0.8484,-0.7915,-0.7295,0.0,0.0,0.0,0.0,0.0,0.0,0.0,0.0,0.0,0.0,0.0,0.0,0.0,0.0,0.0,0.0,0.0,0.0,0.0,0.0,0.0,0.0,0.0,0.0,0.0,0.0,0.0,0.0,0.0,0.0,0.0,0.0,0.0,0.0,0.0,0.0,0.0,0.0,0.0,0.0,0.0,0.0,0.0,0.0,0.0,0.0,0.0,0.0,0.0,0.0,0.0,0.0,0.0,0.0,0.0,0.0,0.0,0.0,0.0,0.0,0.0,0.0,0.0,0.0,0.0,0.0,0.0,0.0,0.0,0.0,0.0,0.0,0.0,0.0,0.0,0.0,0.0,0.0,0.0,0.0,0.0,0.0,0.0,0.0,0.0,0.0,0.0,0.0,0.0,0.0,0.0,0.0,0.0,0.0,0.0,0.0,0.0,0.0,0.0,0.0,0.0,0.0,-0.6579,-0.7382,-0.787,-0.8421,-0.8804,-0.8804,-0.8557,-0.827,-0.7902,-0.7108,0.0,0.0,0.0,0.0,0.0,0.0,0.0,0.0,0.0,0.0,0.0,0.0,0.0,0.0,0.0,0.0,0.0,0.0,0.0,0.0,0.0,0.0,0.0,0.0,0.0,0.0,0.0,0.0,0.0,0.0,0.0,0.0,0.0,0.0,0.0,0.0,0.0,0.0,0.0,0.0,0.0,0.0,0.0,0.0,0.0,0.0,0.0,0.0,0.0,0.0,0.0,0.0,0.0,0.0,0.0,0.0,0.0,0.0,0.0,0.0,0.0,0.0,0.0,0.0,0.0,0.0,0.0,0.0,0.0,0.0,0.0,0.0,0.0,0.0,0.0,0.0,0.0,0.0,0.0,0.0,0.0,0.0,0.0,0.0,0.0,0.0,0.0,0.0,0.0,0.0,0.0,0.0,0.0,0.0,0.0,0.0,0.0,0.0,0.0,0.0,0.0,0.0,-0.5621,-0.6433,0.0,-0.7883,-0.8368,-0.8752,-0.8704,-0.8437,-0.7915,0.0,0.0,0.0,0.0,0.0,0.0,0.0,0.0,0.0,0.0,0.0,0.0,0.0,0.0,0.0,0.0,0.0,0.0,0.0,0.0,0.0,0.0,0.0,0.0,0.0,0.0,0.0,0.0,0.0,0.0,0.0,0.0,0.0,0.0,0.0,0.0,0.0,0.0,0.0,0.0,0.0,0.0,0.0,0.0,0.0,0.0,0.0,0.0,0.0,0.0,0.0,0.0,0.0,0.0,0.0,0.0,0.0,0.0,0.0,0.0,0.0,0.0,0.0,0.0,0.0,0.0,0.0,0.0,0.0,0.0,0.0,0.0,0.0,0.0,0.0,0.0,0.0,0.0,0.0,0.0,0.0,0.0,0.0,0.0,0.0,0.0,0.0,0.0,0.0,0.0,0.0,0.0,0.0,0.0,0.0,0.0,0.0,0.0,0.0,0.0,0.0,0.0,-0.4382,-0.506,-0.5804,0.0,-0.7225,-0.7804,-0.8404,-0.828,-0.8055,-0.7809,0.0,0.0,0.0,0.0,0.0,0.0,0.0,0.0,0.0,0.0,0.0,0.0,0.0,0.0,0.0,0.0,0.0,0.0,0.0,0.0,0.0,0.0,0.0,0.0,0.0,0.0,0.0,0.0,0.0,0.0,0.0,0.0,0.0,0.0,0.0,0.0,0.0,0.0,0.0,0.0,0.0,0.0,0.0,0.0,0.0,0.0,0.0,0.0,0.0,0.0,0.0,0.0,0.0,0.0,0.0,0.0,0.0,0.0,0.0,0.0,0.0,0.0,0.0,0.0,0.0,0.0,0.0,0.0,0.0,0.0,0.0,0.0,0.0,0.0,0.0,0.0,0.0,0.0,0.0,0.0,0.0,0.0,0.0,0.0,0.0,0.0,0.0,0.0,0.0,0.0,0.0,0.0,0.0,0.0,0.0,0.0,0.0,0.0,0.0,0.0,0.0,0.0,-0.4227,-0.5101,-0.572,-0.5883,-0.6411,-0.7025,-0.7652,-0.7144,-0.7013,0.0,0.0,0.0,0.0,0.0,0.0,0.0,0.0,0.0,0.0,0.0,0.0,0.0,0.0,0.0,0.0,0.0,0.0,0.0,0.0,0.0,0.0,0.0,0.0,0.0,0.0,0.0,0.0,0.0,0.0,0.0,0.0,0.0,0.0,0.0,0.0,0.0,0.0,0.0,0.0,0.0,0.0,0.0,0.0,0.0,0.0,0.0,0.0,0.0,0.0,0.0,0.0,0.0,0.0,0.0,0.0,0.0,0.0,0.0,0.0,0.0,0.0,0.0,0.0,0.0,0.0,0.0,0.0,0.0,0.0,0.0,0.0,0.0,0.0,0.0,0.0,0.0,0.0,0.0,0.0,0.0,0.0,0.0,0.0,0.0,0.0,0.0,0.0,0.0,0.0,0.0,0.0,0.0,0.0,0.0,0.0,0.0,0.0,0.0,0.0,0.0,0.0,0.0,-0.4287,-0.4726,-0.5269,-0.5729,-0.623,-0.6839,-0.7639,-0.7624,-0.7464,-0.7173,0.0,0.0,0.0,0.0,0.0,0.0,0.0,0.0,0.0,0.0,0.0,0.0,0.0,0.0,0.0,0.0,0.0,0.0,0.0,0.0,0.0,0.0,0.0,0.0,0.0,0.0,0.0,0.0,0.0,0.0,0.0,0.0,0.0,0.0,0.0,0.0,0.0,0.0,0.0,0.0,0.0,0.0,0.0,0.0,0.0,0.0,0.0,0.0,0.0,0.0,0.0,0.0,0.0,0.0,0.0,0.0,0.0,0.0,0.0,0.0,0.0,0.0,0.0,0.0,0.0,0.0,0.0,0.0,0.0,0.0,0.0,0.0,0.0,0.0,0.0,0.0,0.0,0.0,0.0,0.0,0.0,0.0,0.0,0.0,0.0,0.0,0.0,0.0,0.0,0.0,0.0,0.0,0.0,0.0,0.0,0.0,0.0,0.0,0.0,0.0,0.0,0.0,-0.4295,-0.465,-0.5035,-0.5305,-0.5665,-0.6167,-0.6923,-0.6953,-0.6836,-0.6578,0.0,0.0,0.0,0.0,0.0,0.0,0.0,0.0,0.0,0.0,0.0,0.0,0.0,0.0,0.0,0.0,0.0,0.0,0.0,0.0,0.0,0.0,0.0,0.0,0.0,0.0,0.0,0.0,0.0,0.0,0.0,0.0,0.0,0.0,0.0,0.0,0.0,0.0,0.0,0.0,0.0,0.0,0.0,0.0,0.0,0.0,0.0,0.0,0.0,0.0,0.0,0.0,0.0,0.0,0.0,0.0,0.0,0.0,0.0,0.0,0.0,0.0,0.0,0.0,0.0,0.0,0.0,0.0,0.0,0.0,0.0,0.0,0.0,0.0,0.0,0.0,0.0,0.0,0.0,0.0,0.0,0.0,0.0,0.0,0.0,0.0,0.0,0.0,0.0,0.0,0.0,0.0,0.0,0.0,0.0,0.0,0.0,0.0,0.0,0.0,0.0,0.0,-0.4299,-0.4747,-0.5011,-0.4824,-0.5005,-0.5319,-0.5855,-0.5758,-0.5687,-0.5846,0.0,0.0,0.0,0.0,0.0,0.0,0.0,0.0,0.0,0.0,0.0,0.0,0.0,0.0,0.0,0.0,0.0,0.0,0.0,0.0,0.0,0.0,0.0,0.0,0.0,0.0,0.0,0.0,0.0,0.0,0.0,0.0,0.0,0.0,0.0,0.0,0.0,0.0,0.0,0.0,0.0,0.0,0.0,0.0,0.0,0.0,0.0,0.0,0.0,0.0,0.0,0.0,0.0,0.0,0.0,0.0,0.0,0.0,0.0,0.0,-0.6182,0.0,0.0,0.0,0.0,0.0,0.0,0.0,0.0,0.0,0.0,0.0,0.0,0.0,0.0,0.0,0.0,0.0,0.0,0.0,0.0,0.0,0.0,0.0,0.0,0.0,0.0,0.0,0.0,0.0,0.0,0.0,0.0,0.0,0.0,0.0,0.0,0.0,0.0,0.0,0.0,0.0,-0.4312,-0.4747,-0.5011,-0.4824,-0.5179,-0.5572,-0.5892,-0.6404,-0.6404,-0.5559,-0.5519,0.0,0.0,0.0,0.0,0.0,0.0,0.0,0.0,0.0,0.0,0.0,0.0,0.0,0.0,0.0,0.0,0.0,0.0,0.0,0.0,0.0,0.0,0.0,0.0,0.0,0.0,0.0,0.0,0.0,0.0,0.0,0.0,0.0,0.0,0.0,0.0,0.0,0.0,0.0,0.0,0.0,0.0,0.0,0.0,0.0,0.0,0.0,0.0,0.0,0.0,0.0,0.0,0.0,0.0,0.0,0.0,0.0,0.0,0.0,0.0,-0.6457,0.0,0.0,0.0,0.0,0.0,0.0,0.0,0.0,0.0,0.0,0.0,0.0,0.0,0.0,0.0,0.0,0.0,0.0,0.0,0.0,0.0,0.0,0.0,0.0,0.0,0.0,0.0,0.0,0.0,0.0,0.0,0.0,0.0,0.0,0.0,0.0,0.0,0.0,0.0,0.0,-0.4394,-0.4877,-0.5141,-0.4958,-0.5221,-0.5471,-0.5575,-0.601,-0.5955,-0.5296,-0.5138,0.0,0.0,0.0,0.0,0.0,0.0,0.0,0.0,0.0,0.0,0.0,0.0,0.0,0.0,0.0,0.0,0.0,0.0,0.0,0.0,0.0,0.0,0.0,0.0,0.0,0.0,0.0,0.0,0.0,0.0,0.0,0.0,0.0,0.0,0.0,0.0,0.0,0.0,0.0,0.0,0.0,0.0,0.0,0.0,0.0,0.0,0.0,0.0,0.0,0.0,0.0,0.0,0.0,-0.6034,-0.6136,-0.6172,-0.6379,-0.6445,-0.642,-0.669,-0.6697,-0.6485,-0.6977,0.0,0.0,0.0,0.0,0.0,0.0,0.0,0.0,0.0,0.0,0.0,0.0,0.0,0.0,0.0,0.0,0.0,0.0,0.0,0.0,0.0,0.0,0.0,0.0,-0.5222,-0.5052,0.0,0.0,0.0,0.0,0.0,0.0,0.0,0.0,0.0,0.0,0.0,0.0,-0.4566,-0.5004,-0.5241,-0.5145,-0.5209,-0.5297,-0.5297,-0.5407,-0.5325,-0.5092,-0.482,-0.4541,0.0,0.0,0.0,0.0,0.0,0.0,0.0,0.0,0.0,0.0,0.0,0.0,0.0,0.0,0.0,0.0,0.0,0.0,0.0,0.0,0.0,0.0,0.0,0.0,0.0,0.0,0.0,0.0,0.0,0.0,0.0,0.0,-0.6593,-0.6927,0.0,0.0,0.0,0.0,0.0,0.0,0.0,0.0,0.0,0.0,0.0,0.0,0.0,-0.5596,-0.5778,-0.6111,-0.6444,-0.6847,-0.696,-0.7131,-0.7273,-0.7297,-0.7305,-0.7301,-0.7381,0.0,-0.6922,-0.6754,0.0,0.0,0.0,0.0,0.0,0.0,0.0,0.0,0.0,0.0,0.0,0.0,0.0,0.0,0.0,0.0,0.0,0.0,0.0,0.0,0.0,0.0,-0.5754,-0.5774,-0.5783,-0.5713,0.0,-0.4934,-0.4353,-0.402,-0.4085,0.0,0.0,0.0,0.0,0.0,0.0,0.0,-0.4966,-0.521,-0.5289,-0.5265,-0.5285,-0.5297,-0.5297,-0.5782,-0.5743,-0.498,-0.5227,-0.4995,-0.4164,-0.3765,0.0,0.0,0.0,0.0,0.0,0.0,0.0,0.0,0.0,0.0,0.0,0.0,0.0,0.0,0.0,0.0,0.0,0.0,0.0,0.0,0.0,0.0,0.0,0.0,0.0,0.0,0.0,0.0,0.0,-0.6486,-0.7007,-0.743,-0.749,-0.7462,0.0,0.0,0.0,0.0,0.0,0.0,0.0,0.0,0.0,-0.6117,-0.6303,-0.6453,-0.6639,-0.6891,-0.7147,-0.7483,-0.7488,-0.7618,-0.778,-0.778,-0.778,-0.778,-0.778,-0.7658,-0.7453,-0.7319,-0.709,-0.6775,0.0,0.0,0.0,0.0,-0.5994,-0.5827,-0.6026,-0.6154,0.0,-0.5855,0.0,0.0,0.0,0.0,0.0,0.0,0.0,0.0,0.0,0.0,-0.6083,-0.6294,-0.6262,-0.6136,-0.5949,-0.5665,-0.5251,0.0,-0.4605,-0.4548,-0.3951,0.0,0.0,0.0,0.0,-0.4942,-0.5202,-0.5482,-0.5657,-0.5657,-0.5657,-0.5612,-0.545,-0.5667,-0.5528,-0.5023,-0.5004,-0.4789,-0.4398,-0.4046,-0.3832,0.0,0.0,0.0,0.0,0.0,0.0,0.0,0.0,0.0,0.0,0.0,0.0,0.0,0.0,0.0,0.0,0.0,0.0,0.0,0.0,0.0,0.0,0.0,0.0,0.0,0.0,0.0,0.0,-0.7041,-0.749,-0.7743,-0.7924,-0.7794,0.0,0.0,0.0,0.0,0.0,0.0,-0.64,-0.6736,-0.6814,-0.6615,-0.6972,-0.7224,-0.7362,-0.7533,-0.7711,-0.7894,-0.7894,-0.7988,-0.8154,-0.8154,-0.8154,-0.8154,-0.8154,-0.8057,-0.7938,-0.7811,-0.733,-0.674,-0.6955,-0.6759,-0.6323,-0.6546,-0.6566,-0.6593,-0.679,-0.6798,-0.6639,-0.6331,-0.6136,-0.5982,-0.5758,0.0,0.0,0.0,0.0,-0.59,-0.6258,-0.6319,-0.6433,-0.6684,-0.6656,-0.6518,-0.6445,-0.6416,-0.615,0.0,-0.5161,-0.5088,-0.4467,0.0,0.0,0.0,0.0,-0.5283,-0.541,-0.5726,-0.5888,-0.5888,-0.5888,-0.5831,-0.5693,-0.551,-0.5377,-0.5146,-0.4856,-0.4645,-0.4561,-0.4228,-0.4038,-0.4047,0.0,0.0,0.0,0.0,0.0,0.0,0.0,0.0,0.0,0.0,0.0,0.0,0.0,0.0,0.0,0.0,0.0,0.0,0.0,0.0,0.0,0.0,0.0,0.0,0.0,0.0,0.0,0.0,0.0,-0.7565,-0.7913,0.0,0.0,0.0,0.0,-0.657,-0.6657,-0.6684,-0.6679,-0.7359,-0.7557,-0.7179,-0.7533,-0.7724,-0.7732,-0.7902,-0.8081,-0.8264,-0.8264,-0.8361,-0.854,-0.854,-0.854,-0.854,-0.854,-0.8434,-0.8235,-0.7951,-0.7684,-0.7411,-0.724,-0.7265,-0.7387,-0.724,-0.7281,-0.7419,-0.7435,-0.7435,-0.7399,-0.7216,-0.681,-0.642,-0.6566,-0.6441,0.0,0.0,-0.6497,-0.6461,-0.6818,-0.679,-0.6712,-0.6966,-0.7003,-0.6995,-0.6986,-0.6982,-0.6716,0.0,-0.5722,-0.573,-0.5297,0.0,-0.5543,-0.5543,-0.5567,-0.5653,-0.5835,-0.5876,-0.5888,-0.5888,-0.5888,-0.5884,-0.5876,-0.5687,-0.5489,-0.5208,-0.5024,-0.4769,-0.4407,-0.4282,-0.4209,-0.4165,-0.3806,0.0,0.0,0.0,0.0,0.0,0.0,0.0,0.0,0.0,0.0,0.0,0.0,0.0,0.0,0.0,0.0,0.0,0.0,0.0,0.0,0.0,0.0,0.0,0.0,0.0,0.0,0.0,0.0,-0.7799,-0.7892,0.0,-0.7669,-0.7191,-0.6998,-0.7345,-0.7104,-0.7011,-0.735,-0.7664,-0.784,-0.7902,-0.8036,-0.8158,-0.828,-0.8341,-0.8402,-0.8471,-0.8471,-0.8503,-0.8568,-0.8568,-0.8568,-0.8568,-0.8568,-0.8528,-0.8459,-0.8333,-0.8101,-0.7817,-0.7756,-0.7772,-0.7817,-0.7756,-0.7772,-0.7825,-0.7825,-0.7825,-0.7797,-0.7626,-0.7358,-0.7114,-0.7175,-0.7106,-0.7033,-0.7159,-0.7151,-0.7159,-0.7407,-0.7427,-0.7395,-0.7536,-0.7548,-0.7411,-0.7179,-0.7131,-0.7001,-0.6562,-0.6343,-0.6116,-0.5758,-0.575,-0.575,-0.5628,-0.5807,-0.6039,-0.6109,-0.6156,-0.6229,-0.6229,-0.6229,-0.618,-0.6125,-0.5802,-0.5559,-0.5227,-0.4922,-0.4656,-0.4501,-0.444,-0.4415,-0.4414,-0.4065,-0.3744,0.0,0.0,0.0,0.0,0.0,0.0,0.0,0.0,0.0,0.0,0.0,0.0,0.0,0.0,0.0,0.0,0.0,0.0,0.0,0.0,0.0,0.0,0.0,0.0,0.0,0.0,-0.8034,-0.7942,-0.7965,-0.7981,-0.7722,-0.7514,-0.7456,-0.779,-0.7446,-0.7512,-0.7914,-0.7939,-0.8077,-0.8373,-0.8385,-0.8442,-0.8564,-0.8568,-0.8568,-0.8568,-0.8568,-0.8597,-0.8653,-0.8653,-0.8653,-0.8653,-0.8653,-0.8621,-0.8568,-0.8568,-0.8422,-0.8199,-0.8199,-0.8199,-0.8199,-0.8199,-0.8199,-0.8199,-0.8199,-0.8158,-0.8089,-0.7975,-0.7813,-0.765,-0.7594,-0.7577,-0.7565,-0.75,-0.7529,-0.7606,-0.7728,-0.7801,-0.7845,-0.7845,-0.7845,-0.778,-0.7545,-0.7447,-0.737,-0.7323,-0.6887,-0.6526,-0.629,-0.625,-0.6205,-0.6083,-0.633,-0.6461,-0.6404,-0.6432,-0.6481,-0.6424,-0.642,-0.6371,-0.625,-0.5981,-0.5645,-0.5317,-0.4942,-0.4677,-0.4525,-0.4519,-0.4519,-0.4519,-0.4222,-0.3975,-0.3727,0.0,0.0,0.0,0.0,0.0,0.0,0.0,0.0,0.0,0.0,0.0,0.0,0.0,0.0,0.0,0.0,0.0,0.0,0.0,0.0,0.0,0.0,0.0,-0.8417,-0.8484,-0.8431,-0.8032,-0.8181,-0.797,-0.7144,-0.7297,-0.7577,-0.7772,-0.7784,-0.7939,-0.8288,-0.8308,-0.8385,-0.856,-0.8568,-0.8568,-0.8576,-0.8576,-0.8576,-0.8584,-0.8584,-0.867,-0.8828,-0.8828,-0.8828,-0.8828,-0.8828,-0.8735,-0.8584,-0.8584,-0.858,-0.8572,-0.8568,-0.8568,-0.8568,-0.8568,-0.8568,-0.8568,-0.8568,-0.845,-0.8296,-0.8296,-0.8174,-0.8,-0.7833,-0.7784,-0.7748,-0.7561,-0.7638,-0.7776,-0.7768,-0.789,-0.8012,-0.8012,-0.8012,-0.8012,-0.8012,-0.7967,-0.7848,-0.7923,-0.7493,-0.7124,-0.7036,-0.7027,-0.7023,-0.7023,-0.7023,0.0,-0.6725,-0.6692,-0.6623,-0.6453,-0.6432,-0.6428,-0.6428,-0.6086,-0.5747,-0.5422,-0.5097,-0.4775,-0.4529,-0.4519,-0.4519,-0.4519,-0.4317,-0.4117,-0.4019,0.0,0.0,0.0,0.0,0.0,0.0,0.0,0.0,0.0,0.0,0.0,0.0,0.0,0.0,0.0,0.0,0.0,0.0,0.0,0.0,0.0,0.0,-0.8854,-0.8608,-0.892,-0.9026,-0.8551,-0.8551,-0.8331,-0.7778,-0.7809,-0.8,-0.8321,-0.8345,-0.8442,-0.8662,-0.8674,-0.8641,-0.8568,-0.8568,-0.8625,-0.8747,-0.8751,-0.882,-0.895,-0.895,-0.8978,-0.9019,-0.9019,-0.9019,-0.9019,-0.9019,-0.8995,-0.895,-0.895,-0.8873,-0.8739,-0.8617,-0.8568,-0.8568,-0.8568,-0.8568,-0.8568,-0.8212,-0.8173,-0.8218,-0.8047,-0.8016,-0.7884,-0.7924,-0.7994,-0.8041,-0.7871,-0.7939,-0.8113,-0.782,-0.7897,-0.793,-0.7851,-0.7934,-0.8176,-0.8901,-0.9022,-0.9147,-0.9867,-0.9874,-0.9212,-0.7438,-0.7041,-0.7023,-0.7023,-0.7023,0.0,-0.6679,-0.66,-0.6577,-0.6534,-0.6482,-0.6407,-0.6407,-0.5978,-0.562,-0.529,-0.4932,-0.4667,-0.4525,-0.4519,-0.4519,-0.4519,-0.4212,-0.4063,0.0,0.0,0.0,0.0,0.0,0.0,0.0,0.0,0.0,0.0,0.0,0.0,0.0,0.0,0.0,0.0,0.0,0.0,0.0,0.0,0.0,0.0,-0.9412,-0.986,-0.9939,-1.0023,-0.9944,-0.9756,-0.9704,-0.9455,-0.8879,-0.8896,-0.8901,-0.8857,-0.8792,-0.88,-0.882,-0.882,-0.8918,-0.9178,-0.9248,-0.9339,-0.9354,-0.9522,-0.9443,-0.9096,-0.9096,-0.9137,-0.9206,-0.9206,-0.9206,0.0,-0.9206,-0.9165,-0.9096,-0.9096,-0.9035,0.0,0.0,0.0,0.0,0.0,-0.8568,-0.8568,-0.83,-0.8296,-0.8292,-0.8116,-0.8028,-0.8017,-0.7857,-0.7835,-0.797,-0.7804,-0.8227,-0.8662,-0.8391,-0.8808,-0.9096,-0.844,-0.873,-0.9114,-0.9275,-0.9275,-0.9358,-0.9935,-0.9692,0.0,-0.7454,-0.7854,-0.836,-0.8198,-0.8189,-0.8088,-0.7789,-0.7708,-0.7677,-0.7522,-0.7131,-0.69,-0.6757,-0.6156,0.0,0.0,0.0,-0.4779,-0.4565,-0.4553,0.0,0.0,0.0,0.0,0.0,0.0,0.0,0.0,-0.4097,-0.4073,0.0,0.0,0.0,0.0,0.0,0.0,0.0,0.0,0.0,0.0,0.0,0.0,0.0,0.0,0.0,0.0,-1.0327,-1.1068,-1.185,-1.1446,-1.1058,-1.122,-1.1141,-1.09,-1.0217,-1.0317,-1.0062,-0.9359,-0.9279,-0.92,-0.9009,0.0,0.0,0.0,0.0,-1.0362,-1.0315,-1.0402,-1.005,-0.9157,-0.9157,-0.9238,-0.9384,-0.9384,-0.9384,-0.9384,-0.9384,-0.9299,-0.9157,-0.9157,-0.9145,-0.9108,-0.8922,-0.8759,-0.8625,-0.8625,-0.8613,-0.8597,-0.8597,0.0,0.0,-0.8292,-0.8201,-0.8086,-0.7759,-0.7629,-0.768,-0.7681,-0.8409,-0.9078,-0.9046,-0.9785,-1.0299,-0.9283,-0.9625,-1.0021,-0.9372,-0.9123,-0.9048,-0.9155,-0.835,-0.7658,-0.7639,-0.8912,-0.9865,-0.9661,-0.9609,-0.9451,-0.918,-0.9081,-0.8932,-0.8735,0.0,0.0,-0.7376,-0.6494,-0.5794,-0.5563,-0.5255,-0.4989,-0.4728,-0.4585,-0.4643,-0.4914,-0.4935,-0.5006,-0.5131,-0.5148,-0.5101,-0.4982,-0.4412,-0.4358,0.0,0.0,0.0,0.0,0.0,0.0,0.0,0.0,0.0,0.0,0.0,0.0,0.0,0.0,0.0,-1.0595,-1.1229,-1.1915,-1.256,-1.2837,-1.2833,-1.2158,-1.2052,-1.1905,-1.1481,-1.1478,-1.1145,-1.0357,-1.0278,-1.0191,-0.9899,-0.9889,-1.0409,-1.1435,-1.0677,-1.0409,-1.0745,-1.0039,-0.9569,-0.9527,0.0,0.0,-0.9575,-0.9575,-0.9575,-0.9575,-0.9575,-0.9555,-0.9527,-0.9527,-0.9437,-0.9287,-0.9112,-0.9023,-0.8995,-0.8802,-0.871,-0.8681,-0.8328,-0.8236,-0.8204,-0.8028,-0.794,-0.7937,-0.7903,-0.7807,0.0,-0.7684,-0.792,-0.8078,-0.782,-0.8123,-0.8383,-0.7863,-0.7962,-0.8351,-0.891,-0.9025,-0.9239,-1.0086,-1.0086,-0.9923,-0.9671,-0.8688,-0.7894,-0.7699,-0.7651,-0.7851,-0.8036,-0.7499,-0.7339,-0.7903,-0.7681,-0.75,-0.7543,-0.7119,-0.6718,-0.6371,-0.5465,-0.4935,-0.4877,-0.4847,-0.486,-0.4918,-0.5033,-0.5101,-0.5131,-0.5257,-0.5365,-0.5454,-0.5084,-0.4962,0.0,0.0,0.0,0.0,0.0,0.0,0.0,0.0,0.0,0.0,0.0,-0.8945,0.0,0.0,-1.0795,-1.153,-1.2017,-1.2512,-1.3113,-1.3454,-1.3477,-1.2978,-1.3226,-1.3207,-1.2624,-1.2677,-1.2437,-1.1538,-1.1455,-1.1354,-1.1131,-1.1116,-1.1393,-1.1844,-1.1501,-1.1208,-1.0768,-1.0491,-1.0015,-0.9628,-0.9628,-0.9628,-0.9628,-0.9628,-0.9628,-0.9628,-0.9628,-0.9628,-0.9628,-0.9628,-0.9571,-0.9482,-0.9397,-0.9254,-0.9096,-0.8905,-0.8938,-0.8958,-0.8686,-0.8627,-0.8627,-0.8274,-0.8158,-0.8143,-0.7967,-0.7944,-0.7925,-0.7922,-0.8328,-0.8717,-0.8359,-0.8721,-0.9022,-0.8193,-0.8739,-0.9308,-0.8805,-0.9043,-0.9395,-0.9406,-0.9086,-0.8746,-0.8656,-0.8275,-0.8069,-0.8371,-0.8348,-0.838,-0.8453,-0.8069,-0.7936,-0.8241,-0.7774,-0.7451,-0.7434,-0.6817,-0.6352,-0.6199,-0.5572,-0.5254,-0.5254,-0.5182,-0.5176,-0.5254,-0.5325,-0.5396,-0.5467,-0.5545,-0.562,-0.5694,-0.5616,-0.5538,0.0,0.0,0.0,0.0,0.0,0.0,0.0,0.0,-0.815,-0.8758,-0.9112,-0.9532,-1.0241,-1.1042,-1.177,-1.2305,-1.2685,-1.3106,-1.3654,-1.3728,-1.3728,-1.3728,-1.4195,-1.4272,-1.373,-1.3952,-1.3612,-1.2593,-1.2456,-1.2341,-1.2229,-1.2218,-1.2263,-1.2356,-1.2642,-1.2204,-1.1111,-1.1182,-1.0788,-0.9916,-0.9723,-0.9628,-0.9628,-0.9628,-0.9628,-0.9628,-0.9628,-0.9628,-0.9628,-0.9628,-0.9723,-0.9916,-0.9723,-0.9546,-0.9481,-0.9292,-0.9177,-0.9145,-0.9145,-0.9125,-0.9072,-0.8742,-0.8607,-0.8572,-0.822,-0.8078,-0.8074,-0.8124,-0.8719,-0.9287,-0.8871,-0.9423,-0.9788,-0.8752,-0.9497,-1.007,-0.8621,-0.8787,-0.8981,-0.8303,-0.7661,-0.7218,-0.725,-0.7974,-0.8692,-0.9069,-0.9266,-0.9207,-0.8974,-0.8723,-0.8525,-0.853,-0.7885,-0.7423,-0.7273,-0.6511,-0.5988,-0.5844,-0.5711,-0.563,-0.563,-0.5511,-0.5504,-0.563,-0.5661,-0.5732,-0.5844,-0.5874,-0.5905,-0.5935,-0.6057,-0.6037,-0.9956,-0.852,0.0,-0.8461,-0.8317,-0.837,0.0,0.0,-0.9987,-1.0575,-1.0929,-1.1162,-1.1263,-1.1784,-1.2311,-1.2721,-1.3173,-1.3661,-1.3988,-1.4041,-1.4041,-1.4041,-1.4322,-1.4548,-1.484,-1.481,-1.4456,-1.3538,-1.3135,-1.2992,-1.2963,-1.2963,-1.3165,-1.3624,-1.3665,-1.332,-1.249,-1.1648,-1.1175,-1.0979,-1.0015,-0.9628,-0.9628,-0.9628,-0.9628,-0.9628,-0.9628,-0.9628,-0.9628,-0.9628,-1.0207,-1.0886,-1.0015,-1.0181,-1.0817,-0.9857,-0.9466,-0.9328,-0.9328,-0.9226,-0.9096,-0.9076,-0.9068,-0.9031,-0.8758,-0.8615,-0.8403,-0.807,-0.8113,-0.8281,-0.783,-0.8086,-0.8471,-0.862,-0.8175,-0.7808,-0.804,-0.7529,-0.7217,-0.7789,-0.8082,-0.811,-0.7963,-0.8249,-0.8194,-0.7346,-0.7931,-0.8384,-0.8057,-0.7339,-0.7077,-0.7707,-0.7651,-0.7476,-0.7452,-0.7206,-0.6737,-0.6003,-0.5861,-0.5779,-0.5779,-0.5762,-0.5762,-0.5776,-0.5911,-0.5986,-0.6006,-0.6142,-0.6274,-0.6396,-0.6413,-0.6346,-1.0332,0.0,0.0,0.0,-0.9005,-0.9392,-1.0134,-1.0341,-1.0541,-1.1129,-1.1343,-1.153,-1.187,-1.2425,-1.2926,0.0,-1.3627,-1.3948,-1.4068,-1.4088,-1.4088,-1.4088,-1.4342,-1.4569,-1.4696,-1.4863,-1.4801,-1.4179,-1.4205,-1.4237,-1.4237,-1.4385,-1.4289,-1.4105,-1.4117,-1.3593,-1.2727,-1.1658,-1.117,-1.117,-1.0109,-0.9628,-0.9628,-0.9628,-0.9628,-0.9628,-1.0306,-1.0498,-1.0596,-1.1179,-1.1663,-1.195,-1.0886,-1.1175,-1.1853,-1.0212,-0.9579,-0.9514,-0.9514,-0.9845,-1.0236,-0.9469,-1.0085,-1.0885,-1.0122,-1.0154,-1.0204,-0.937,-0.9495,-0.9557,-0.8572,-0.8899,-0.9396,-0.9388,-0.9542,-0.9492,-0.9117,-0.8748,-0.8463,-0.8677,-0.848,-0.8272,-0.811,-0.8767,-0.8769,-0.7232,-0.735,-0.7502,-0.7333,-0.6866,-0.66,-0.6823,-0.6835,-0.6795,-0.6795,-0.6732,-0.654,-0.6162,-0.6105,-0.6067,-0.6067,-0.6067,-0.6067,-0.6067,-0.6132,-0.6166,-0.6166,-0.6312,-0.6413,-0.6474,-0.6563,-0.662,-1.0709,0.0,0.0,-0.9398,-0.9822,-1.0281,-1.0441,-1.0708,-1.1042,-1.1463,-1.161,-1.1797,-1.2225,-1.2799,0.0,-1.3487,-1.3841,-1.4088,-1.4088,-1.4088,-1.4055,-1.3975,-1.4222,-1.4369,-1.4289,-1.4696,-1.4843,-1.4543,-1.4796,-1.4963,-1.4963,-1.5237,-1.5058,-1.4286,-1.4586,-1.419,-1.3119,-1.2436,-1.2052,-1.2047,-1.0984,-1.0502,-1.0502,-1.0502,-1.0502,-1.0502,-1.1272,-1.1658,-1.1658,-1.2436,-1.2829,-1.3022,-1.2047,-1.2242,-1.2926,-1.1082,-1.0306,-1.0113,-1.0404,-1.0788,-1.1146,-1.0522,-1.1331,-1.2425,-1.1445,-1.1472,-1.1707,-1.0653,-1.0736,-1.0746,-0.9619,-0.9809,-1.0289,-1.0274,-1.0626,-1.0737,-1.0179,-0.9709,-0.9312,-0.9341,-0.8726,-0.8272,-0.811,-0.8849,-0.8969,-0.7312,-0.7051,-0.6987,-0.6987,-0.6722,-0.6478,-0.6335,-0.6285,-0.6338,-0.6338,-0.6338,-0.6338,-0.6338,-0.6338,-0.6338,-0.6338,-0.6338,-0.6278,-0.6318,-0.6318,-0.6339,-0.6383,-0.6485,-0.6556,-0.66,-0.6712,-0.6844,0.0,0.0,-0.9484,-1.0696,-1.08,-1.0695,-1.1256,-1.1617,-1.1908,-1.185,-1.2078,-1.2278,-1.2298,-1.2799,-1.3213,-1.322,-1.3707,-1.4088,-1.4088,-1.4088,-1.3981,-1.3687,-1.3921,-1.3988,0.0,-1.4456,-1.4843,-1.4543,-1.4796,-1.4963,-1.4963,-1.5237,-1.5058,-1.4286,-1.5255,-1.5255,-1.4298,-1.4202,-1.4196,-1.4202,-1.3125,-1.2635,-1.2635,-1.2635,-1.2635,-1.2635,-1.2635,-1.263,-1.263,-1.2727,-1.3318,-1.41,-1.3022,-1.3318,-1.41,-1.3022,-1.195,-1.1268,-1.2242,-1.195,-1.1365,-1.2334,-1.2624,-1.2673,-1.2525,-1.2272,-1.1953,-1.1533,-1.1217,-1.0875,-1.0423,-1.0269,-1.0463,-1.1068,-1.0621,-1.0125,-1.0931,-0.9615,-0.8552,-0.9178,-0.8726,-0.8272,-0.811,-0.834,-0.8193,-0.7228,-0.7136,-0.7132,-0.7132,-0.6875,-0.6634,-0.6481,-0.6342,-0.6338,-0.6338,-0.6338,-0.6338,-0.6338,-0.6338,-0.6338,-0.6338,-0.6338,-0.6325,-0.6464,-0.6464,-0.6539,-0.6685,-0.6692,-0.677,-0.6915,-0.6919,-0.6997,0.0,0.0,-1.1113,-1.0854,-1.1347,-1.19,-1.1769,-1.1944,-1.2098,-1.1911,-1.1951,-1.2011,-1.2011,-1.2338,-1.2739,-1.3146,-1.354,-1.3861,-1.4055,-1.4088,-1.3975,-1.3681,-1.3908,0.0,0.0,0.0,0.0,-1.4516,-1.4609,-1.4836,-1.5231,-1.5344,-1.5345,-1.5343,-1.5635,-1.5635,-1.5255,-1.4586,-1.4298,-1.4298,-1.3216,-1.2727,-1.2727,-1.2727,-1.2727,-1.2732,-1.3414,-1.3806,-1.3806,-1.4472,-1.4962,-1.5159,-1.419,-1.4382,-1.5159,-1.4094,-1.3516,-1.3221,-1.2829,-1.2926,-1.3221,-1.2829,-1.3601,-1.4651,-1.3891,-1.3874,-1.3921,-1.2989,-1.2766,-1.2665,-1.1764,-1.1831,-1.219,-1.2452,-1.214,-1.1809,-1.2076,-1.1198,-1.0449,-1.1139,-1.0784,-1.0042,-0.9137,-0.9275,-0.8882,-0.7312,-0.7139,-0.7105,-0.701,-0.6824,-0.6644,-0.6488,-0.6346,-0.6338,-0.6338,-0.6338,-0.6338,-0.6338,-0.6338,-0.6338,-0.6338,-0.6338,-0.6285,-0.6332,-0.6424,-0.6498,-0.6549,-0.6753,-0.6878,-0.6929,-0.7024,-0.7095,0.0,-1.1684,-1.1988,-1.2026,-1.2218,-1.2346,-1.2451,-1.2301,-1.2091,-1.1911,-1.1784,-1.171,-1.171,-1.1951,-1.2311,-1.2806,-1.3227,-1.3594,-1.3888,-1.4021,-1.3975,-1.3681,-1.3908,0.0,0.0,0.0,0.0,-1.4496,-1.4623,-1.489,-1.5371,-1.5398,-1.5531,-1.5818,-1.5832,-1.5832,-1.5832,-1.5159,-1.4873,-1.4873,-1.4184,-1.3794,-1.3794,-1.3794,-1.3794,-1.389,-1.458,-1.4873,-1.4873,-1.554,-1.5832,-1.573,-1.5064,-1.5255,-1.5737,-1.5064,-1.4873,-1.4777,-1.4088,-1.3992,-1.4292,-1.3896,-1.4669,-1.5635,-1.5064,-1.507,-1.5038,-1.4181,-1.3972,-1.3863,-1.294,-1.2995,-1.3242,-1.3145,-1.2988,-1.2825,-1.2729,-1.1929,-1.1455,-1.1893,-1.1043,-1.0062,-0.924,-0.8974,-0.8511,-0.7246,-0.7109,-0.7105,-0.7017,-0.6875,-0.6746,-0.6647,-0.6458,-0.6335,-0.6335,-0.6291,-0.6338,-0.6338,-0.6338,-0.6338,-0.6338,-0.6338,-0.6285,-0.6335,-0.6478,-0.658,-0.6634,-0.6885,-0.7004,-0.7007,-0.7099,-0.7139,-1.3686,-1.2854,-1.2208,-1.408,-1.3309,-1.2308,-1.323,-1.2692,-1.1908,-1.1881,-1.157,-1.1356,0.0,0.0,-1.1904,-1.2204,-1.2779,-1.3293,-1.3601,-1.3901,-1.3975,0.0,0.0,0.0,0.0,0.0,0.0,-1.4496,0.0,-1.5057,-1.5378,-1.5384,-1.5518,-1.5818,-1.5832,-1.5832,-1.5832,-1.5832,-1.5832,-1.5832,-1.5832,-1.5832,-1.5832,-1.5832,-1.5832,-1.5832,-1.5832,-1.5832,-1.5832,-1.5832,-1.5832,-1.5832,-1.5832,-1.5832,-1.5832,-1.5832,-1.5832,-1.5832,-1.5832,-1.5159,-1.449,-1.5445,-1.5832,-1.5832,-1.5832,-1.5642,-1.5452,-1.5172,-1.4697,-1.4216,-1.4023,-1.3731,-1.3471,-1.3224,-1.3151,-1.3067,-1.2783,-1.2037,-1.1424,-1.1327,-0.9845,-0.854,-0.8544,-0.7753,-0.7095,-0.6959,-0.7054,-0.7139,-0.7129,-0.701,-0.6929,-0.6929,-0.6661,-0.6485,-0.6485,-0.6352,-0.6271,-0.6271,-0.6342,-0.6338,-0.6338,-0.6338,-0.6325,-0.6458,-0.6617,-0.6773,-0.6919,-0.7068,-0.7139,-0.7139,-0.7139,-0.7139,-1.3696,-1.431,-1.4953,-1.4461,-1.4567,-1.4505,-1.3416,-1.2786,-1.2151,-1.1114,-1.0655,-1.0381,0.0,0.0,0.0,-1.1563,-1.2331,0.0,-1.3492,-1.3901,0.0,0.0,0.0,-1.3968,-1.3592,-1.3915,0.0,0.0,-1.4389,-1.4629,-1.5357,-1.519,-1.5304,-1.5812,-1.5832,-1.5832,-1.5832,-1.5832,-1.5832,-1.5832,-1.5832,-1.5832,-1.5832,-1.5832,-1.5832,-1.5832,-1.5832,-1.5832,-1.5832,-1.5832,-1.5832,-1.5832,-1.5832,-1.5832,-1.5832,-1.5832,-1.5832,-1.5832,-1.5832,-1.5635,-1.5445,-1.5737,-1.5832,-1.5832,-1.5832,-1.5642,-1.5445,-1.5452,-1.5019,-1.4589,-1.4493,-1.4196,-1.3791,-1.3725,-1.3556,-1.3344,-1.3079,-1.2838,-1.2604,-1.2398,-1.0794,-0.9318,-0.8632,-0.7753,-0.7129,-0.7092,-0.7115,-0.7102,-0.6997,-0.6953,-0.6929,-0.6929,-0.6756,-0.6644,-0.6644,-0.6505,-0.6417,-0.6417,-0.6318,-0.6338,-0.6338,-0.6338,-0.6278,-0.6315,-0.6569,-0.6719,-0.6759,-0.7014,-0.7139,-0.7139,-0.7139,-0.7139,-1.4396,-1.5058,-1.5698,-1.5274,-1.5076,-1.471,-1.3592,-1.2869,-1.2134,-1.0705,-1.0302,0.0,0.0,0.0,0.0,0.0,0.0,0.0,-1.3353,-1.3707,-1.3881,0.0,-1.3988,0.0,-1.3854,-1.3988,-1.4155,0.0,-1.4182,-1.4469,-1.5351,-1.5124,-1.5231,-1.5812,-1.5832,-1.5832,-1.5832,-1.5832,-1.5832,-1.5832,-1.5832,-1.5832,-1.5832,-1.5832,-1.5832,-1.5832,0.0,-1.5832,-1.5832,-1.5832,-1.5832,-1.5832,-1.5832,-1.5832,-1.5832,-1.5832,-1.5832,-1.5832,-1.5832,-1.5832,-1.5832,-1.5832,-1.5832,-1.5832,-1.5832,-1.5737,-1.5635,-1.5356,-1.5077,-1.479,-1.4592,-1.4285,-1.4051,-1.393,-1.3797,-1.3616,-1.335,-1.3206,-1.2867,-1.2238,-1.088,-0.9579,-0.8627,-0.7753,-0.7119,-0.7058,-0.7099,-0.7088,-0.6946,-0.6983,-0.7021,-0.7021,-0.6888,-0.68,-0.68,-0.66,-0.6502,-0.6569,-0.6434,-0.6383,-0.6451,-0.6454,-0.6454,-0.6454,-0.6681,-0.68,-0.68,-0.7031,-0.7139,-0.7139,-0.7139,-0.7139,-1.5312,-1.5366,-1.5493,-1.6093,-1.5197,-1.4066,-1.3769,-1.2916,-1.1805,-1.0352,0.0,0.0,-0.962,0.0,-1.0254,-1.0842,0.0,-1.2171,-1.3026,-1.3434,-1.3741,-1.4001,-1.4062,-1.4088,-1.4088,-1.4088,-1.4088,-1.4088,-1.4088,-1.4456,-1.5297,-1.5104,-1.5231,-1.5812,-1.5832,-1.5832,-1.5832,-1.5832,-1.5832,-1.5832,-1.5832,-1.5832,-1.5832,-1.5832,-1.5832,-1.5832,-1.5832,0.0,-1.5832,-1.5832,-1.5832,-1.5832,-1.5832,-1.5832,-1.5832,-1.5832,-1.5832,-1.5832,-1.5832,-1.5832,-1.5832,-1.5832,-1.5832,-1.5832,-1.5832,-1.5832,-1.5737,-1.5267,-1.5178,-1.4987,-1.4496,-1.4394,-1.4238,-1.4014,-1.396,-1.3888,-1.3622,-1.3243,-1.2604,-1.1413,-1.0381,-0.9405,-0.8452,-0.7665,-0.7099,-0.6973,-0.7061,-0.7095,-0.6973,-0.7065,-0.7139,-0.7139,-0.7031,-0.6956,-0.6956,-0.6698,-0.659,-0.6722,-0.6586,-0.6563,-0.6695,-0.6702,-0.6702,-0.6702,-0.6851,-0.6929,-0.6929,-0.7071,-0.7139,-0.7139,-0.7139,-0.7139,-1.5794,-1.5817,-1.5881,-1.623,-1.5613,-1.4684,-1.3723,-1.2406,0.0,0.0,0.0,-0.8752,-0.8655,-0.9239,0.0,-1.0541,0.0,0.0,0.0,0.0,-1.3579,0.0,0.0,0.0,0.0,0.0,0.0,0.0,0.0,-1.4362,-1.5003,-1.499,-1.5231,-1.5812,-1.5832,-1.5832,-1.5832,-1.5832,-1.5832,-1.5832,-1.5832,-1.5832,-1.5832,-1.5832,-1.5832,-1.5832,-1.5832,0.0,-1.5832,-1.5832,-1.5832,-1.5832,-1.5832,-1.5832,-1.5832,-1.5832,-1.5832,-1.5832,-1.5832,-1.5832,-1.5832,-1.5832,-1.5832,-1.5832,-1.5832,-1.5832,-1.5737,-1.5737,-1.5363,-1.5083,-1.4987,-1.4592,-1.4286,-1.4244,-1.4226,-1.4159,-1.3894,-1.2813,-1.1666,-1.0647,-0.9526,-0.8452,-0.7489,-0.7228,-0.7132,-0.7105,-0.7126,-0.7132,-0.7105,-0.7126,-0.7139,-0.7139,-0.7119,-0.7102,-0.7102,-0.6949,-0.6861,-0.6888,-0.6746,-0.6671,-0.6698,-0.6702,-0.6702,-0.6702,-0.6851,-0.6929,-0.6929,-0.7071,-0.7139,-0.7139,-0.7139,-0.7139,-1.5713,-1.5851,-1.5937,-1.5936,-1.5386,-1.4508,-1.3551,0.0,0.0,0.0,0.0,-0.8519,-0.8393,0.0,0.0,0.0,0.0,0.0,0.0,0.0,0.0,0.0,0.0,0.0,0.0,0.0,0.0,0.0,0.0,-1.4275,-1.471,-1.5023,-1.5384,-1.5812,-1.5832,-1.5832,-1.5832,-1.5832,-1.5832,-1.5832,-1.5832,-1.5832,-1.5832,-1.5832,-1.5832,-1.5832,-1.5832,0.0,-1.5832,-1.5832,-1.5832,-1.5832,-1.5832,-1.5832,-1.5832,-1.5832,-1.5832,-1.5832,-1.5832,-1.5832,-1.5832,-1.5832,-1.5832,-1.5832,-1.5832,-1.5832,-1.5737,-1.5635,-1.5452,-1.5267,-1.4981,-1.4688,-1.4496,-1.4298,-1.4298,-1.4226,-1.396,-1.2951,-1.1785,-1.1189,-0.9718,-0.8472,-0.7944,-0.7404,-0.7139,-0.7139,-0.7139,-0.7139,-0.7139,-0.7139,-0.7139,-0.7139,-0.7139,-0.7139,-0.7139,-0.701,-0.6959,-0.7034,-0.6902,-0.6851,-0.6926,-0.6929,-0.6929,-0.6929,-0.7,-0.7037,-0.7041,-0.7105,-0.7139,-0.7139,-0.7139,-0.7139,-1.5479,-1.5628,-1.5703,-1.5606,-1.49,-1.4023,-1.3208,-1.2044,0.0,0.0,0.0,-0.8493,-0.8227,0.0,0.0,0.0,0.0,0.0,0.0,0.0,0.0,0.0,0.0,0.0,0.0,0.0,0.0,0.0,0.0,0.0,-1.4502,-1.5077,-1.5504,-1.5732,-1.5798,-1.5832,-1.5832,-1.5832,-1.5832,-1.5832,-1.5832,-1.5832,-1.5832,-1.5832,-1.5832,-1.5832,-1.5832,0.0,0.0,-1.5832,-1.5832,-1.5832,-1.5832,-1.5832,-1.5832,-1.5832,-1.5832,-1.5832,-1.5832,-1.5832,-1.5832,-1.5832,-1.5832,-1.5832,-1.5832,-1.5832,-1.5737,-1.5635,-1.554,-1.535,-1.4879,-1.479,-1.4592,-1.4394,-1.4298,-1.4244,-1.4032,-1.2892,-1.189,-1.1621,-0.9845,-0.8489,-0.8271,-0.7602,-0.7139,-0.7139,-0.7139,-0.7139,-0.7139,-0.7139,-0.7139,-0.7139,-0.7139,-0.7139,-0.7139,-0.7037,-0.7021,-0.7132,-0.7037,-0.7024,-0.7136,-0.7139,-0.7139,-0.7139,-0.7139,-0.7139,-0.7139,-0.7139,-0.7139,-0.7139,-0.7139,-0.7139,-1.5254,-1.5174,-1.5119,-1.5312,-1.4394,-1.3296,-1.2821,0.0,0.0,0.0,-0.8556,-0.806,-0.7632,0.0,0.0,0.0,0.0,0.0,0.0,0.0,0.0,0.0,0.0,0.0,0.0,0.0,0.0,0.0,0.0,0.0,-1.4502,-1.5077,-1.5404,-1.5438,-1.5691,-1.5832,-1.5832,-1.5832,-1.5832,-1.5832,-1.5832,-1.5832,-1.5832,-1.5832,-1.5832,-1.5832,-1.5832,0.0,0.0,-1.5832,-1.5832,-1.5832,-1.5832,-1.5832,-1.5832,-1.5832,-1.5832,-1.5832,-1.5832,-1.5832,-1.5832,-1.5832,-1.5832,-1.5832,-1.5832,-1.5832,-1.5832,-1.5737,-1.5635,-1.5445,-1.5172,-1.4885,-1.4592,-1.4394,-1.4298,-1.4292,-1.4268,-1.2527,-1.1029,-1.099,-0.9116,-0.7549,-0.7535,-0.7324,-0.7139,-0.7139,-0.7139,-0.7139,-0.7139,-0.7139,-0.7139,-0.7139,-0.7139,-0.7139,-0.7139,-0.7129,-0.7126,-0.7139,-0.7129,-0.7126,-0.7139,-0.7139,-0.7139,-0.7139,-0.7139,-0.7139,-0.7139,-0.7139,-0.7139,-0.7139,-0.7139,-0.7139,-1.4733,-1.4706,-1.4581,-1.4683,-1.3997,-1.3175,-1.2563,0.0,0.0,-0.9128,-0.8149,-0.7472,-0.7479,0.0,0.0,0.0,0.0,0.0,0.0,0.0,0.0,0.0,0.0,0.0,0.0,0.0,0.0,0.0,0.0,0.0,-1.4255,-1.4643,-1.495,-1.513,-1.5418,-1.5571,-1.5571,-1.5745,-1.5832,-1.5832,-1.5832,-1.5832,-1.5832,-1.5832,-1.5832,-1.5832,-1.5832,0.0,0.0,-1.5832,-1.5832,-1.5832,-1.5832,-1.5832,-1.5832,-1.5832,-1.5832,-1.5832,-1.5832,-1.5832,-1.5832,-1.5832,-1.5832,-1.5832,-1.5832,-1.5832,-1.5737,-1.5635,-1.554,-1.535,-1.4975,-1.4688,-1.4394,-1.4298,-1.4298,-1.4298,-1.4298,-1.256,-1.1101,-1.0972,-0.9137,-0.7482,-0.7387,-0.7244,-0.7139,-0.7139,-0.7139,-0.7139,-0.7139,-0.7139,-0.7139,-0.7139,-0.7139,-0.7139,-0.7139,-0.7139,-0.7139,-0.7139,-0.7139,-0.7139,-0.7139,-0.7139,-0.7139,-0.7139,-0.7139,-0.7139,-0.7139,-0.7139,-0.7139,-0.7139,-0.7139,-0.7139,-1.4131,-1.4227,-1.41,-1.41,-1.3625,-1.2945,0.0,0.0,-0.9624,-0.8826,-0.7893,-0.725,-0.7338,-0.7453,0.0,0.0,0.0,0.0,0.0,0.0,0.0,0.0,0.0,0.0,0.0,0.0,0.0,0.0,0.0,0.0,0.0,-1.4282,-1.4529,-1.4823,-1.5204,-1.5398,-1.5398,-1.5685,-1.5832,-1.5832,-1.5832,-1.5832,-1.5832,-1.5832,-1.5832,-1.5832,-1.5832,0.0,0.0,-1.5832,-1.5832,-1.5832,-1.5832,-1.5832,-1.5832,-1.5832,-1.5832,-1.5832,-1.5832,-1.5832,-1.5832,-1.5832,-1.5832,-1.5832,-1.5832,-1.5832,-1.5737,-1.5635,-1.554,-1.535,-1.4975,-1.4592,-1.4394,-1.4298,-1.4298,-1.4196,-1.3902,-1.2441,-1.1127,-1.0692,-0.8993,-0.7614,-0.7465,-0.7309,-0.7193,-0.7146,-0.7139,-0.7139,-0.7139,-0.7139,-0.7139,-0.7139,-0.7139,-0.7139,-0.7139,-0.7139,-0.7139,-0.7139,-0.7139,-0.7139,-0.7139,-0.7139,-0.7139,-0.7139,-0.7139,-0.7139,-0.7139,-0.7139,-0.7139,-0.7139,-0.7139,-0.7139,-1.3516,-1.3609,-1.3702,-1.3702,-1.3284,-1.2563,0.0,-1.0681,-0.9906,-0.8257,-0.778,-0.7558,-0.7105,-0.7268,-0.7715,0.0,0.0,0.0,0.0,0.0,0.0,0.0,0.0,0.0,0.0,0.0,0.0,0.0,0.0,0.0,0.0,-1.4088,-1.4222,-1.4516,-1.509,-1.5398,-1.5398,-1.5685,-1.5832,-1.5832,-1.5832,-1.5832,-1.5832,-1.5832,-1.5832,0.0,0.0,0.0,0.0,-1.5832,-1.5832,-1.5832,-1.5832,-1.5832,-1.5832,-1.5832,-1.5832,-1.5832,-1.5832,-1.5832,-1.5832,-1.5832,-1.5832,-1.5832,-1.5832,-1.5832,-1.5832,-1.5832,-1.5635,-1.5452,-1.5178,-1.4885,-1.4592,-1.4394,-1.4298,-1.4004,-1.2926,-1.195,-1.0881,-0.9801,-0.8589,-0.7763,-0.7624,-0.7468,-0.7316,-0.7163,-0.7139,-0.7139,-0.7139,-0.7139,-0.7139,-0.7139,-0.7139,-0.7139,-0.7139,-0.7139,-0.7139,-0.7139,-0.7139,-0.7139,-0.7139,-0.7139,-0.7139,-0.7139,-0.7139,-0.7139,-0.7139,-0.7139,-0.7139,-0.7139,-0.7139,-0.7139,-1.2589,-1.2792,-1.2884,-1.2705,-1.2387,-1.1921,-1.1041,-1.0214,-0.9374,-0.8494,-0.7821,-0.728,-0.7021,-0.7101,-0.7428,-0.8243,0.0,0.0,0.0,0.0,0.0,0.0,0.0,0.0,0.0,0.0,0.0,0.0,0.0,0.0,0.0,-1.4088,-1.4128,-1.4222,-1.4596,-1.4796,-1.4796,-1.5284,-1.5531,-1.5538,-1.5732,-1.5832,-1.5832,-1.5832,-1.5832,0.0,0.0,0.0,0.0,-1.5832,-1.5832,-1.5832,-1.5832,-1.5832,-1.5832,-1.5832,-1.5832,-1.5832,-1.5832,-1.5832,-1.5832,-1.5832,-1.5832,-1.5832,-1.5832,-1.5832,-1.5737,-1.5363,-1.5166,-1.4879,-1.4592,-1.449,-1.4394,-1.4298,-1.3709,-1.3119,-1.2727,-1.1361,-0.9998,-0.9706,-0.8589,-0.7797,-0.775,-0.7536,-0.7356,-0.7305,-0.7207,-0.7139,-0.7139,-0.7139,-0.7139,-0.7139,-0.7139,-0.7139,-0.7139,-0.7139,-0.7139,-0.7139,-0.7139,-0.7139,-0.7139,-0.7139,-0.7139,-0.7139,-0.7139,-0.7139,-0.7139,-0.7139,-0.7139,-0.7139,-0.7139,-0.7139,0.0,-1.2086,-1.2128,-1.1924,-1.1765,-1.1438,-1.0714,-1.0031,-0.9359,-0.8503,-0.7863,-0.737,-0.707,-0.7114,-0.7375,-0.7943,0.0,0.0,0.0,0.0,0.0,0.0,0.0,0.0,0.0,0.0,0.0,0.0,0.0,0.0,0.0,-1.4088,-1.4088,-1.4088,-1.4369,-1.4522,-1.4522,-1.499,-1.5237,-1.5237,-1.5418,-1.5504,-1.5504,-1.5504,-1.5504,0.0,0.0,0.0,0.0,-1.5618,-1.5665,-1.5678,-1.5785,-1.5832,-1.5832,-1.5832,-1.5832,-1.5832,-1.5832,-1.5832,-1.5832,-1.5832,-1.5832,-1.5832,-1.5832,-1.5832,-1.5737,-1.5458,-1.5172,-1.4975,-1.4688,-1.4496,-1.4394,-1.4298,-1.3511,-1.2635,-1.2242,-1.0779,-0.9509,-0.9118,-0.835,-0.7879,-0.7821,-0.7614,-0.7438,-0.738,-0.7241,-0.7139,-0.7139,-0.7139,-0.7139,-0.7139,-0.7139,-0.7139,-0.7139,-0.7139,-0.7139,-0.7139,-0.7139,-0.7139,-0.7139,-0.7139,-0.7139,-0.7139,-0.7139,-0.7139,-0.7139,-0.7139,-0.7139,-0.7139,-0.7139,-0.7139,0.0,-1.133,-1.1281,-1.1253,-1.1262,-1.1046,-1.0228,-0.9993,0.0,-0.825,-0.7908,-0.7682,-0.7132,-0.7261,-0.7513,0.0,0.0,0.0,0.0,0.0,0.0,0.0,0.0,0.0,0.0,0.0,0.0,0.0,0.0,0.0,0.0,-1.4088,-1.4088,-1.4088,-1.4349,-1.4489,-1.4489,-1.4803,-1.495,-1.4937,-1.495,-1.4963,-1.4963,-1.4963,-1.4963,0.0,0.0,0.0,0.0,-1.5257,-1.5364,-1.5391,-1.5685,-1.5798,-1.5798,-1.5818,-1.5832,-1.5832,-1.5832,-1.5832,-1.5832,-1.5832,-1.5832,-1.5832,-1.5832,-1.5832,-1.5832,-1.5737,-1.5635,-1.5452,-1.5172,-1.4885,-1.4592,-1.4298,-1.3414,-1.2339,-1.1268,-1.0194,-0.9217,-0.8237,-0.8038,-0.7994,-0.7851,-0.7709,-0.7563,-0.7411,-0.7255,-0.7153,-0.7143,-0.7139,-0.7139,-0.7139,-0.7139,-0.7139,-0.7139,-0.7139,-0.7139,-0.7139,-0.7139,-0.7139,-0.7139,-0.7139,-0.7139,-0.7139,-0.7139,-0.7139,-0.7139,-0.7139,-0.7139,-0.7139,-0.7139,-0.7139,-0.9434,0.0,-0.9944,-0.9661,-0.9779,-0.9868,0.0,-0.9056,0.0,0.0,0.0,0.0,0.0,0.0,0.0,0.0,0.0,0.0,0.0,0.0,0.0,0.0,0.0,0.0,0.0,0.0,0.0,0.0,0.0,0.0,0.0,-1.4088,-1.4088,-1.4088,-1.4155,-1.4188,-1.4188,-1.4703,-1.485,-1.4629,-1.4856,-1.4963,-1.4963,-1.4963,-1.4963,0.0,0.0,0.0,-1.497,-1.5037,-1.5064,-1.5097,-1.5384,-1.5498,-1.5524,-1.5745,-1.5832,-1.5832,-1.5832,-1.5832,-1.5832,-1.5832,-1.5832,-1.5832,-1.5832,-1.5832,-1.5737,-1.5635,-1.5356,-1.5172,-1.4885,-1.4592,-1.4196,-1.3318,-1.2339,-1.1268,-1.0194,-0.9118,-0.8333,-0.8038,-0.8038,-0.8028,-0.7991,-0.7862,-0.7712,-0.7567,-0.7414,-0.7275,-0.7156,-0.7139,-0.7139,-0.7139,-0.7139,-0.7139,-0.7139,-0.7139,-0.7139,-0.7139,-0.7139,-0.7139,-0.7139,-0.7139,-0.7139,-0.7139,-0.7139,-0.7139,-0.7139,-0.7139,-0.7139,-0.7139,-0.7139,-0.7139,-0.8359,-0.898,-0.9534,-0.9346,-0.9355,-0.9373,0.0,0.0,0.0,0.0,0.0,0.0,0.0,0.0,0.0,0.0,0.0,0.0,0.0,0.0,0.0,0.0,0.0,0.0,0.0,0.0,0.0,0.0,0.0,0.0,0.0,-1.4088,-1.4088,-1.4088,-1.4215,-1.4222,-1.4088,-1.4402,-1.4482,-1.4322,-1.4482,-1.4563,-1.4563,-1.4563,-1.4563,0.0,0.0,0.0,-1.4576,-1.471,-1.4763,-1.479,-1.5084,-1.5197,-1.5237,-1.5524,-1.5631,-1.5651,-1.5785,-1.5832,-1.5832,-1.5832,-1.5832,-1.5832,-1.5832,-1.5832,-1.573,-1.554,-1.5267,-1.4885,-1.4196,-1.3806,-1.3318,-1.2242,-1.1268,-1.0293,-0.9706,-0.8726,-0.8038,-0.8038,-0.8038,-0.8038,-0.8038,-0.7913,-0.7763,-0.7621,-0.7468,-0.7316,-0.716,-0.7139,-0.7139,-0.7139,-0.7139,-0.7139,-0.7139,-0.7139,-0.7139,-0.7139,-0.7139,-0.7139,-0.7139,-0.7139,-0.7139,-0.7139,-0.7139,-0.7139,-0.7139,-0.7139,-0.7139,-0.7139,-0.7139,-0.7139,-0.7761,-0.8627,-0.9445,-0.9319,-0.9205,-0.9069,0.0,0.0,0.0,0.0,0.0,0.0,0.0,0.0,0.0,0.0,0.0,0.0,0.0,0.0,0.0,0.0,0.0,0.0,0.0,0.0,0.0,0.0,0.0,0.0,0.0,-1.4088,-1.4088,-1.4088,-1.4322,-1.4335,-1.4088,-1.4128,-1.4128,-1.4088,-1.4088,-1.4088,-1.4088,-1.4088,-1.4088,-1.4088,0.0,0.0,-1.4108,-1.4355,-1.4456,-1.4482,-1.4783,-1.4897,-1.493,-1.5224,-1.5331,-1.5371,-1.5665,-1.5792,-1.5832,-1.5832,-1.5832,-1.5832,-1.5832,-1.5737,-1.554,-1.5255,-1.5064,-1.4592,-1.3221,-1.2635,-1.2242,-1.117,-1.0293,-0.9509,-0.941,-0.8627,-0.8038,-0.8038,-0.8038,-0.8038,-0.8038,-0.7933,-0.7797,-0.7655,-0.7502,-0.735,-0.7193,-0.7153,-0.7139,-0.7139,-0.7139,-0.7139,-0.7139,-0.7139,-0.7139,-0.7139,-0.7139,-0.7139,-0.7139,-0.7139,-0.7139,-0.7139,-0.7139,-0.7139,-0.7139,-0.7139,-0.7139,-0.7139,-0.7139,-0.7139,-0.8045,-0.8531,-0.8757,-0.8155,-0.8246,-0.8433,0.0,0.0,0.0,0.0,0.0,0.0,0.0,0.0,0.0,0.0,0.0,0.0,0.0,0.0,0.0,0.0,0.0,0.0,0.0,0.0,0.0,0.0,0.0,0.0,0.0,-1.4088,-1.4088,-1.4088,-1.4128,-1.4128,-1.4088,-1.4335,-1.4329,-1.4088,-1.4088,-1.4088,-1.4088,-1.4088,-1.4088,-1.4088,0.0,-1.4088,-1.4088,-1.4135,-1.4155,-1.4182,-1.4476,-1.4589,-1.4623,-1.4923,-1.503,-1.507,-1.5364,-1.5625,-1.5832,-1.5832,-1.5832,-1.5832,-1.5832,-1.5255,-1.4388,-1.3902,-1.3806,-1.3414,-1.2145,-1.1658,-1.117,-1.0096,-0.9706,-0.9312,-0.8432,-0.8137,-0.8038,-0.8038,-0.8038,-0.8038,-0.8038,-0.8021,-0.7953,-0.7801,-0.7655,-0.7509,-0.7356,-0.7221,-0.7139,-0.7139,-0.7139,-0.7139,-0.7139,-0.7139,-0.7139,-0.7139,-0.7139,-0.7139,-0.7139,-0.7139,-0.7139,-0.7139,-0.7139,-0.7139,-0.7139,-0.7139,-0.7139,-0.7139,-0.7139,-0.7139,-0.7652,-0.7928,-0.8127,-0.7784,-0.815,-0.8513,0.0,0.0,0.0,0.0,0.0,0.0,0.0,0.0,0.0,0.0,0.0,0.0,0.0,0.0,0.0,0.0,0.0,0.0,0.0,0.0,0.0,0.0,0.0,0.0,-1.4088,-1.4088,-1.4088,-1.4088,-1.4088,-1.4088,-1.4088,-1.4222,-1.4222,-1.4088,-1.4088,-1.4088,-1.4088,-1.4088,-1.4088,-1.4088,0.0,-1.4088,-1.4088,-1.4088,-1.4088,-1.4102,-1.4235,-1.4382,-1.4556,-1.4856,-1.4963,-1.4983,-1.5117,-1.5251,-1.5292,-1.4871,-1.4722,-1.4653,-1.4232,-1.3698,-1.3022,-1.2047,-1.2242,-1.2344,-1.0877,-1.0391,-1.0096,-0.9019,-0.8726,-0.8627,-0.8137,-0.8038,-0.8038,-0.8038,-0.8038,-0.8038,-0.8038,-0.8038,-0.7987,-0.7834,-0.7756,-0.7631,-0.74,-0.7309,-0.7234,-0.7149,-0.7139,-0.7139,-0.7139,-0.7139,-0.7139,-0.7139,-0.7139,-0.7139,-0.7139,-0.7139,-0.7139,-0.7139,-0.7139,-0.7139,-0.7139,-0.7139,-0.7139,-0.7139,-0.7139,-0.7139,-0.7363,-0.7492,-0.7699,0.0,0.0,0.0,0.0,0.0,0.0,0.0,0.0,0.0,0.0,0.0,0.0,0.0,0.0,0.0,0.0,0.0,0.0,0.0,0.0,0.0,0.0,0.0,0.0,0.0,0.0,0.0,-1.4088,-1.4088,-1.4088,-1.4088,-1.4088,-1.4088,-1.4088,-1.4088,-1.4088,-1.4088,-1.4088,-1.4088,-1.4088,-1.4088,-1.4088,-1.4088,-1.4088,-1.4088,-1.4088,-1.4088,-1.4088,-1.4088,-1.4088,-1.4262,-1.4536,-1.4703,-1.485,-1.495,-1.4883,-1.4903,-1.4907,-1.4276,-1.4106,-1.4098,-1.3547,-1.2973,-1.2436,-1.1072,-1.117,-1.1175,-0.9608,-0.9213,-0.9019,-0.8237,-0.8038,-0.8038,-0.8038,-0.8038,-0.8038,-0.8038,-0.8038,-0.8038,-0.8038,-0.8038,-0.7997,-0.7882,-0.7834,-0.7729,-0.7502,-0.7444,-0.738,-0.7261,-0.7217,-0.718,-0.7143,-0.7139,-0.7139,-0.7139,-0.7139,-0.7139,-0.7139,-0.7139,-0.7139,-0.7139,-0.7139,-0.7139,-0.7139,-0.7139,-0.7139,-0.7139,-0.7139,-0.7139,-0.7594,-0.7691,-0.7702,-0.7717,0.0,0.0,0.0,0.0,0.0,0.0,0.0,0.0,0.0,0.0,0.0,0.0,0.0,0.0,0.0,0.0,0.0,0.0,0.0,0.0,0.0,0.0,0.0,0.0,0.0,0.0,-1.4088,-1.4088,-1.4088,-1.4088,-1.4088,-1.4088,-1.4088,-1.4088,-1.4088,-1.4088,-1.4088,-1.4088,-1.4088,-1.4088,-1.4088,-1.4088,-1.4088,-1.4088,-1.4088,-1.4088,-1.4088,-1.4088,-1.4088,-1.4262,-1.4489,-1.4242,-1.4496,-1.4923,-1.4649,-1.4736,-1.4963,-1.4894,-1.5079,-1.5299,-1.5233,-1.4571,-1.3511,-1.2145,-1.0974,-0.9801,-0.8432,-0.8137,-0.8137,-0.8041,-0.8038,-0.8038,-0.8038,-0.8038,-0.8038,-0.8038,-0.8038,-0.8038,-0.8038,-0.8038,-0.8035,-0.8024,-0.7902,-0.7804,-0.7784,-0.7665,-0.758,-0.7567,-0.7441,-0.7295,-0.7153,-0.7139,-0.7139,-0.7139,-0.7139,-0.7139,-0.7139,-0.7139,-0.7139,-0.7139,-0.7139,-0.7139,-0.7139,-0.7139,-0.7139,-0.7139,-0.7139,-0.7139,-0.7112,-0.7371,-0.7648,0.0,0.0,0.0,0.0,0.0,0.0,0.0,0.0,0.0,0.0,0.0,0.0,0.0,0.0,0.0,0.0,0.0,0.0,0.0,0.0,0.0,0.0,0.0,0.0,0.0,0.0,0.0,0.0,-1.4088,-1.4088,-1.4088,-1.4088,-1.4088,-1.4088,-1.4088,-1.4088,-1.4088,-1.4088,-1.4088,-1.4088,-1.4088,-1.4088,-1.4088,-1.4088,-1.4088,-1.4088,-1.4088,-1.4088,-1.4108,-1.4282,-1.4315,-1.4282,-1.4543,-1.4656,-1.4669,-1.4563,-1.4596,-1.4595,-1.3964,-1.3398,-1.2966,-1.2487,-1.1475,-1.0342,-0.9992,-0.9251,-0.8499,-0.8113,-0.8038,-0.8038,-0.8038,-0.8038,-0.8038,-0.8038,-0.8038,-0.8038,-0.8038,-0.8038,-0.8038,-0.8038,-0.8038,-0.8038,-0.8038,-0.7991,-0.7919,-0.7824,-0.7763,-0.7695,-0.7607,-0.7461,-0.7309,-0.7153,-0.7139,-0.7139,-0.7139,-0.7139,-0.7139,-0.7139,-0.7139,-0.7139,-0.7139,-0.7139,-0.7139,-0.7139,-0.7139,-0.7139,-0.7139,-0.7139,-0.7139,-0.6763,-0.7118,-0.7531,0.0,0.0,0.0,0.0,0.0,0.0,0.0,0.0,0.0,0.0,0.0,0.0,0.0,0.0,0.0,0.0,0.0,0.0,0.0,0.0,0.0,0.0,0.0,0.0,0.0,0.0,0.0,0.0,-1.3808,-1.3808,-1.3808,-1.3808,-1.3808,-1.3808,-1.3808,-1.3854,-1.3948,-1.3948,-1.3995,-1.4088,-1.4088,-1.4088,-1.4088,-1.4088,-1.4088,-1.4088,-1.4088,-1.4088,-1.4108,-1.4309,-1.4315,-1.4262,-1.4569,-1.4616,-1.4502,-1.4416,-1.4382,-1.421,-1.3231,-1.2493,-1.1965,-1.1146,-1.014,-0.9291,-0.9045,-0.8638,-0.8218,-0.8038,-0.8004,-0.8038,-0.8038,-0.8038,-0.8038,-0.8038,-0.8038,-0.8038,-0.8038,-0.8038,-0.8038,-0.8038,-0.8038,-0.8038,-0.8038,-0.8038,-0.8001,-0.7896,-0.7882,-0.7811,-0.7621,-0.7506,-0.7363,-0.7156,-0.7139,-0.7139,-0.7139,-0.7139,-0.7139,-0.7139,-0.7139,-0.7139,-0.7139,-0.7139,-0.7139,-0.7139,-0.7139,-0.7139,-0.7139,-0.7139,-0.7139,-0.6692,-0.6949,0.0,0.0,0.0,0.0,0.0,0.0,0.0,0.0,0.0,0.0,0.0,0.0,0.0,0.0,0.0,0.0,0.0,0.0,0.0,0.0,0.0,0.0,0.0,0.0,0.0,0.0,0.0,0.0,0.0,-1.3213,-1.3213,-1.3213,-1.3213,-1.3213,-1.3213,-1.3213,-1.3353,-1.3641,-1.3641,-1.3794,-1.4088,-1.4088,-1.4088,-1.4088,-1.4088,-1.4088,-1.4088,-1.4088,-1.4088,-1.4088,-1.4088,-1.4262,-1.4482,-1.4195,-1.4275,-1.4476,-1.4188,-1.4088,-1.3919,-1.2966,-1.288,-1.2915,-1.2032,-1.1658,-1.1288,-1.0181,-0.9665,-0.914,-0.8097,-0.7923,-0.8035,-0.8038,-0.8038,-0.8038,-0.8038,-0.8038,-0.8038,-0.8038,-0.8038,-0.8038,-0.8038,-0.8038,-0.8038,-0.8038,-0.8038,-0.8038,-0.8038,-0.8038,-0.7926,-0.7631,-0.76,-0.7475,-0.7166,-0.7139,-0.7139,-0.7139,-0.7139,-0.7139,-0.7139,-0.7139,-0.7139,-0.7139,-0.7139,-0.7139,-0.7139,-0.7139,-0.7139,-0.7139,-0.7139,-0.7139,-0.6403,0.0,0.0,0.0,0.0,0.0,0.0,0.0,0.0,0.0,0.0,0.0,0.0,0.0,0.0,0.0,0.0,0.0,0.0,0.0,0.0,0.0,0.0,0.0,0.0,0.0,0.0,0.0,0.0,0.0,0.0,-1.3213,-1.3213,-1.3213,-1.3213,-1.3213,-1.3213,-1.3213,-1.3253,-1.334,-1.334,-1.3601,-1.4088,-1.4088,-1.4088,-1.4088,-1.4088,-1.4088,-1.4088,-1.4088,-1.4088,-1.4088,-1.4088,-1.4142,-1.4229,-1.4349,-1.4002,-1.353,-1.3449,-1.2982,-1.2429,-1.1899,-1.1283,-1.0819,-1.0557,-0.9897,-0.9178,-0.8952,-0.8662,-0.8362,-0.8008,-0.7882,-0.7969,-0.7991,-0.8038,-0.8038,-0.8038,-0.8038,-0.8038,-0.8038,-0.8038,-0.8038,-0.8038,-0.8038,-0.8038,-0.8038,-0.8038,-0.8038,-0.8038,-0.8038,-0.7926,-0.7631,-0.76,-0.7475,-0.7166,-0.7139,-0.7139,-0.7139,-0.7139,-0.7139,-0.7139,-0.7139,-0.7139,-0.7139,-0.7139,-0.7139,-0.7139,-0.7139,-0.7139,-0.7139,-0.7139,-0.7139,0.0,0.0,0.0,0.0,0.0,0.0,0.0,0.0,0.0,0.0,0.0,0.0,0.0,0.0,0.0,0.0,0.0,0.0,0.0,0.0,0.0,0.0,0.0,0.0,0.0,0.0,0.0,0.0,0.0,0.0,0.0,-1.2852,-1.2852,-1.2852,-1.2852,-1.2852,-1.2852,-1.2852,-1.2913,-1.3026,-1.3026,-1.3273,-1.3741,-1.3741,-1.3801,-1.3915,-1.4035,-1.4088,-1.4088,-1.4088,-1.4088,-1.4088,-1.3659,-1.3568,-1.3502,-1.3318,-1.2853,-1.2412,-1.2412,-1.2063,-1.1515,-1.0937,-1.0376,-0.9859,-0.9515,-0.8815,-0.822,-0.8329,-0.8136,-0.7938,-0.7848,-0.7826,-0.783,-0.7821,-0.7865,-0.7865,-0.7865,-0.7865,-0.7865,-0.7865,-0.7909,-0.7946,-0.7946,-0.7997,-0.8038,-0.8038,-0.7987,-0.7929,-0.7872,-0.7865,-0.7773,-0.7536,-0.7509,-0.7411,-0.716,-0.7139,-0.7139,-0.7139,-0.7139,-0.7139,-0.7139,-0.7139,-0.7139,-0.7139,-0.7139,-0.7139,-0.7139,-0.7139,-0.7139,-0.7139,-0.7139,-0.7139,0.0,0.0,0.0,0.0,0.0,0.0,0.0,0.0,0.0,0.0,0.0,0.0,0.0,0.0,0.0,0.0,0.0,0.0,0.0,0.0,0.0,0.0,0.0,0.0,0.0,0.0,0.0,0.0,0.0,0.0,0.0,-1.2305,-1.2305,-1.2305,-1.2305,-1.2305,-1.2305,-1.2305,-1.2438,-1.2782,-1.2782,-1.2852,-1.3133,-1.3186,-1.3353,-1.3539,-1.3915,-1.4048,-1.4048,-1.399,-1.4004,-1.3913,-1.296,-1.2534,-1.2448,-1.1585,-1.1241,-1.1154,-1.1154,-1.1149,-1.0895,-1.0033,-0.9772,-0.9602,-0.8828,-0.8472,-0.8201,-0.8201,-0.8042,-0.7706,-0.7706,-0.7636,-0.756,-0.7556,-0.758,-0.76,-0.76,-0.76,-0.76,-0.76,-0.7702,-0.779,-0.779,-0.7909,-0.7997,-0.7997,-0.7882,-0.7746,-0.7614,-0.76,-0.7543,-0.7387,-0.737,-0.7309,-0.7153,-0.7139,-0.7139,-0.7139,-0.7139,-0.7139,-0.7139,-0.7139,-0.7139,-0.7139,-0.7139,-0.7139,-0.7139,-0.7139,-0.7139,-0.7139,-0.7139,-0.7139,0.0,0.0,0.0,0.0,0.0,0.0,0.0,0.0,0.0,0.0,0.0,0.0,0.0,0.0,0.0,0.0,0.0,0.0,0.0,0.0,0.0,0.0,0.0,0.0,0.0,0.0,0.0,0.0,0.0,0.0,-1.2305,-1.2305,-1.2305,-1.2305,-1.2305,-1.2305,-1.2305,-1.2305,-1.2338,0.0,-1.2398,-1.2432,-1.2512,-1.2993,-1.324,-1.332,-1.3614,-1.3741,-1.3672,-1.3218,-1.296,-1.2875,-1.1929,-1.158,-1.1585,-1.1413,-1.0804,-1.0202,-1.0202,-0.9777,-0.9174,-0.8915,-0.8911,-0.8823,-0.8652,-0.8564,-0.8476,-0.8476,-0.832,-0.8078,-0.7904,-0.7667,-0.7427,-0.7241,-0.7424,-0.76,-0.76,-0.76,-0.76,-0.76,-0.7624,-0.7645,-0.7645,-0.7672,-0.7695,-0.7695,-0.7665,-0.7634,-0.7604,-0.76,-0.7543,-0.7387,-0.737,-0.7309,-0.7153,-0.7139,-0.7139,-0.7139,-0.7139,-0.7139,-0.7139,-0.7139,-0.7139,-0.7139,-0.7139,-0.7139,-0.7139,-0.7139,-0.7139,-0.7139,-0.7139,-0.7139,0.0,0.0,0.0,0.0,0.0,0.0,0.0,0.0,0.0,0.0,0.0,0.0,0.0,0.0,0.0,0.0,0.0,0.0,0.0,0.0,0.0,0.0,0.0,0.0,0.0,0.0,0.0,0.0,0.0,-1.2098,-1.2098,-1.2225,-1.2305,-1.2305,-1.2305,-1.2305,-1.2305,-1.2305,-1.2305,-1.2305,-1.2305,-1.2305,-1.2318,-1.2779,-1.2986,-1.3006,-1.3307,-1.327,-1.2985,-1.2631,-1.2336,-1.1929,-1.0982,-1.0636,-1.0549,-1.012,-0.9689,-0.9257,-0.9257,-0.8999,-0.8568,-0.8568,-0.8568,-0.8568,-0.8568,-0.8568,-0.8568,-0.8472,-0.8204,-0.8028,-0.7768,-0.7499,-0.7234,-0.7143,-0.7261,-0.738,-0.738,-0.738,-0.738,-0.738,-0.7438,-0.7492,-0.7492,-0.755,-0.7577,-0.7502,-0.7492,-0.7465,-0.739,-0.738,-0.735,-0.7268,-0.7261,-0.7227,-0.7146,-0.7139,-0.7139,-0.7139,-0.7139,-0.7139,-0.7139,-0.7139,-0.7139,-0.7139,-0.7139,-0.7139,-0.7139,-0.7139,-0.7139,-0.7139,-0.7139,-0.6874,0.0,0.0,0.0,0.0,0.0,0.0,0.0,0.0,0.0,0.0,0.0,0.0,0.0,0.0,0.0,0.0,0.0,0.0,0.0,0.0,0.0,0.0,0.0,0.0,0.0,0.0,0.0,0.0,0.0,-1.179,-1.179,-1.2017,-1.2171,-1.2225,-1.2225,-1.2251,-1.2305,-1.2305,-1.2305,-1.2305,-1.2305,-1.2305,-1.2311,-1.2559,-1.2741,-1.2761,-1.2993,-1.2862,-1.2343,-1.214,-1.1701,-1.1118,-1.0048,-0.9634,-0.9552,-0.8815,-0.8568,-0.8568,-0.8568,-0.8568,-0.8568,-0.8568,-0.8568,-0.8568,-0.8568,-0.8568,-0.8564,-0.8288,-0.8028,-0.7856,-0.7595,-0.7323,-0.7139,-0.7139,-0.7139,-0.7139,-0.7139,-0.7139,-0.7139,-0.7139,-0.7244,-0.7333,-0.7333,-0.7434,-0.7478,-0.735,-0.7333,-0.7285,-0.7156,-0.7139,-0.7139,-0.7139,-0.7139,-0.7139,-0.7139,-0.7139,-0.7139,-0.7139,-0.7139,-0.7139,-0.7139,-0.7139,-0.7139,-0.7139,-0.7139,-0.7139,-0.7139,-0.7139,-0.7139,-0.7139,-0.6962,-0.6428,0.0,0.0,0.0,0.0,0.0,0.0,0.0,0.0,0.0,0.0,0.0,0.0,0.0,0.0,0.0,0.0,0.0,0.0,0.0,0.0,0.0,0.0,0.0,0.0,0.0,0.0,0.0,0.0,-1.1463,-1.1483,-1.1483,-1.1523,-1.1663,-1.1917,-1.1924,-1.2044,-1.2298,-1.2305,-1.2305,-1.2305,-1.2305,-1.2305,-1.2305,-1.2345,-1.2365,-1.2378,-1.2679,-1.2826,-1.2647,-1.1375,-1.0757,-1.0561,-0.9101,-0.8495,-0.8516,-0.8595,-0.8568,-0.8568,-0.8568,-0.8568,-0.8568,-0.8568,-0.8568,-0.8568,-0.8568,-0.8568,-0.8564,-0.8288,-0.8028,-0.7856,-0.7595,-0.7323,-0.7139,-0.7139,-0.7139,-0.7139,-0.7139,-0.7139,-0.7139,-0.7139,-0.7156,-0.717,-0.717,-0.7187,-0.7193,-0.7173,-0.717,-0.7163,-0.7143,-0.7139,-0.7139,-0.7139,-0.7139,-0.7139,-0.7139,-0.7139,-0.7139,-0.7139,-0.7139,-0.7139,-0.7139,-0.7139,-0.7139,-0.7139,-0.7139,-0.7139,-0.7139,-0.7139,-0.7139,-0.7051,-0.6251,-0.5808,0.0,0.0,0.0,0.0,0.0,0.0,0.0,0.0,0.0,0.0,0.0,0.0,0.0,0.0,0.0,0.0,0.0,0.0,0.0,0.0,0.0,0.0,0.0,0.0,0.0,0.0,0.0,0.0,-1.1089,-1.1182,-1.1182,-1.1336,-1.1483,-1.1617,-1.1623,-1.1764,-1.2058,-1.2058,-1.2138,-1.2305,-1.2305,-1.2305,-1.2305,-1.2305,-1.2305,-1.2311,-1.2438,-1.2359,-1.1972,-1.1306,-1.08,-1.0369,-0.9252,-0.8866,-0.8891,-0.8553,-0.8479,-0.8568,-0.8568,-0.8568,-0.8568,-0.8568,-0.8568,-0.8568,-0.8568,-0.8476,-0.8292,-0.8116,-0.7852,-0.7591,-0.7323,-0.7231,-0.7139,-0.7139,-0.7139,-0.7139,-0.7139,-0.7139,-0.7139,-0.7139,-0.7139,-0.7139,-0.7139,-0.7139,-0.7139,-0.7139,-0.7139,-0.7139,-0.7139,-0.7139,-0.7139,-0.7139,-0.7139,-0.7139,-0.7139,-0.7139,-0.7139,-0.7139,-0.7139,-0.7139,-0.7139,-0.7139,-0.7139,-0.7139,-0.7139,-0.7139,-0.7139,-0.7139,-0.6874,-0.634,-0.5897,-0.5095,0.0,0.0,0.0,0.0,0.0,0.0,0.0,0.0,0.0,0.0,0.0,0.0,0.0,0.0,0.0,0.0,0.0,0.0,0.0,0.0,0.0,0.0,0.0,0.0,0.0,0.0,0.0,0.0,-1.0762,-1.0882,-1.0882,-1.1089,-1.1236,-1.1316,-1.1316,-1.1456,-1.1757,-1.183,-1.2011,-1.2305,-1.2305,-1.2305,-1.2305,-1.2305,-1.2157,-1.2003,-1.2224,-1.1896,-1.1318,-1.1083,-1.0573,-0.9871,-0.9138,-0.8932,-0.8989,-0.8455,-0.8337,-0.8491,-0.8442,-0.8487,-0.856,-0.8511,-0.8495,-0.8495,-0.8499,-0.8321,-0.8051,-0.7793,-0.7647,-0.7415,-0.7143,-0.7139,-0.7139,-0.7139,-0.7139,-0.7139,-0.7139,-0.7139,-0.7139,-0.7139,-0.7139,-0.7139,-0.7139,-0.7139,-0.7139,-0.7139,-0.7139,-0.7139,-0.7139,-0.7139,-0.7139,-0.7139,-0.7139,-0.7139,-0.7139,-0.7139,-0.7139,-0.7139,-0.7139,-0.7139,-0.7139,-0.7139,-0.7139,-0.7139,-0.7139,-0.7139,-0.7139,-0.6874,-0.634,-0.5719,-0.545,-0.4469,0.0,0.0,0.0,0.0,0.0,0.0,0.0,0.0,0.0,0.0,0.0,0.0,0.0,0.0,0.0,0.0,0.0,0.0,0.0,0.0,0.0,0.0,0.0,0.0,0.0,0.0,0.0,0.0,-1.0638,-1.0645,-1.0645,-1.0658,-1.0728,-1.1009,-1.1015,-1.1156,-1.1443,-1.173,-1.2011,-1.2305,-1.2305,-1.2305,-1.2305,-1.2305,-1.1855,-1.1186,-1.2003,-1.1868,-1.1055,-1.0293,-0.9473,-0.8751,-0.8094,-0.7856,-0.7889,-0.7967,-0.8146,-0.828,-0.8101,-0.8272,-0.8536,-0.8361,-0.8304,-0.8304,-0.8052,-0.7967,-0.7796,-0.745,-0.7389,-0.7415,-0.7143,-0.7139,-0.7139,-0.7139,-0.7139,-0.7139,-0.7139,-0.7139,-0.7139,-0.7139,-0.7139,-0.7139,-0.7139,-0.7139,-0.7139,-0.7139,-0.7139,-0.7139,-0.7139,-0.7139,-0.7139,-0.7139,-0.7139,-0.7139,-0.7139,-0.7139,-0.7139,-0.7139,-0.7139,-0.7139,-0.7139,-0.7139,-0.7139,-0.7139,-0.7139,-0.7139,-0.7139,-0.6163,-0.5719,-0.5719,-0.4825,-0.3846,0.0,0.0,0.0,0.0,0.0,0.0,0.0,0.0,0.0,0.0,0.0,0.0,0.0,0.0,0.0,0.0,0.0,0.0,0.0,0.0,0.0,0.0,0.0,0.0,0.0,0.0,0.0,0.0,0.0,-1.0624,-1.0624,-1.0624,-1.0672,-1.0715,-1.0715,-1.0855,-1.1142,-1.1436,-1.1637,-1.1737,-1.1737,-1.1837,-1.2024,-1.2024,-1.1687,-1.1111,-1.1409,-1.1105,-1.0276,-1.0045,-0.9744,-0.9382,-0.863,-0.8429,-0.8546,-0.8066,-0.7959,-0.8101,-0.8036,-0.8178,-0.8377,-0.8312,-0.8369,-0.8446,-0.8076,-0.7866,-0.7688,-0.735,-0.7225,-0.7118,-0.7119,-0.7139,-0.7139,-0.7139,-0.7139,-0.7139,-0.7139,-0.7139,-0.7139,-0.7139,-0.7139,-0.7139,-0.7139,-0.7139,-0.7173,-0.7275,-0.7204,-0.7177,-0.7275,-0.7204,-0.7139,-0.7139,-0.7139,-0.7139,-0.7139,-0.7139,-0.7139,-0.7139,-0.7139,-0.7139,-0.7139,-0.7139,-0.7139,-0.7139,-0.7139,-0.7139,-0.7139,-0.6786,-0.6254,-0.5719,-0.5361,-0.438,0.0,0.0,0.0,0.0,0.0,0.0,0.0,0.0,0.0,0.0,0.0,0.0,0.0,0.0,0.0,0.0,0.0,0.0,0.0,0.0,0.0,0.0,0.0,0.0,0.0,0.0,0.0,0.0,0.0,0.0,-1.0618,-1.0624,-1.0624,-1.0624,-1.0624,-1.0701,-1.0989,-1.1182,-1.1329,-1.1423,-1.1423,-1.153,-1.1724,-1.1724,-1.1449,-1.0979,-1.0677,-1.0129,-0.9523,-0.9523,-0.9367,-0.9064,-0.847,-0.8399,-0.8434,-0.7898,-0.7776,-0.7918,-0.7858,-0.8036,-0.828,-0.8219,-0.8239,-0.8281,-0.7986,-0.765,-0.7363,-0.725,-0.7015,-0.6963,-0.7102,-0.7139,-0.7139,-0.7139,-0.7139,-0.7139,-0.7139,-0.7139,-0.7139,-0.7139,-0.7139,-0.7139,-0.7139,-0.7139,-0.7177,-0.7278,-0.7207,-0.7177,-0.7282,-0.7204,-0.7139,-0.7139,-0.7139,-0.7139,-0.7139,-0.7139,-0.7139,-0.7139,-0.7139,-0.7139,-0.7139,-0.7139,-0.7139,-0.7139,-0.7139,-0.7139,-0.7139,-0.6786,-0.634,-0.5719,-0.5361,-0.4383,0.0,0.0,0.0,0.0,0.0,0.0,0.0,0.0,0.0,0.0,0.0,0.0,0.0,0.0,0.0,0.0,0.0,0.0,0.0,0.0,0.0,0.0,0.0,0.0,0.0,0.0,0.0,0.0,-1.01,-1.0234,-1.0584,-1.0604,-1.0618,-1.0624,-1.0624,-1.0695,-1.0982,-1.0982,-1.1122,-1.1403,-1.1403,-1.1403,-1.141,-1.141,-1.1153,-1.0635,-0.9835,-0.9163,-0.8618,-0.8699,-0.8169,-0.7484,-0.7484,-0.7484,-0.7484,-0.7484,-0.7598,-0.7728,-0.7545,-0.7833,-0.8247,-0.8065,-0.7967,-0.7866,-0.7684,-0.7315,-0.6982,-0.697,-0.6929,-0.6963,-0.7102,-0.7139,-0.7139,-0.7139,-0.7139,-0.7139,-0.7139,-0.7139,-0.7139,-0.7139,-0.7139,-0.7139,-0.7139,-0.7139,-0.7143,-0.7146,-0.7146,-0.7146,-0.7146,-0.7146,-0.7146,-0.7139,-0.7139,-0.7139,-0.7139,-0.7139,-0.7139,-0.7139,-0.7139,-0.7139,-0.7139,-0.7139,-0.7139,-0.7139,-0.7139,-0.7139,-0.7139,-0.6163,-0.5719,-0.5719,-0.4736,-0.3757,-0.5811,0.0,0.0,0.0,0.0,0.0,0.0,0.0,0.0,0.0,0.0,0.0,0.0,0.0,0.0,0.0,0.0,0.0,0.0,0.0,0.0,0.0,0.0,0.0,0.0,0.0,0.0,0.0,-0.98,-0.984,-0.992,-1.0127,-1.0341,-1.0618,-1.0624,-1.0665,-1.0681,-1.0681,-1.0722,-1.0795,-1.0795,-1.0909,-1.1109,-1.1109,-1.0585,-0.9591,-0.9547,-0.8783,-0.7605,-0.7736,-0.771,-0.7484,-0.7484,-0.7484,-0.7484,-0.7484,-0.7516,-0.7553,-0.75,-0.7667,-0.7898,-0.7845,-0.804,-0.8098,-0.7799,-0.756,-0.7374,-0.7254,-0.7011,-0.6963,-0.7102,-0.7139,-0.7139,-0.7139,-0.7139,-0.7139,-0.7139,-0.7139,-0.7139,-0.7139,-0.7139,-0.7139,-0.7139,-0.7139,-0.7177,-0.7292,-0.7309,-0.7309,-0.7309,-0.7309,-0.7265,-0.7153,-0.7139,-0.7139,-0.7139,-0.7139,-0.7139,-0.7139,-0.7139,-0.7139,-0.7139,-0.7139,-0.7139,-0.7139,-0.7139,-0.7139,-0.7139,-0.6874,-0.6697,-0.6697,-0.509,-0.3757,0.0,0.0,0.0,0.0,0.0,0.0,0.0,0.0,0.0,0.0,0.0,0.0,0.0,0.0,0.0,0.0,0.0,0.0,0.0,0.0,0.0,0.0,0.0,0.0,0.0,-0.9319,-0.9372,-0.9486,-0.9499,-0.9552,-0.9679,-0.984,-1.0013,-1.0248,-1.0194,-1.0254,-1.0374,-1.0374,-1.0441,-1.0624,-1.0624,-1.0514,-1.0341,-1.0341,-0.9898,-0.906,-0.8845,-0.837,-0.7668,-0.748,-0.7419,-0.7484,-0.7484,-0.7484,-0.7484,-0.7484,-0.7484,-0.7484,-0.7484,-0.7606,-0.784,-0.784,-0.7918,-0.8102,-0.7831,-0.7616,-0.745,-0.7433,-0.7191,-0.7037,-0.7119,-0.7139,-0.7139,-0.7139,-0.7139,-0.7139,-0.7139,-0.7139,-0.7139,-0.7139,-0.7139,-0.7139,-0.7139,-0.7139,-0.717,-0.7261,-0.7275,-0.7275,-0.7275,-0.7275,-0.7241,-0.7149,-0.7139,-0.7139,-0.7139,-0.7139,-0.7139,-0.7139,-0.7139,-0.7139,-0.7139,-0.7139,-0.7139,-0.7139,-0.7139,-0.6874,-0.6517,-0.6874,-0.6694,-0.5891,-0.4378,-0.3223,-0.6356,-0.6356,0.0,0.0,0.0,0.0,-0.6965,-0.6862,0.0,0.0,0.0,0.0,0.0,0.0,0.0,0.0,0.0,0.0,0.0,0.0,0.0,0.0,0.0,0.0,-0.8758,-0.8758,-0.8878,-0.9117,-0.9137,-0.9319,-0.9619,-0.9633,-0.9653,-0.9686,-0.9686,-0.9806,-1.0067,-1.01,-1.0186,-1.0445,-1.0478,-1.0104,-0.939,-0.939,-0.9125,-0.8735,-0.803,-0.7911,-0.817,-0.7495,-0.7326,-0.7484,-0.7484,-0.7484,-0.7484,-0.7484,-0.7484,-0.7484,-0.7484,-0.759,-0.7732,-0.7732,-0.7808,-0.792,-0.792,-0.7692,-0.7408,-0.7464,-0.7323,-0.7139,-0.7139,-0.7139,-0.7139,-0.7139,-0.7139,-0.7139,-0.7139,-0.7139,-0.7139,-0.7139,-0.7139,-0.7139,-0.7139,-0.7139,-0.7139,-0.7139,-0.7153,-0.716,-0.7143,-0.7153,-0.716,-0.7143,-0.7139,-0.7139,-0.7139,-0.7139,-0.7139,-0.7139,-0.7139,-0.7139,-0.7139,-0.7139,-0.7139,-0.7139,-0.6962,-0.6517,-0.5719,-0.6517,-0.5983,-0.4111,-0.3312,-0.2331,-0.6615,-0.6615,-0.6564,-0.6409,0.0,0.0,-0.6212,-0.6417,0.0,0.0,0.0,0.0,0.0,0.0,0.0,0.0,0.0,0.0,0.0,0.0,0.0,0.0,0.0,0.0,-0.8437,-0.8457,-0.8577,-0.8871,-0.8891,-0.9018,-0.9312,-0.9325,-0.9439,-0.9679,-0.9686,-0.9713,-0.9766,-1.0,-0.9836,-0.9395,-0.9611,-0.9326,-0.8683,-0.8683,-0.8387,-0.779,-0.7697,-0.7473,-0.7011,-0.7175,-0.7326,-0.7484,-0.7484,-0.7484,-0.7484,-0.7484,-0.7484,-0.7484,-0.7484,-0.7504,-0.7537,-0.7537,-0.7776,-0.7986,-0.7986,-0.7847,-0.7724,-0.7312,-0.7143,-0.7139,-0.7139,-0.7139,-0.7139,-0.7139,-0.7139,-0.7139,-0.7139,-0.7139,-0.7139,-0.7139,-0.7139,-0.7139,-0.7139,-0.7139,-0.7139,-0.7139,-0.7248,-0.7282,-0.7156,-0.7248,-0.7278,-0.7153,-0.7139,-0.7139,-0.7139,-0.7139,-0.7139,-0.7139,-0.7139,-0.7139,-0.7139,-0.7139,-0.7139,-0.7139,-0.6343,-0.5897,-0.5719,-0.5897,-0.5006,-0.3133,-0.2956,-0.2331,-0.6993,-0.695,-0.6906,-0.679,0.0,0.0,0.0,0.0,0.0,0.0,0.0,0.0,0.0,0.0,0.0,0.0,0.0,0.0,0.0,0.0,0.0,0.0,0.0,0.0,-0.8136,-0.815,-0.8277,-0.8571,-0.8591,-0.8717,-0.9011,-0.9025,-0.9092,-0.9239,-0.9245,-0.9319,-0.9459,-0.9606,-0.9577,-0.9417,-0.9697,-0.9256,-0.8254,-0.8436,-0.7907,-0.6942,-0.7043,-0.6937,-0.6692,-0.6883,-0.7114,-0.7362,-0.7447,-0.7484,-0.7484,-0.7484,-0.7484,-0.7484,-0.7484,-0.7484,-0.7484,-0.7484,-0.7667,-0.7902,-0.7827,-0.7762,-0.7591,-0.7231,-0.7139,-0.7139,-0.7139,-0.7139,-0.7139,-0.7139,-0.7139,-0.7139,-0.7139,-0.7139,-0.7139,-0.7139,-0.7139,-0.7139,-0.7139,-0.7139,-0.7139,-0.7139,-0.7207,-0.7227,-0.7149,-0.7207,-0.7224,-0.7149,-0.7139,-0.7139,-0.7139,-0.7139,-0.7139,-0.7139,-0.7139,-0.7139,-0.7139,-0.7139,-0.6874,-0.6428,-0.5897,-0.5275,-0.4293,-0.4293,-0.3848,-0.2867,-0.2419,-0.1883,0.0,0.0,0.0,0.0,0.0,-0.6906,0.0,0.0,0.0,0.0,0.0,0.0,0.0,0.0,0.0,0.0,0.0,0.0,0.0,0.0,0.0,0.0,0.0,0.0,0.0,-0.7842,-0.7969,-0.827,-0.823,-0.833,-0.8624,-0.8691,-0.8724,-0.8724,-0.8778,-0.8918,-0.9097,-0.9157,-0.9246,-0.9426,-0.9768,-0.9248,-0.8016,-0.8191,-0.7712,-0.6613,-0.6482,-0.6497,-0.6631,-0.6676,-0.6867,-0.7147,-0.7354,-0.7452,-0.7484,-0.7484,-0.7484,-0.7484,-0.7484,-0.7484,-0.7484,-0.7484,-0.763,-0.7765,-0.769,-0.7536,-0.7415,-0.7143,-0.7139,-0.7139,-0.7139,-0.7139,-0.7139,-0.7139,-0.7139,-0.7139,-0.7139,-0.7139,-0.7139,-0.7139,-0.7139,-0.7139,-0.7139,-0.7139,-0.7139,-0.7139,-0.7139,-0.7139,-0.7139,-0.7139,-0.7139,-0.7139,-0.7139,-0.7139,-0.7139,-0.7139,-0.7139,-0.7139,-0.7139,-0.7139,-0.7139,-0.6962,-0.6428,-0.5719,-0.5364,-0.4383,-0.2867,-0.2688,-0.2598,-0.2598,-0.1793,-0.1436,0.0,0.0,0.0,0.0,-0.7631,0.0,0.0,0.0,0.0,0.0,0.0,0.0,0.0,0.0,0.0,0.0,0.0,0.0,0.0,0.0,0.0,0.0,0.0,0.0,0.0,-0.7567,-0.7649,-0.7956,-0.7722,-0.7702,-0.7968,-0.8283,-0.8424,-0.8424,-0.8671,-0.8824,-0.8858,-0.9057,-0.8918,-0.8389,-0.895,-0.8813,-0.8016,-0.7742,-0.7521,-0.7326,-0.6679,-0.6428,-0.6461,-0.6627,-0.6721,-0.679,-0.7123,-0.7346,-0.7484,-0.7484,-0.7484,-0.7484,-0.7484,-0.7484,-0.7484,-0.7484,-0.7632,-0.7694,-0.7447,-0.7451,-0.7415,-0.7143,-0.7139,-0.7139,-0.7139,-0.7139,-0.7139,-0.7139,-0.7139,-0.7139,-0.7139,-0.7139,-0.7139,-0.7139,-0.7139,-0.7139,-0.7139,-0.7139,-0.7139,-0.7139,-0.7139,-0.7139,-0.7139,-0.7139,-0.7139,-0.7139,-0.7139,-0.7139,-0.7139,-0.7139,-0.7139,-0.7139,-0.7139,-0.7139,-0.7139,-0.634,-0.5808,-0.5719,-0.4026,-0.3135,-0.2867,-0.1973,-0.1614,-0.1524,-0.1436,-0.1436,0.0,0.0,0.0,0.0,0.0,0.0,-0.6334,0.0,-0.6161,0.0,0.0,0.0,0.0,0.0,0.0,0.0,0.0,0.0,0.0,0.0,0.0,0.0,0.0,0.0,0.0,0.0,0.0,0.0,-0.7381,-0.7422,-0.7855,-0.8049,-0.8196,-0.837,-0.849,-0.8637,-0.8804,-0.8925,-0.8823,-0.8553,-0.8657,-0.8387,-0.7759,-0.7486,-0.715,-0.6872,-0.6548,-0.642,-0.6424,-0.6501,-0.6599,-0.6721,-0.6968,-0.7175,-0.7346,-0.7447,-0.7484,-0.7484,-0.7484,-0.7484,-0.7484,-0.7334,-0.7414,-0.7458,-0.7192,-0.7214,-0.7234,-0.7143,-0.7139,-0.7139,-0.7139,-0.7139,-0.7139,-0.7139,-0.7139,-0.7139,-0.7139,-0.7139,-0.7139,-0.7139,-0.7139,-0.7139,-0.7139,-0.7139,-0.7139,-0.7139,-0.7139,-0.7139,-0.7139,-0.7139,-0.7139,-0.7139,-0.7139,-0.7139,-0.7139,-0.7139,-0.7139,-0.7139,-0.7139,-0.7139,-0.7139,-0.6163,-0.545,-0.4914,-0.358,-0.2598,-0.2062,-0.1614,-0.1436,-0.1436,-0.1436,-0.1436,-0.8751,0.0,0.0,0.0,0.0,0.0,0.0,0.0,0.0,0.0,0.0,0.0,0.0,0.0,0.0,0.0,0.0,0.0,0.0,0.0,0.0,0.0,0.0,0.0,0.0,0.0,0.0,0.0,0.0,-0.7047,-0.7603,-0.7756,-0.7903,-0.8172,-0.834,-0.842,-0.8469,-0.8495,-0.848,-0.8328,-0.8202,-0.7972,-0.7581,-0.7323,-0.6967,-0.6603,-0.6461,-0.642,-0.642,-0.642,-0.6497,-0.6635,-0.681,-0.6989,-0.7179,-0.7403,-0.7484,-0.7484,-0.7484,-0.7484,-0.7484,-0.7257,-0.7224,-0.7222,-0.7012,-0.7045,-0.7092,-0.7129,-0.7139,-0.7139,-0.7139,-0.7139,-0.7139,-0.7139,-0.7139,-0.7139,-0.7139,-0.7139,-0.7139,-0.7139,-0.7139,-0.7139,-0.7139,-0.7139,-0.7139,-0.7139,-0.7139,-0.7139,-0.7139,-0.7139,-0.7139,-0.7139,-0.7139,-0.7139,-0.7139,-0.7139,-0.7139,-0.7139,-0.7139,-0.7139,-0.7139,-0.5983,-0.5003,-0.4289,-0.3133,-0.2152,-0.1436,-0.1436,-0.1436,-0.1436,-0.1436,-0.1436,0.0,0.0,0.0,-0.7565,0.0,0.0,0.0,0.0,-0.6593,0.0,0.0,0.0,0.0,0.0,0.0,0.0,0.0,0.0,0.0,0.0,0.0,0.0,0.0,0.0,0.0,0.0,0.0,0.0,-0.6384,0.0,-0.7021,-0.7328,-0.7527,-0.754,-0.8111,-0.8112,-0.755,-0.7798,-0.7664,-0.7139,-0.7433,-0.7491,-0.7513,-0.7315,-0.7202,-0.7158,-0.6599,-0.642,-0.642,-0.642,-0.6424,-0.6444,-0.6619,-0.6798,-0.7077,-0.7354,-0.7484,-0.7484,-0.7484,-0.7484,-0.7484,-0.7257,-0.7144,-0.7071,-0.7058,-0.6975,-0.6963,-0.7102,-0.7139,-0.7139,-0.7139,-0.7139,-0.7139,-0.7139,-0.7139,-0.7139,-0.7139,-0.7139,-0.7139,-0.7139,-0.7139,-0.7139,-0.7139,-0.7139,-0.7139,-0.7139,-0.7139,-0.7139,-0.7139,-0.7139,-0.7139,-0.7139,-0.7139,-0.7139,-0.7139,-0.7139,-0.7139,-0.7139,-0.7139,-0.7139,-0.7139,-0.5356,-0.4289,-0.4289,-0.2418,-0.1436,-0.1436,-0.1436,-0.1436,-0.1436,-0.1436,-0.1436,0.0,0.0,-0.8919,-0.7821,0.0,0.0,0.0,0.0,0.0,0.0,0.0,0.0,0.0,0.0,0.0,0.0,0.0,0.0,0.0,0.0,0.0,0.0,0.0,0.0,0.0,0.0,0.0,0.0,-0.6357,0.0,-0.6987,-0.7121,-0.7261,-0.7506,-0.7715,-0.7717,-0.7482,-0.7572,-0.7442,-0.7085,-0.6778,-0.6723,-0.6815,-0.6375,-0.628,-0.6522,-0.6336,-0.6306,-0.642,-0.642,-0.642,-0.6436,-0.6619,-0.6729,-0.6826,-0.7183,-0.7382,-0.7484,-0.7484,-0.7484,-0.7484,-0.7257,-0.7141,-0.7064,-0.7058,-0.6899,-0.6827,-0.7071,-0.7071,-0.7021,-0.7115,-0.7139,-0.7139,-0.7139,-0.7139,-0.7139,-0.7139,-0.7139,-0.7139,-0.7139,-0.7139,-0.7139,-0.7139,-0.7139,-0.7139,-0.7139,-0.7139,-0.7139,-0.7139,-0.7139,-0.7139,-0.7139,-0.7139,-0.7139,-0.7139,-0.7139,-0.7139,-0.7139,-0.6517,-0.6163,-0.6163,-0.438,-0.3401,-0.3401,-0.2061,-0.1436,-0.1436,-0.1436,-0.1436,-0.1436,-0.1436,-0.1436,-0.8341,-0.8582,0.0,-0.7756,-0.7631,0.0,-0.6629,0.0,-0.6957,0.0,0.0,0.0,0.0,0.0,0.0,0.0,0.0,0.0,0.0,0.0,0.0,0.0,0.0,0.0,0.0,0.0,-0.5685,-0.6424,-0.6048,0.0,0.0,0.0,-0.6631,-0.6856,-0.6956,-0.6941,-0.6784,-0.6878,-0.679,-0.6436,-0.6055,-0.5958,-0.6088,-0.5755,-0.5774,-0.6121,-0.6182,-0.625,-0.642,-0.642,-0.642,-0.6432,-0.655,-0.6639,-0.6737,-0.7094,-0.7334,-0.7484,-0.7484,-0.7484,-0.7407,-0.7261,-0.7099,-0.69,-0.6898,-0.6781,-0.6681,-0.698,-0.7,-0.6963,-0.7102,-0.7139,-0.7139,-0.7139,-0.7139,-0.7139,-0.7139,-0.7139,-0.7139,-0.7139,-0.7139,-0.7139,-0.7139,-0.7139,-0.7139,-0.7139,-0.7139,-0.7139,-0.7139,-0.7139,-0.7139,-0.7139,-0.7139,-0.7139,-0.7139,-0.7139,-0.7139,-0.7139,-0.6251,-0.5719,-0.5719,-0.3937,-0.2867,-0.2867,-0.1883,-0.1436,-0.1436,-0.1436,-0.1436,-0.1436,-0.1436,-0.1436]},{"header":{"parameterUnit":"m.s-1","parameterCategory":1,"la1":30.6,"la2":29.2853,"lo1":-89.7004,"lo2":-87.6739,"dy":0.0162,"dx":0.0183,"nx":112,"ny":82,"refTime":"2026-03-19T12:00:00:Z","depth":0,"parameterNumber":3,"parameterNumberName":"V-component_of_WINDS"},"data":[0.0,0.0,0.0,0.0,0.0,0.0,0.0,0.0,0.0,0.0,0.0,0.0,0.0,0.0,0.0,0.0,0.0,0.0,0.0,0.0,0.0,0.0,0.0,0.0,0.0,0.0,0.0,0.0,0.0,0.0,0.0,0.0,0.0,0.0,0.0,0.0,0.0,0.0,0.0,0.0,0.0,0.0,0.0,0.0,0.0,0.0,0.0,0.0,0.0,0.0,0.0,0.0,0.0,0.0,0.0,0.0,0.0,0.0,0.0,0.0,0.0,0.0,0.0,0.0,0.0,0.0,0.0,0.0,0.0,0.0,0.0,0.0,0.0,0.0,0.0,0.0,0.0,0.0,0.0,0.0,0.0,0.0,0.0,0.0,0.0,0.0,0.0,0.0,0.0,0.0,0.0,-2.0759,-2.2868,-2.419,-2.419,-2.408,-2.3382,-2.1894,0.0,0.0,0.0,0.0,0.0,0.0,0.0,0.0,0.0,0.0,0.0,0.0,0.0,0.0,0.0,0.0,0.0,0.0,0.0,0.0,0.0,0.0,0.0,0.0,0.0,0.0,0.0,0.0,0.0,0.0,0.0,0.0,0.0,0.0,0.0,0.0,0.0,0.0,0.0,0.0,0.0,0.0,0.0,0.0,0.0,0.0,0.0,0.0,0.0,0.0,0.0,0.0,0.0,0.0,0.0,0.0,0.0,0.0,0.0,0.0,0.0,0.0,0.0,0.0,0.0,0.0,0.0,0.0,0.0,0.0,0.0,0.0,0.0,0.0,0.0,0.0,0.0,0.0,0.0,0.0,0.0,0.0,0.0,0.0,0.0,0.0,0.0,0.0,0.0,0.0,0.0,0.0,0.0,0.0,0.0,0.0,0.0,0.0,0.0,0.0,0.0,0.0,0.0,0.0,-1.9399,-2.23,-2.3566,-2.419,-2.419,-2.3566,-2.2795,-2.1858,0.0,0.0,0.0,0.0,0.0,0.0,0.0,0.0,0.0,0.0,0.0,0.0,0.0,0.0,0.0,0.0,0.0,0.0,0.0,0.0,0.0,0.0,0.0,0.0,0.0,0.0,0.0,0.0,0.0,0.0,0.0,0.0,0.0,0.0,0.0,0.0,0.0,0.0,0.0,0.0,0.0,0.0,0.0,0.0,0.0,0.0,0.0,0.0,0.0,0.0,0.0,0.0,0.0,0.0,0.0,0.0,0.0,0.0,0.0,0.0,0.0,0.0,0.0,0.0,0.0,0.0,0.0,0.0,0.0,0.0,0.0,0.0,0.0,0.0,0.0,0.0,0.0,0.0,0.0,0.0,0.0,0.0,0.0,0.0,0.0,0.0,0.0,0.0,0.0,0.0,0.0,0.0,0.0,0.0,0.0,0.0,0.0,0.0,0.0,0.0,0.0,0.0,0.0,-1.9327,-2.0612,-2.3452,-2.4026,-2.419,-2.419,-2.3859,-2.3125,-2.1894,-2.0574,0.0,0.0,0.0,0.0,0.0,0.0,0.0,0.0,0.0,0.0,0.0,0.0,0.0,0.0,0.0,0.0,0.0,0.0,0.0,0.0,0.0,0.0,0.0,0.0,0.0,0.0,0.0,0.0,0.0,0.0,0.0,0.0,0.0,0.0,0.0,0.0,0.0,0.0,0.0,0.0,0.0,0.0,0.0,0.0,0.0,0.0,0.0,0.0,0.0,0.0,0.0,0.0,0.0,0.0,0.0,0.0,0.0,0.0,0.0,0.0,0.0,0.0,0.0,0.0,0.0,0.0,0.0,0.0,0.0,0.0,0.0,0.0,0.0,0.0,0.0,0.0,0.0,0.0,0.0,0.0,0.0,0.0,0.0,0.0,0.0,0.0,0.0,0.0,0.0,0.0,0.0,0.0,0.0,0.0,0.0,0.0,0.0,0.0,0.0,0.0,0.0,0.0,-2.0848,-2.1872,-2.4148,-2.4284,-2.419,-2.419,-2.4025,-2.3309,-2.1894,-2.0042,0.0,0.0,0.0,0.0,0.0,0.0,0.0,0.0,0.0,0.0,0.0,0.0,0.0,0.0,0.0,0.0,0.0,0.0,0.0,0.0,0.0,0.0,0.0,0.0,0.0,0.0,0.0,0.0,0.0,0.0,0.0,0.0,0.0,0.0,0.0,0.0,0.0,0.0,0.0,0.0,0.0,0.0,0.0,0.0,0.0,0.0,0.0,0.0,0.0,0.0,0.0,0.0,0.0,0.0,0.0,0.0,0.0,0.0,0.0,0.0,0.0,0.0,0.0,0.0,0.0,0.0,0.0,0.0,0.0,0.0,0.0,0.0,0.0,0.0,0.0,0.0,0.0,0.0,0.0,0.0,0.0,0.0,0.0,0.0,0.0,0.0,0.0,0.0,0.0,0.0,0.0,0.0,0.0,0.0,0.0,0.0,0.0,0.0,0.0,0.0,0.0,0.0,-2.1026,-2.2553,-2.4222,-2.4284,-2.419,-2.419,-2.3511,-2.2721,-2.1858,-1.9528,0.0,0.0,0.0,0.0,0.0,0.0,0.0,0.0,0.0,0.0,0.0,0.0,0.0,0.0,0.0,0.0,0.0,0.0,0.0,0.0,0.0,0.0,0.0,0.0,0.0,0.0,0.0,0.0,0.0,0.0,0.0,0.0,0.0,0.0,0.0,0.0,0.0,0.0,0.0,0.0,0.0,0.0,0.0,0.0,0.0,0.0,0.0,0.0,0.0,0.0,0.0,0.0,0.0,0.0,0.0,0.0,0.0,0.0,0.0,0.0,0.0,0.0,0.0,0.0,0.0,0.0,0.0,0.0,0.0,0.0,0.0,0.0,0.0,0.0,0.0,0.0,0.0,0.0,0.0,0.0,0.0,0.0,0.0,0.0,0.0,0.0,0.0,0.0,0.0,0.0,0.0,0.0,0.0,0.0,0.0,0.0,0.0,0.0,0.0,0.0,0.0,0.0,-2.1161,-2.2253,0.0,-2.4444,-2.4303,-2.4209,-2.3914,-2.318,-2.1894,0.0,0.0,0.0,0.0,0.0,0.0,0.0,0.0,0.0,0.0,0.0,0.0,0.0,0.0,0.0,0.0,0.0,0.0,0.0,0.0,0.0,0.0,0.0,0.0,0.0,0.0,0.0,0.0,0.0,0.0,0.0,0.0,0.0,0.0,0.0,0.0,0.0,0.0,0.0,0.0,0.0,0.0,0.0,0.0,0.0,0.0,0.0,0.0,0.0,0.0,0.0,0.0,0.0,0.0,0.0,0.0,0.0,0.0,0.0,0.0,0.0,0.0,0.0,0.0,0.0,0.0,0.0,0.0,0.0,0.0,0.0,0.0,0.0,0.0,0.0,0.0,0.0,0.0,0.0,0.0,0.0,0.0,0.0,0.0,0.0,0.0,0.0,0.0,0.0,0.0,0.0,0.0,0.0,0.0,0.0,0.0,0.0,0.0,0.0,0.0,0.0,0.0,-2.0614,-2.1282,-2.2243,0.0,-2.4198,-2.4018,-2.3897,-2.3382,-2.2591,-2.1455,0.0,0.0,0.0,0.0,0.0,0.0,0.0,0.0,0.0,0.0,0.0,0.0,0.0,0.0,0.0,0.0,0.0,0.0,0.0,0.0,0.0,0.0,0.0,0.0,0.0,0.0,0.0,0.0,0.0,0.0,0.0,0.0,0.0,0.0,0.0,0.0,0.0,0.0,0.0,0.0,0.0,0.0,0.0,0.0,0.0,0.0,0.0,0.0,0.0,0.0,0.0,0.0,0.0,0.0,0.0,0.0,0.0,0.0,0.0,0.0,0.0,0.0,0.0,0.0,0.0,0.0,0.0,0.0,0.0,0.0,0.0,0.0,0.0,0.0,0.0,0.0,0.0,0.0,0.0,0.0,0.0,0.0,0.0,0.0,0.0,0.0,0.0,0.0,0.0,0.0,0.0,0.0,0.0,0.0,0.0,0.0,0.0,0.0,0.0,0.0,0.0,0.0,-1.9888,-2.1453,-2.2729,-2.3594,-2.3517,-2.3341,-2.3205,-2.1665,-2.0659,0.0,0.0,0.0,0.0,0.0,0.0,0.0,0.0,0.0,0.0,0.0,0.0,0.0,0.0,0.0,0.0,0.0,0.0,0.0,0.0,0.0,0.0,0.0,0.0,0.0,0.0,0.0,0.0,0.0,0.0,0.0,0.0,0.0,0.0,0.0,0.0,0.0,0.0,0.0,0.0,0.0,0.0,0.0,0.0,0.0,0.0,0.0,0.0,0.0,0.0,0.0,0.0,0.0,0.0,0.0,0.0,0.0,0.0,0.0,0.0,0.0,0.0,0.0,0.0,0.0,0.0,0.0,0.0,0.0,0.0,0.0,0.0,0.0,0.0,0.0,0.0,0.0,0.0,0.0,0.0,0.0,0.0,0.0,0.0,0.0,0.0,0.0,0.0,0.0,0.0,0.0,0.0,0.0,0.0,0.0,0.0,0.0,0.0,0.0,0.0,0.0,0.0,0.0,-1.9955,-2.1538,-2.2597,-2.2767,-2.2655,-2.2724,-2.3167,-2.2142,-2.1226,-2.0686,0.0,0.0,0.0,0.0,0.0,0.0,0.0,0.0,0.0,0.0,0.0,0.0,0.0,0.0,0.0,0.0,0.0,0.0,0.0,0.0,0.0,0.0,0.0,0.0,0.0,0.0,0.0,0.0,0.0,0.0,0.0,0.0,0.0,0.0,0.0,0.0,0.0,0.0,0.0,0.0,0.0,0.0,0.0,0.0,0.0,0.0,0.0,0.0,0.0,0.0,0.0,0.0,0.0,0.0,0.0,0.0,0.0,0.0,0.0,0.0,0.0,0.0,0.0,0.0,0.0,0.0,0.0,0.0,0.0,0.0,0.0,0.0,0.0,0.0,0.0,0.0,0.0,0.0,0.0,0.0,0.0,0.0,0.0,0.0,0.0,0.0,0.0,0.0,0.0,0.0,0.0,0.0,0.0,0.0,0.0,0.0,0.0,0.0,0.0,0.0,0.0,0.0,-1.9993,-2.1875,-2.295,-2.2528,-2.2722,-2.3016,-2.3371,-2.2566,-2.1682,-2.0863,0.0,0.0,0.0,0.0,0.0,0.0,0.0,0.0,0.0,0.0,0.0,0.0,0.0,0.0,0.0,0.0,0.0,0.0,0.0,0.0,0.0,0.0,0.0,0.0,0.0,0.0,0.0,0.0,0.0,0.0,0.0,0.0,0.0,0.0,0.0,0.0,0.0,0.0,0.0,0.0,0.0,0.0,0.0,0.0,0.0,0.0,0.0,0.0,0.0,0.0,0.0,0.0,0.0,0.0,0.0,0.0,0.0,0.0,0.0,0.0,0.0,0.0,0.0,0.0,0.0,0.0,0.0,0.0,0.0,0.0,0.0,0.0,0.0,0.0,0.0,0.0,0.0,0.0,0.0,0.0,0.0,0.0,0.0,0.0,0.0,0.0,0.0,0.0,0.0,0.0,0.0,0.0,0.0,0.0,0.0,0.0,0.0,0.0,0.0,0.0,0.0,0.0,-2.0012,-2.2333,-2.3575,-2.2696,-2.3297,-2.3747,-2.3702,-2.288,-2.1991,-2.1079,0.0,0.0,0.0,0.0,0.0,0.0,0.0,0.0,0.0,0.0,0.0,0.0,0.0,0.0,0.0,0.0,0.0,0.0,0.0,0.0,0.0,0.0,0.0,0.0,0.0,0.0,0.0,0.0,0.0,0.0,0.0,0.0,0.0,0.0,0.0,0.0,0.0,0.0,0.0,0.0,0.0,0.0,0.0,0.0,0.0,0.0,0.0,0.0,0.0,0.0,0.0,0.0,0.0,0.0,0.0,0.0,0.0,0.0,0.0,0.0,-2.1918,0.0,0.0,0.0,0.0,0.0,0.0,0.0,0.0,0.0,0.0,0.0,0.0,0.0,0.0,0.0,0.0,0.0,0.0,0.0,0.0,0.0,0.0,0.0,0.0,0.0,0.0,0.0,0.0,0.0,0.0,0.0,0.0,0.0,0.0,0.0,0.0,0.0,0.0,0.0,0.0,0.0,-2.0069,-2.2333,-2.3575,-2.2696,-2.2658,-2.2987,-2.3632,-2.2708,-2.1793,-2.1116,-1.9406,0.0,0.0,0.0,0.0,0.0,0.0,0.0,0.0,0.0,0.0,0.0,0.0,0.0,0.0,0.0,0.0,0.0,0.0,0.0,0.0,0.0,0.0,0.0,0.0,0.0,0.0,0.0,0.0,0.0,0.0,0.0,0.0,0.0,0.0,0.0,0.0,0.0,0.0,0.0,0.0,0.0,0.0,0.0,0.0,0.0,0.0,0.0,0.0,0.0,0.0,0.0,0.0,0.0,0.0,0.0,0.0,0.0,0.0,0.0,0.0,-2.3281,0.0,0.0,0.0,0.0,0.0,0.0,0.0,0.0,0.0,0.0,0.0,0.0,0.0,0.0,0.0,0.0,0.0,0.0,0.0,0.0,0.0,0.0,0.0,0.0,0.0,0.0,0.0,0.0,0.0,0.0,0.0,0.0,0.0,0.0,0.0,0.0,0.0,0.0,0.0,0.0,-2.0671,-2.2944,-2.4186,-2.3326,-2.3549,-2.3933,-2.439,-2.3884,-2.3233,-2.249,-2.0801,0.0,0.0,0.0,0.0,0.0,0.0,0.0,0.0,0.0,0.0,0.0,0.0,0.0,0.0,0.0,0.0,0.0,0.0,0.0,0.0,0.0,0.0,0.0,0.0,0.0,0.0,0.0,0.0,0.0,0.0,0.0,0.0,0.0,0.0,0.0,0.0,0.0,0.0,0.0,0.0,0.0,0.0,0.0,0.0,0.0,0.0,0.0,0.0,0.0,0.0,0.0,0.0,0.0,-2.8389,-2.8867,-2.9039,-2.9693,-2.9999,-2.9884,-2.7599,-2.6612,-2.6503,-2.4738,0.0,0.0,0.0,0.0,0.0,0.0,0.0,0.0,0.0,0.0,0.0,0.0,0.0,0.0,0.0,0.0,0.0,0.0,0.0,0.0,0.0,0.0,0.0,0.0,-2.4568,-2.3766,0.0,0.0,0.0,0.0,0.0,0.0,0.0,0.0,0.0,0.0,0.0,0.0,-2.1713,-2.3796,-2.4924,-2.4205,-2.4771,-2.5191,-2.5191,-2.5168,-2.4786,-2.3957,-2.2437,-2.1139,0.0,0.0,0.0,0.0,0.0,0.0,0.0,0.0,0.0,0.0,0.0,0.0,0.0,0.0,0.0,0.0,0.0,0.0,0.0,0.0,0.0,0.0,0.0,0.0,0.0,0.0,0.0,0.0,0.0,0.0,0.0,0.0,-1.8115,-1.9032,0.0,0.0,0.0,0.0,0.0,0.0,0.0,0.0,0.0,0.0,0.0,0.0,0.0,-2.6326,-2.7186,-2.8752,-3.0319,-3.187,-3.2745,-3.3547,-3.4216,-3.4331,-3.4369,-3.435,-3.3993,0.0,-2.8286,-2.7342,0.0,0.0,0.0,0.0,0.0,0.0,0.0,0.0,0.0,0.0,0.0,0.0,0.0,0.0,0.0,0.0,0.0,0.0,0.0,0.0,0.0,0.0,-2.7071,-2.7166,-2.7205,-2.688,0.0,-2.3212,-2.07,-1.8913,-1.9219,0.0,0.0,0.0,0.0,0.0,0.0,0.0,-2.3365,-2.4511,-2.5153,-2.5038,-2.5134,-2.5191,-2.5191,-2.5044,-2.4632,-2.3941,-2.2867,-2.1638,-2.024,-1.9145,0.0,0.0,0.0,0.0,0.0,0.0,0.0,0.0,0.0,0.0,0.0,0.0,0.0,0.0,0.0,0.0,0.0,0.0,0.0,0.0,0.0,0.0,0.0,0.0,0.0,0.0,0.0,0.0,0.0,-1.7821,-1.9253,-2.0554,-2.0719,-2.0501,0.0,0.0,0.0,0.0,0.0,0.0,0.0,0.0,0.0,-2.7312,-2.9031,-3.0357,-3.1236,-3.242,-3.3624,-3.483,-3.5229,-3.584,-3.6604,-3.6604,-3.6604,-3.6604,-3.6604,-3.5272,-3.2937,-3.1083,-2.9532,-2.8221,0.0,0.0,0.0,0.0,-2.7319,-2.7415,-2.8351,-2.8343,0.0,-2.641,0.0,0.0,0.0,0.0,0.0,0.0,0.0,0.0,0.0,0.0,-2.8618,-2.9612,-2.9459,-2.8867,-2.7988,-2.6651,-2.4702,0.0,-2.1664,-2.1397,-1.8788,0.0,0.0,0.0,0.0,-2.325,-2.4473,-2.5791,-2.6612,-2.6612,-2.6612,-2.6402,-2.5918,-2.5831,-2.5461,-2.4689,-2.3796,-2.3023,-2.2365,-2.106,-2.0186,0.0,0.0,0.0,0.0,0.0,0.0,0.0,0.0,0.0,0.0,0.0,0.0,0.0,0.0,0.0,0.0,0.0,0.0,0.0,0.0,0.0,0.0,0.0,0.0,0.0,0.0,0.0,0.0,-1.9344,-2.0719,-2.2018,-2.2534,-2.2476,0.0,0.0,0.0,0.0,0.0,0.0,-2.7447,-2.8331,-2.9516,-3.1121,-3.2802,-3.3987,-3.4636,-3.5439,-3.6279,-3.7139,-3.7139,-3.7578,-3.8362,-3.8362,-3.8362,-3.8362,-3.8362,-3.7903,-3.695,-3.4518,-3.2724,-3.1374,-3.0426,-2.987,-2.9746,-3.0796,-3.0892,-3.0686,-3.1943,-3.1981,-3.1236,-2.9784,-2.8867,-2.8141,-2.709,0.0,0.0,0.0,0.0,-2.7759,-2.944,-2.9726,-2.9942,-3.1446,-3.1312,-3.0663,-2.9999,-2.9865,-2.8624,0.0,-2.4282,-2.3938,-2.1015,0.0,0.0,0.0,0.0,-2.4855,-2.5726,-2.6937,-2.7701,-2.7701,-2.7701,-2.7434,-2.6784,-2.6783,-2.6431,-2.5581,-2.4982,-2.4465,-2.4024,-2.2815,-2.2055,-2.1835,0.0,0.0,0.0,0.0,0.0,0.0,0.0,0.0,0.0,0.0,0.0,0.0,0.0,0.0,0.0,0.0,0.0,0.0,0.0,0.0,0.0,0.0,0.0,0.0,0.0,0.0,0.0,0.0,0.0,-2.311,-2.4537,0.0,0.0,0.0,0.0,-2.7106,-2.7205,-2.8384,-3.1087,-3.1876,-3.2733,-3.3777,-3.5439,-3.6337,-3.6375,-3.7177,-3.8018,-3.8877,-3.8877,-3.9336,-4.0177,-4.0177,-4.0177,-4.0177,-4.0177,-3.968,-3.8744,-3.7007,-3.5766,-3.4866,-3.4063,-3.4178,-3.4751,-3.4063,-3.4254,-3.4904,-3.498,-3.498,-3.4808,-3.3949,-3.2038,-3.0204,-3.0892,-2.998,0.0,0.0,-3.0567,-3.0395,-3.2076,-3.1943,-3.158,-3.2424,-3.2596,-3.2558,-3.252,-3.2501,-3.1259,0.0,-2.6918,-2.6956,-2.5191,0.0,-2.6078,-2.6078,-2.6192,-2.6593,-2.7453,-2.7644,-2.7701,-2.7701,-2.7701,-2.7682,-2.7644,-2.7644,-2.7285,-2.6485,-2.6461,-2.5734,-2.4072,-2.3976,-2.3572,-2.2747,-2.1045,0.0,0.0,0.0,0.0,0.0,0.0,0.0,0.0,0.0,0.0,0.0,0.0,0.0,0.0,0.0,0.0,0.0,0.0,0.0,0.0,0.0,0.0,0.0,0.0,0.0,0.0,0.0,0.0,-2.633,-2.7076,0.0,-2.789,-2.8058,-2.8871,-3.0595,-3.0773,-3.1955,-3.4579,-3.4931,-3.5732,-3.7177,-3.7808,-3.8381,-3.8954,-3.924,-3.9527,-3.9852,-3.9852,-4.0005,-4.031,-4.031,-4.031,-4.031,-4.031,-4.0119,-3.9794,-3.9202,-3.8113,-3.6776,-3.6489,-3.6566,-3.6776,-3.6489,-3.6566,-3.6814,-3.6814,-3.6814,-3.668,-3.5878,-3.4617,-3.3471,-3.3757,-3.3433,-3.3089,-3.3681,-3.3643,-3.3681,-3.4846,-3.4942,-3.4789,-3.5078,-3.5136,-3.4866,-3.3777,-3.3547,-3.2936,-3.0873,-2.9841,-2.8771,-2.709,-2.7052,-2.7052,-2.6479,-2.7319,-2.8109,-2.8433,-2.8962,-2.9306,-2.9306,-2.9306,-2.9077,-2.851,-2.8517,-2.7948,-2.6581,-2.6559,-2.6072,-2.4889,-2.4861,-2.4726,-2.4409,-2.2765,-2.1235,0.0,0.0,0.0,0.0,0.0,0.0,0.0,0.0,0.0,0.0,0.0,0.0,0.0,0.0,0.0,0.0,0.0,0.0,0.0,0.0,0.0,0.0,0.0,0.0,0.0,0.0,-2.6075,-2.8159,-2.947,-3.0315,-3.0684,-3.1298,-3.2295,-3.3741,-3.3939,-3.4964,-3.7234,-3.7349,-3.7999,-3.9393,-3.9451,-3.9718,-4.0291,-4.031,-4.031,-4.031,-4.031,-4.0444,-4.0711,-4.0711,-4.0711,-4.0711,-4.0711,-4.0559,-4.031,-4.031,-3.9623,-3.8572,-3.8572,-3.8572,-3.8572,-3.8572,-3.8572,-3.8572,-3.8572,-3.8381,-3.8056,-3.7521,-3.6757,-3.5993,-3.5725,-3.5649,-3.5592,-3.5286,-3.542,-3.5783,-3.6356,-3.67,-3.691,-3.691,-3.691,-3.6604,-3.5496,-3.5037,-3.4674,-3.4085,-3.2401,-3.0701,-2.9593,-2.9402,-2.9192,-2.8618,-2.9464,-3.0075,-2.9808,-3.0261,-3.0491,-3.0223,-3.0204,-2.9975,-2.9402,-2.9398,-2.8708,-2.7041,-2.6993,-2.6524,-2.5341,-2.5303,-2.5303,-2.5303,-2.3947,-2.2543,-2.1139,0.0,0.0,0.0,0.0,0.0,0.0,0.0,0.0,0.0,0.0,0.0,0.0,0.0,0.0,0.0,0.0,0.0,0.0,0.0,0.0,0.0,0.0,0.0,-2.3125,-2.5356,-2.7363,-2.8479,-3.1635,-3.3519,-3.2905,-3.4331,-3.5649,-3.6566,-3.6623,-3.7349,-3.8992,-3.9088,-3.9451,-4.0272,-4.031,-4.031,-4.0348,-4.0348,-4.0348,-4.0387,-4.0387,-4.0788,-4.1533,-4.1533,-4.1533,-4.1533,-4.1533,-4.1094,-4.0387,-4.0387,-4.0368,-4.0329,-4.031,-4.031,-4.031,-4.031,-4.031,-4.031,-4.031,-3.9756,-3.903,-3.903,-3.8457,-3.7636,-3.6852,-3.6623,-3.6451,-3.5572,-3.5935,-3.6585,-3.6547,-3.712,-3.7693,-3.7693,-3.7693,-3.7693,-3.7693,-3.7083,-3.653,-3.6493,-3.4508,-3.281,-3.2749,-3.2711,-3.2691,-3.2691,-3.2691,0.0,-3.1637,-3.1484,-3.1159,-3.0357,-3.0261,-3.0242,-3.0242,-3.0253,-2.9564,-2.7896,-2.7838,-2.7082,-2.536,-2.5303,-2.5303,-2.5303,-2.4485,-2.3648,-2.2793,0.0,0.0,0.0,0.0,0.0,0.0,0.0,0.0,0.0,0.0,0.0,0.0,0.0,0.0,0.0,0.0,0.0,0.0,0.0,0.0,0.0,0.0,-2.5002,-2.5727,-2.7454,-2.9755,-3.277,-3.398,-3.5039,-3.6205,-3.6738,-3.7636,-3.9145,-3.926,-3.9718,-4.075,-4.0807,-4.0654,-4.031,-4.031,-4.0578,-4.1151,-4.117,-4.1495,-4.2106,-4.2106,-4.224,-4.2431,-4.2431,-4.2431,-4.2431,-4.2431,-4.2316,-4.2106,-4.2106,-4.1743,-4.1113,-4.054,-4.031,-4.031,-4.031,-4.031,-4.031,-4.0364,-4.0173,-3.9945,-3.9999,-3.9846,-3.9634,-3.9387,-3.9293,-3.9084,-3.8261,-3.8167,-3.8171,-3.7594,-3.7557,-3.771,-3.7747,-3.7729,-3.7658,-3.7433,-3.7223,-3.7031,-3.6826,-3.6217,-3.5302,-3.3901,-3.3127,-3.2691,-3.2691,-3.2691,0.0,-3.2465,-3.2441,-3.2326,-3.2115,-3.1508,-3.1145,-3.1145,-3.0056,-2.8912,-2.7862,-2.7272,-2.6467,-2.5341,-2.5303,-2.5303,-2.5303,-2.3889,-2.3043,0.0,0.0,0.0,0.0,0.0,0.0,0.0,0.0,0.0,0.0,0.0,0.0,0.0,0.0,0.0,0.0,0.0,0.0,0.0,0.0,0.0,0.0,-2.586,-2.7463,-2.9071,-3.0176,-3.1781,-3.4304,-3.5595,-3.6893,-3.8461,-3.8918,-3.9738,-4.1227,-4.1361,-4.1399,-4.1495,-4.1495,-4.1074,-4.0156,-4.046,-4.086,-4.1338,-4.166,-4.2158,-4.2794,-4.2794,-4.2985,-4.331,-4.331,-4.331,0.0,-4.331,-4.3119,-4.2794,-4.2794,-4.2507,0.0,0.0,0.0,0.0,0.0,-4.031,-4.031,-4.0346,-4.0327,-4.0308,-4.0344,-4.0362,-4.0304,-3.9957,-3.9842,-3.9616,-3.8793,-3.8706,-3.8671,-3.785,-3.7776,-3.7888,-3.768,-3.7814,-3.7964,-3.7905,-3.7905,-3.7885,-3.7737,-3.7478,0.0,-3.5835,-3.4708,-3.3846,-3.3504,-3.3466,-3.337,-3.308,-3.3058,-3.2925,-3.258,-3.2168,-3.1779,-3.145,-3.0598,0.0,0.0,0.0,-2.7101,-2.589,-2.5495,0.0,0.0,0.0,0.0,0.0,0.0,0.0,0.0,-2.3235,-2.3101,0.0,0.0,0.0,0.0,0.0,0.0,0.0,0.0,0.0,0.0,0.0,0.0,0.0,0.0,0.0,0.0,-2.8374,-3.0204,-3.2559,-3.3241,-3.3783,-3.4531,-3.6726,-3.8649,-3.9864,-4.0624,-4.1513,-4.2657,-4.2735,-4.2372,-4.1494,0.0,0.0,0.0,0.0,-4.1177,-4.137,-4.2113,-4.268,-4.308,-4.308,-4.3463,-4.415,-4.415,-4.415,-4.415,-4.415,-4.3749,-4.308,-4.308,-4.3023,-4.2851,-4.1972,-4.1208,-4.0578,-4.0578,-4.052,-4.0444,-4.0444,0.0,0.0,-4.0308,-4.0307,-4.0191,-3.9459,-3.9246,-3.9057,-3.818,-3.8327,-3.8555,-3.7679,-3.7837,-3.8105,-3.7581,-3.7898,-3.8401,-3.8665,-3.8745,-3.8803,-3.8878,-3.8459,-3.8065,-3.797,-3.6767,-3.5571,-3.4837,-3.4649,-3.4369,-3.3673,-3.3599,-3.3336,-3.26,0.0,0.0,-3.1632,-3.1565,-3.0887,-2.9301,-2.906,-2.8294,-2.6813,-2.6005,-2.6332,-2.7871,-2.7986,-2.839,-2.9102,-2.9198,-2.8929,-2.8255,-2.5024,-2.4716,0.0,0.0,0.0,0.0,0.0,0.0,0.0,0.0,0.0,0.0,0.0,0.0,0.0,0.0,0.0,-2.9108,-3.0852,-3.2515,-3.4275,-3.5754,-3.6749,-3.7143,-3.7649,-3.8637,-4.0372,-4.0697,-4.1235,-4.2325,-4.2405,-4.2044,-4.1231,-4.1193,-4.0984,-4.0547,-4.0915,-4.1749,-4.3095,-4.3485,-4.4071,-4.4819,0.0,0.0,-4.5048,-4.5048,-4.5048,-4.5048,-4.5048,-4.4953,-4.4819,-4.4819,-4.4399,-4.3692,-4.287,-4.245,-4.2316,-4.2317,-4.1877,-4.1285,-4.1397,-4.0937,-4.0326,-4.0362,-4.0379,-4.036,-4.0187,-4.0166,0.0,-3.9076,-3.8929,-3.8837,-3.8012,-3.7809,-3.7812,-3.7804,-3.7863,-3.8059,-3.8594,-3.8708,-3.8858,-3.9353,-3.9353,-3.9072,-3.8431,-3.7262,-3.636,-3.6222,-3.5613,-3.5049,-3.4807,-3.4907,-3.4901,-3.4577,-3.3946,-3.3487,-3.3337,-3.2111,-3.0939,-2.9975,-2.8783,-2.7986,-2.7659,-2.7486,-2.7563,-2.789,-2.8544,-2.8929,-2.9102,-2.9813,-3.0429,-3.0929,-2.8832,-2.814,0.0,0.0,0.0,0.0,0.0,0.0,0.0,0.0,0.0,0.0,0.0,-2.4575,0.0,0.0,-2.9659,-3.1678,-3.3018,-3.4376,-3.6028,-3.6964,-3.7537,-3.7691,-3.8412,-3.947,-4.097,-4.1465,-4.1986,-4.2687,-4.275,-4.2372,-4.1542,-4.1486,-4.1431,-4.1304,-4.1826,-4.2573,-4.3592,-4.4121,-4.4712,-4.5297,-4.5297,-4.5297,-4.5297,-4.5297,-4.5297,-4.5297,-4.5297,-4.5297,-4.5297,-4.5297,-4.5029,-4.4609,-4.4208,-4.3539,-4.2794,-4.2814,-4.2508,-4.2144,-4.2221,-4.1934,-4.1475,-4.1129,-4.1013,-4.0936,-4.0513,-4.0398,-4.0302,-3.9825,-3.9603,-3.9319,-3.8497,-3.8156,-3.7946,-3.7734,-3.7852,-3.8038,-3.8137,-3.8403,-3.876,-3.918,-3.9355,-3.9452,-3.9452,-3.8516,-3.7561,-3.6994,-3.6158,-3.5589,-3.5552,-3.53,-3.507,-3.5,-3.4706,-3.4318,-3.3881,-3.2775,-3.1933,-3.1525,-3.0432,-2.9794,-2.9794,-2.939,-2.9352,-2.9794,-3.0198,-3.0602,-3.1006,-3.1448,-3.1872,-3.2295,-3.1852,-3.141,0.0,0.0,0.0,0.0,0.0,0.0,0.0,0.0,-2.2391,-2.4061,-2.5034,-2.619,-2.8136,-3.0338,-3.2339,-3.3807,-3.4853,-3.6009,-3.7514,-3.7716,-3.7716,-3.7716,-3.9001,-4.0302,-4.1334,-4.2001,-4.2523,-4.2856,-4.2733,-4.234,-4.1619,-4.1582,-4.1732,-4.205,-4.2679,-4.3273,-4.3748,-4.4435,-4.4934,-4.5194,-4.5256,-4.5297,-4.5297,-4.5297,-4.5297,-4.5297,-4.5297,-4.5297,-4.5297,-4.5297,-4.5256,-4.5194,-4.5256,-4.4435,-4.321,-4.3251,-4.3176,-4.3023,-4.3023,-4.2928,-4.2679,-4.203,-4.1839,-4.1666,-4.0861,-4.0611,-4.0591,-4.0382,-4.0158,-3.983,-3.9204,-3.8874,-3.8542,-3.7909,-3.8092,-3.8247,-3.7719,-3.8061,-3.8518,-3.8649,-3.8961,-3.9423,-4.0092,-3.9635,-3.8804,-3.7774,-3.6821,-3.6251,-3.633,-3.5647,-3.5173,-3.5192,-3.5202,-3.4923,-3.4216,-3.3494,-3.3115,-3.3141,-3.2391,-3.1929,-3.1929,-3.1256,-3.1218,-3.1929,-3.2102,-3.2506,-3.3141,-3.3314,-3.3487,-3.366,-3.4353,-3.4237,-2.111,-2.0317,0.0,-2.3088,-2.285,-2.2997,0.0,0.0,-2.7438,-2.9053,-3.0026,-3.0668,-3.0944,-3.2375,-3.3825,-3.4715,-3.6193,-3.7533,-3.8432,-3.8579,-3.8579,-3.8579,-3.935,-4.0244,-4.1052,-4.125,-4.1396,-4.1664,-4.1035,-4.0588,-4.0495,-4.0495,-4.1128,-4.256,-4.269,-4.3229,-4.4288,-4.4638,-4.4819,-4.4868,-4.5173,-4.5297,-4.5297,-4.5297,-4.5297,-4.5297,-4.5297,-4.5297,-4.5297,-4.5297,-4.5109,-4.491,-4.5173,-4.4995,-4.4626,-4.4927,-4.4532,-4.3883,-4.3883,-4.3405,-4.2794,-4.2698,-4.266,-4.2488,-4.1648,-4.1418,-4.1302,-4.0572,-4.0325,-4.0251,-4.0281,-4.0191,-3.9852,-3.888,-3.8876,-3.8812,-3.7827,-3.7852,-3.8012,-3.7859,-3.8437,-3.899,-3.9139,-3.9659,-3.983,-3.9161,-3.8129,-3.7432,-3.7504,-3.6894,-3.6408,-3.626,-3.5613,-3.5171,-3.5057,-3.427,-3.3868,-3.4045,-3.3237,-3.2776,-3.2776,-3.2679,-3.2679,-3.2756,-3.3526,-3.3949,-3.4064,-3.4834,-3.5584,-3.6276,-3.6372,-3.5988,-2.3343,0.0,0.0,0.0,-2.474,-2.5805,-2.7842,-2.8411,-2.8962,-3.0577,-3.1164,-3.1678,-3.2614,-3.4137,-3.5514,0.0,-3.7441,-3.8322,-3.8652,-3.8707,-3.8707,-3.8707,-3.9405,-4.0029,-4.0377,-4.0836,-4.0942,-4.0603,-4.0677,-4.0769,-4.0769,-4.1193,-4.2094,-4.341,-4.3448,-4.3778,-4.4383,-4.4676,-4.48,-4.48,-4.5132,-4.5297,-4.5297,-4.5297,-4.5297,-4.5297,-4.5087,-4.5023,-4.5,-4.4838,-4.4695,-4.4599,-4.491,-4.4819,-4.4624,-4.5129,-4.5067,-4.4762,-4.4762,-4.441,-4.39,-4.3613,-4.3254,-4.2858,-4.2161,-4.1892,-4.1699,-4.0993,-4.0724,-4.0589,-4.0329,-4.0139,-3.9905,-3.9485,-3.9368,-3.9159,-3.8345,-3.8271,-3.8175,-3.7585,-3.8251,-3.8916,-3.899,-3.9548,-3.9967,-3.9996,-3.918,-3.8594,-3.8626,-3.7502,-3.6498,-3.594,-3.558,-3.5369,-3.5369,-3.5043,-3.4861,-3.4949,-3.4622,-3.441,-3.441,-3.441,-3.441,-3.441,-3.4776,-3.4968,-3.4968,-3.5795,-3.6372,-3.6719,-3.7219,-3.7546,-2.4628,0.0,0.0,-2.5136,-2.6625,-2.8246,-2.8686,-2.942,-3.0338,-3.1494,-3.1898,-3.2412,-3.3587,-3.5165,0.0,-3.7055,-3.8028,-3.8707,-3.8707,-3.8707,-3.8615,-3.8395,-3.9074,-3.9478,-3.9258,-4.0377,-4.0781,-3.9955,-4.0653,-4.1111,-4.1111,-4.1864,-4.282,-4.3968,-4.391,-4.3999,-4.4289,-4.4465,-4.4591,-4.4572,-4.4887,-4.5042,-4.5042,-4.5042,-4.5042,-4.5042,-4.4795,-4.4676,-4.4676,-4.4465,-4.4374,-4.4318,-4.4572,-4.4519,-4.4346,-4.4862,-4.5087,-4.5151,-4.5065,-4.4934,-4.4706,-4.4254,-4.3812,-4.3332,-4.2712,-4.2442,-4.2215,-4.1567,-4.1142,-4.0816,-4.0454,-4.0087,-3.9785,-3.9728,-3.9656,-3.9383,-3.8663,-3.8582,-3.8419,-3.7466,-3.8176,-3.8916,-3.899,-3.9509,-4.0043,-4.0438,-3.9988,-3.9623,-3.9623,-3.8123,-3.6738,-3.593,-3.5641,-3.5493,-3.5493,-3.5493,-3.5493,-3.5493,-3.5493,-3.5493,-3.5493,-3.5493,-3.5603,-3.5834,-3.5834,-3.5949,-3.6199,-3.6776,-3.718,-3.743,-3.8065,-3.8815,0.0,0.0,-2.5709,-2.6981,-2.8135,-2.9384,-3.0925,-3.1916,-3.2496,-3.2559,-3.3183,-3.3733,-3.3788,-3.5165,-3.6303,-3.6321,-3.7661,-3.8707,-3.8707,-3.8707,-3.8414,-3.7606,-3.8248,-3.8432,0.0,-3.9717,-4.0781,-3.9955,-4.0653,-4.1111,-4.1111,-4.1864,-4.282,-4.3968,-4.3682,-4.3682,-4.4005,-4.4036,-4.4017,-4.4036,-4.4308,-4.443,-4.443,-4.443,-4.443,-4.443,-4.443,-4.4411,-4.4411,-4.4383,-4.425,-4.4048,-4.4318,-4.425,-4.4048,-4.4318,-4.4599,-4.4776,-4.4519,-4.4599,-4.4751,-4.4474,-4.4392,-4.4195,-4.3323,-4.3152,-4.31,-4.2304,-4.1499,-4.0944,-4.1041,-4.0435,-3.9739,-3.9575,-3.9637,-3.9504,-3.8437,-3.8565,-3.8575,-3.7507,-3.8176,-3.8916,-3.899,-3.966,-4.0269,-4.0473,-4.0469,-4.045,-4.045,-3.8988,-3.7623,-3.6757,-3.5968,-3.5493,-3.5493,-3.5493,-3.5493,-3.5493,-3.5493,-3.5493,-3.5493,-3.5493,-3.5872,-3.6661,-3.6661,-3.7084,-3.7911,-3.795,-3.8392,-3.9219,-3.9238,-3.9681,0.0,0.0,-2.6664,-2.8093,-2.9368,-3.06,-3.1902,-3.2816,-3.3238,-3.2724,-3.2834,-3.2999,-3.2999,-3.3899,-3.5,-3.6119,-3.7202,-3.8083,-3.8615,-3.8707,-3.8395,-3.7588,-3.8212,0.0,0.0,0.0,0.0,-3.9882,-4.0139,-4.0763,-4.1846,-4.2158,-4.2739,-4.3631,-4.3548,-4.3548,-4.3682,-4.391,-4.4005,-4.4005,-4.426,-4.4383,-4.4383,-4.4383,-4.4383,-4.4402,-4.4221,-4.4121,-4.4121,-4.3886,-4.3763,-4.3716,-4.3999,-4.3936,-4.3716,-4.403,-4.421,-4.4279,-4.4374,-4.4346,-4.4279,-4.4374,-4.4143,-4.3786,-4.3725,-4.3669,-4.349,-4.2819,-4.2417,-4.2081,-4.1713,-4.0922,-4.0184,-4.0103,-3.9709,-3.9238,-3.8891,-3.9051,-3.8995,-3.7909,-3.8559,-3.9183,-3.8802,-3.9391,-4.0062,-4.0438,-4.0489,-4.0296,-3.9758,-3.87,-3.768,-3.6796,-3.5988,-3.5493,-3.5493,-3.5493,-3.5493,-3.5493,-3.5493,-3.5493,-3.5493,-3.5493,-3.5641,-3.5911,-3.643,-3.6853,-3.7142,-3.8296,-3.9008,-3.9296,-3.9835,-4.0239,0.0,-2.6397,-2.7735,-2.9034,-3.0432,-3.1746,-3.2648,-3.3121,-3.322,-3.2724,-3.2375,-3.2173,-3.2173,-3.2834,-3.3825,-3.5183,-3.634,-3.7349,-3.8157,-3.8524,-3.8395,-3.7588,-3.8212,0.0,0.0,0.0,0.0,-3.9827,-4.0175,-4.091,-4.2231,-4.2304,-4.2671,-4.3461,-4.3497,-4.3497,-4.3497,-4.3716,-4.3814,-4.3814,-4.398,-4.4084,-4.4084,-4.4084,-4.4084,-4.4053,-4.3892,-4.3814,-4.3814,-4.3582,-4.3497,-4.3513,-4.3749,-4.3682,-4.3532,-4.3749,-4.3814,-4.3846,-4.4011,-4.4042,-4.3986,-4.4072,-4.3841,-4.3548,-4.3749,-4.3767,-4.3675,-4.3324,-4.3002,-4.2667,-4.2324,-4.153,-4.0754,-4.0457,-3.9974,-3.9472,-3.9175,-3.9324,-3.9302,-3.86,-3.9156,-3.9621,-3.9239,-3.9661,-4.0043,-4.0073,-4.0315,-4.0296,-3.9796,-3.8988,-3.8257,-3.77,-3.6622,-3.593,-3.593,-3.568,-3.5493,-3.5493,-3.5493,-3.5493,-3.5493,-3.5493,-3.5641,-3.593,-3.6738,-3.7315,-3.7623,-3.9046,-3.9719,-3.9738,-4.0258,-4.0489,-2.6014,-2.7409,-2.8936,-2.9854,-3.1355,-3.2702,-3.3161,-3.2848,-3.2496,-3.2423,-3.1788,-3.1201,0.0,0.0,-3.2706,-3.3532,-3.511,-3.6523,-3.7367,-3.8193,-3.8395,0.0,0.0,0.0,0.0,0.0,0.0,-3.9827,0.0,-4.1368,-4.2249,-4.2268,-4.2635,-4.3461,-4.3497,-4.3497,-4.3497,-4.3497,-4.3497,-4.3497,-4.3497,-4.3497,-4.3497,-4.3497,-4.3497,-4.3497,-4.3497,-4.3497,-4.3497,-4.3497,-4.3497,-4.3497,-4.3497,-4.3497,-4.3497,-4.3497,-4.3497,-4.3497,-4.3497,-4.3716,-4.3942,-4.3615,-4.3497,-4.3497,-4.3497,-4.3566,-4.3634,-4.3753,-4.3296,-4.2798,-4.2841,-4.2259,-4.146,-4.0698,-4.0476,-4.0215,-3.9342,-3.9373,-3.9514,-3.9502,-3.9857,-4.0177,-4.0196,-4.0356,-4.0239,-3.9469,-4.0008,-4.0489,-4.0431,-3.9758,-3.9296,-3.9296,-3.7777,-3.6776,-3.6776,-3.6026,-3.5565,-3.5565,-3.5512,-3.5493,-3.5493,-3.5493,-3.5872,-3.6622,-3.7526,-3.8411,-3.9238,-4.0085,-4.0489,-4.0489,-4.0489,-4.0489,-2.7173,-2.8701,-3.0322,-3.1013,-3.1781,-3.2389,-3.239,-3.1846,-3.1046,-3.0125,-2.9274,-2.8521,0.0,0.0,0.0,-3.177,-3.388,0.0,-3.7323,-3.8193,0.0,0.0,0.0,-3.8377,-3.7599,-3.823,0.0,0.0,-3.9533,-4.0194,-4.2194,-4.1735,-4.2047,-4.3442,-4.3497,-4.3497,-4.3497,-4.3497,-4.3497,-4.3497,-4.3497,-4.3497,-4.3497,-4.3497,-4.3497,-4.3497,-4.3497,-4.3497,-4.3497,-4.3497,-4.3497,-4.3497,-4.3497,-4.3497,-4.3497,-4.3497,-4.3497,-4.3497,-4.3497,-4.3548,-4.3615,-4.3532,-4.3497,-4.3497,-4.3497,-4.3566,-4.3615,-4.3634,-4.3619,-4.3601,-4.3632,-4.3052,-4.2445,-4.224,-4.172,-4.107,-4.0253,-4.0105,-3.9974,-3.9322,-3.959,-3.9963,-4.0177,-4.0356,-4.0431,-4.0219,-4.0354,-4.0277,-3.9681,-3.9431,-3.9296,-3.9296,-3.8315,-3.768,-3.768,-3.6892,-3.6392,-3.6392,-3.5834,-3.5493,-3.5493,-3.5493,-3.5603,-3.5815,-3.7257,-3.8104,-3.8334,-3.9777,-4.0489,-4.0489,-4.0489,-4.0489,-2.7802,-2.9395,-3.0976,-3.1144,-3.1608,-3.1909,-3.1446,-3.0502,-2.9475,-2.8631,-2.7738,0.0,0.0,0.0,0.0,0.0,0.0,0.0,-3.6688,-3.7661,-3.8138,0.0,-3.8432,0.0,-3.8065,-3.8432,-3.8891,0.0,-3.8964,-3.9753,-4.2176,-4.1552,-4.1846,-4.3442,-4.3497,-4.3497,-4.3497,-4.3497,-4.3497,-4.3497,-4.3497,-4.3497,-4.3497,-4.3497,-4.3497,-4.3497,0.0,-4.3497,-4.3497,-4.3497,-4.3497,-4.3497,-4.3497,-4.3497,-4.3497,-4.3497,-4.3497,-4.3497,-4.3497,-4.3497,-4.3497,-4.3497,-4.3497,-4.3497,-4.3497,-4.3532,-4.3548,-4.3667,-4.3786,-4.3883,-4.3929,-4.3639,-4.3243,-4.2872,-4.2463,-4.1906,-4.1089,-4.0643,-4.0198,-3.9413,-3.9566,-3.9901,-4.0158,-4.0356,-4.0373,-4.0027,-4.0258,-4.02,-3.9392,-3.9604,-3.9815,-3.9815,-3.9065,-3.8565,-3.8565,-3.743,-3.6873,-3.7257,-3.6488,-3.6199,-3.6584,-3.6603,-3.6603,-3.6603,-3.7892,-3.8565,-3.8565,-3.9873,-4.0489,-4.0489,-4.0489,-4.0489,-2.8201,-2.9676,-3.0904,-3.075,-3.0986,-3.1044,-3.0213,-2.8841,-2.7643,-2.7323,0.0,0.0,-2.6075,0.0,-2.8172,-2.9787,0.0,-3.344,-3.5789,-3.6909,-3.7753,-3.8469,-3.8634,-3.8707,-3.8707,-3.8707,-3.8707,-3.8707,-3.8707,-3.9717,-4.2029,-4.1497,-4.1846,-4.3442,-4.3497,-4.3497,-4.3497,-4.3497,-4.3497,-4.3497,-4.3497,-4.3497,-4.3497,-4.3497,-4.3497,-4.3497,-4.3497,0.0,-4.3497,-4.3497,-4.3497,-4.3497,-4.3497,-4.3497,-4.3497,-4.3497,-4.3497,-4.3497,-4.3497,-4.3497,-4.3497,-4.3497,-4.3497,-4.3497,-4.3497,-4.3497,-4.3532,-4.3719,-4.3771,-4.3837,-4.3961,-4.3974,-4.3819,-4.3132,-4.2965,-4.2742,-4.1924,-4.1062,-4.0281,-3.9802,-3.9781,-3.9943,-4.0195,-4.0372,-4.0258,-3.9546,-4.0046,-4.0239,-3.9546,-4.0065,-4.0489,-4.0489,-3.9873,-3.945,-3.945,-3.7988,-3.7373,-3.8123,-3.7353,-3.7219,-3.7969,-3.8007,-3.8007,-3.8007,-3.8854,-3.9296,-3.9296,-4.0104,-4.0489,-4.0489,-4.0489,-4.0489,-2.8939,-2.9438,-2.9868,-3.0524,-2.9833,-2.8818,-2.8293,-2.6605,0.0,0.0,0.0,-2.3564,-2.362,-2.5383,0.0,-2.8962,0.0,0.0,0.0,0.0,-3.7562,0.0,0.0,0.0,0.0,0.0,0.0,0.0,0.0,-3.946,-4.1222,-4.1185,-4.1846,-4.3442,-4.3497,-4.3497,-4.3497,-4.3497,-4.3497,-4.3497,-4.3497,-4.3497,-4.3497,-4.3497,-4.3497,-4.3497,-4.3497,0.0,-4.3497,-4.3497,-4.3497,-4.3497,-4.3497,-4.3497,-4.3497,-4.3497,-4.3497,-4.3497,-4.3497,-4.3497,-4.3497,-4.3497,-4.3497,-4.3497,-4.3497,-4.3497,-4.3532,-4.3532,-4.3686,-4.3804,-4.3837,-4.3929,-4.3968,-4.3838,-4.3782,-4.3578,-4.276,-4.1586,-4.0685,-4.0802,-4.0456,-4.0195,-4.0406,-4.0473,-4.045,-4.0296,-4.0412,-4.045,-4.0296,-4.0412,-4.0489,-4.0489,-4.0373,-4.0277,-4.0277,-3.9411,-3.8911,-3.9065,-3.8257,-3.7834,-3.7988,-3.8007,-3.8007,-3.8007,-3.8854,-3.9296,-3.9296,-4.0104,-4.0489,-4.0489,-4.0489,-4.0489,-2.8494,-2.9042,-2.9506,-2.9972,-2.8937,-2.7722,-2.718,0.0,0.0,0.0,0.0,-2.2337,-2.2905,0.0,0.0,0.0,0.0,0.0,0.0,0.0,0.0,0.0,0.0,0.0,0.0,0.0,0.0,0.0,0.0,-3.9221,-4.0414,-4.1277,-4.2268,-4.3442,-4.3497,-4.3497,-4.3497,-4.3497,-4.3497,-4.3497,-4.3497,-4.3497,-4.3497,-4.3497,-4.3497,-4.3497,-4.3497,0.0,-4.3497,-4.3497,-4.3497,-4.3497,-4.3497,-4.3497,-4.3497,-4.3497,-4.3497,-4.3497,-4.3497,-4.3497,-4.3497,-4.3497,-4.3497,-4.3497,-4.3497,-4.3497,-4.3532,-4.3548,-4.3634,-4.3719,-4.3818,-4.3897,-4.3961,-4.4005,-4.4005,-4.3782,-4.2965,-4.2361,-4.1788,-4.1041,-4.0872,-4.073,-4.0398,-4.0441,-4.0489,-4.0489,-4.0489,-4.0489,-4.0489,-4.0489,-4.0489,-4.0489,-4.0489,-4.0489,-4.0489,-3.9758,-3.9469,-3.9892,-3.9142,-3.8854,-3.9277,-3.9296,-3.9296,-3.9296,-3.97,-3.9912,-3.9931,-4.0296,-4.0489,-4.0489,-4.0489,-4.0489,-2.764,-2.834,-2.8922,-2.9196,-2.8023,-2.6653,-2.6063,-2.4156,0.0,0.0,0.0,-2.1425,-2.23,0.0,0.0,0.0,0.0,0.0,0.0,0.0,0.0,0.0,0.0,0.0,0.0,0.0,0.0,0.0,0.0,0.0,-3.9845,-4.1423,-4.2598,-4.3222,-4.3406,-4.3497,-4.3497,-4.3497,-4.3497,-4.3497,-4.3497,-4.3497,-4.3497,-4.3497,-4.3497,-4.3497,-4.3497,0.0,0.0,-4.3497,-4.3497,-4.3497,-4.3497,-4.3497,-4.3497,-4.3497,-4.3497,-4.3497,-4.3497,-4.3497,-4.3497,-4.3497,-4.3497,-4.3497,-4.3497,-4.3497,-4.3532,-4.3548,-4.3582,-4.3649,-4.3832,-4.3883,-4.3929,-4.3974,-4.4005,-4.3838,-4.3188,-4.3175,-4.2874,-4.155,-4.1404,-4.1265,-4.0651,-4.0523,-4.0489,-4.0489,-4.0489,-4.0489,-4.0489,-4.0489,-4.0489,-4.0489,-4.0489,-4.0489,-4.0489,-3.9912,-3.9815,-4.045,-3.9912,-3.9835,-4.0469,-4.0489,-4.0489,-4.0489,-4.0489,-4.0489,-4.0489,-4.0489,-4.0489,-4.0489,-4.0489,-4.0489,-2.6961,-2.7095,-2.7416,-2.8201,-2.6788,-2.5005,-2.424,0.0,0.0,0.0,-2.0281,-2.0462,-2.0688,0.0,0.0,0.0,0.0,0.0,0.0,0.0,0.0,0.0,0.0,0.0,0.0,0.0,0.0,0.0,0.0,0.0,-3.9845,-4.1423,-4.2323,-4.2415,-4.3112,-4.3497,-4.3497,-4.3497,-4.3497,-4.3497,-4.3497,-4.3497,-4.3497,-4.3497,-4.3497,-4.3497,-4.3497,0.0,0.0,-4.3497,-4.3497,-4.3497,-4.3497,-4.3497,-4.3497,-4.3497,-4.3497,-4.3497,-4.3497,-4.3497,-4.3497,-4.3497,-4.3497,-4.3497,-4.3497,-4.3497,-4.3497,-4.3532,-4.3548,-4.3615,-4.3753,-4.3851,-4.3929,-4.3974,-4.4005,-4.3986,-4.3912,-4.3688,-4.3426,-4.3275,-4.243,-4.1745,-4.1668,-4.1011,-4.0489,-4.0489,-4.0489,-4.0489,-4.0489,-4.0489,-4.0489,-4.0489,-4.0489,-4.0489,-4.0489,-4.0431,-4.0412,-4.0489,-4.0431,-4.0412,-4.0489,-4.0489,-4.0489,-4.0489,-4.0489,-4.0489,-4.0489,-4.0489,-4.0489,-4.0489,-4.0489,-4.0489,-2.5909,-2.626,-2.6441,-2.6764,-2.5914,-2.4649,-2.3381,0.0,0.0,-2.003,-1.9795,-1.9851,-2.0411,0.0,0.0,0.0,0.0,0.0,0.0,0.0,0.0,0.0,0.0,0.0,0.0,0.0,0.0,0.0,0.0,0.0,-3.9166,-4.023,-4.1075,-4.157,-4.2359,-4.2782,-4.2782,-4.3259,-4.3497,-4.3497,-4.3497,-4.3497,-4.3497,-4.3497,-4.3497,-4.3497,-4.3497,0.0,0.0,-4.3497,-4.3497,-4.3497,-4.3497,-4.3497,-4.3497,-4.3497,-4.3497,-4.3497,-4.3497,-4.3497,-4.3497,-4.3497,-4.3497,-4.3497,-4.3497,-4.3497,-4.3532,-4.3548,-4.3582,-4.3649,-4.38,-4.3897,-4.3974,-4.4005,-4.4005,-4.4005,-4.4005,-4.4167,-4.4113,-4.3601,-4.2985,-4.2431,-4.1893,-4.1085,-4.0489,-4.0489,-4.0489,-4.0489,-4.0489,-4.0489,-4.0489,-4.0489,-4.0489,-4.0489,-4.0489,-4.0489,-4.0489,-4.0489,-4.0489,-4.0489,-4.0489,-4.0489,-4.0489,-4.0489,-4.0489,-4.0489,-4.0489,-4.0489,-4.0489,-4.0489,-4.0489,-4.0489,-2.4723,-2.5275,-2.5569,-2.5569,-2.5094,-2.4218,0.0,0.0,-2.064,-1.9823,-1.9414,-1.9392,-2.0026,-2.0338,0.0,0.0,0.0,0.0,0.0,0.0,0.0,0.0,0.0,0.0,0.0,0.0,0.0,0.0,0.0,0.0,0.0,-3.9239,-3.9918,-4.0726,-4.1772,-4.2304,-4.2304,-4.3094,-4.3497,-4.3497,-4.3497,-4.3497,-4.3497,-4.3497,-4.3497,-4.3497,-4.3497,0.0,0.0,-4.3497,-4.3497,-4.3497,-4.3497,-4.3497,-4.3497,-4.3497,-4.3497,-4.3497,-4.3497,-4.3497,-4.3497,-4.3497,-4.3497,-4.3497,-4.3497,-4.3497,-4.3532,-4.3548,-4.3582,-4.3649,-4.38,-4.3929,-4.3974,-4.4005,-4.4005,-4.4017,-4.4091,-4.4484,-4.463,-4.4113,-4.3713,-4.3181,-4.2335,-4.145,-4.0796,-4.0527,-4.0489,-4.0489,-4.0489,-4.0489,-4.0489,-4.0489,-4.0489,-4.0489,-4.0489,-4.0489,-4.0489,-4.0489,-4.0489,-4.0489,-4.0489,-4.0489,-4.0489,-4.0489,-4.0489,-4.0489,-4.0489,-4.0489,-4.0489,-4.0489,-4.0489,-4.0489,-2.341,-2.4054,-2.4718,-2.4718,-2.4213,-2.3381,0.0,-2.1191,-2.0311,-1.9219,-1.9017,-1.9064,-1.9259,-1.9968,-2.1053,0.0,0.0,0.0,0.0,0.0,0.0,0.0,0.0,0.0,0.0,0.0,0.0,0.0,0.0,0.0,0.0,-3.8707,-3.9074,-3.9882,-4.146,-4.2304,-4.2304,-4.3094,-4.3497,-4.3497,-4.3497,-4.3497,-4.3497,-4.3497,-4.3497,0.0,0.0,0.0,0.0,-4.3497,-4.3497,-4.3497,-4.3497,-4.3497,-4.3497,-4.3497,-4.3497,-4.3497,-4.3497,-4.3497,-4.3497,-4.3497,-4.3497,-4.3497,-4.3497,-4.3497,-4.3497,-4.3497,-4.3548,-4.3634,-4.3771,-4.3851,-4.3929,-4.3974,-4.4005,-4.4079,-4.4346,-4.4599,-4.4891,-4.514,-4.471,-4.4028,-4.3239,-4.2354,-4.1489,-4.0623,-4.0489,-4.0489,-4.0489,-4.0489,-4.0489,-4.0489,-4.0489,-4.0489,-4.0489,-4.0489,-4.0489,-4.0489,-4.0489,-4.0489,-4.0489,-4.0489,-4.0489,-4.0489,-4.0489,-4.0489,-4.0489,-4.0489,-4.0489,-4.0489,-4.0489,-4.0489,-2.1915,-2.2496,-2.3005,-2.2456,-2.2231,-2.173,-2.023,-1.9938,-1.9765,-1.8966,-1.9,-1.9214,-1.9289,-1.951,-2.0409,-2.2648,0.0,0.0,0.0,0.0,0.0,0.0,0.0,0.0,0.0,0.0,0.0,0.0,0.0,0.0,0.0,-3.8707,-3.8817,-3.9074,-4.0102,-4.0653,-4.0653,-4.1992,-4.2671,-4.269,-4.3222,-4.3497,-4.3497,-4.3497,-4.3497,0.0,0.0,0.0,0.0,-4.3497,-4.3497,-4.3497,-4.3497,-4.3497,-4.3497,-4.3497,-4.3497,-4.3497,-4.3497,-4.3497,-4.3497,-4.3497,-4.3497,-4.3497,-4.3497,-4.3497,-4.3532,-4.3686,-4.3734,-4.3832,-4.3929,-4.3942,-4.3974,-4.4005,-4.4151,-4.4289,-4.4383,-4.4732,-4.5096,-4.518,-4.471,-4.422,-4.3951,-4.2739,-4.172,-4.1431,-4.0873,-4.0489,-4.0489,-4.0489,-4.0489,-4.0489,-4.0489,-4.0489,-4.0489,-4.0489,-4.0489,-4.0489,-4.0489,-4.0489,-4.0489,-4.0489,-4.0489,-4.0489,-4.0489,-4.0489,-4.0489,-4.0489,-4.0489,-4.0489,-4.0489,-4.0489,0.0,-2.1145,-2.1436,-2.0968,-2.0901,-2.0636,-1.9429,-1.9373,-1.9404,-1.8876,-1.8983,-1.92,-1.9292,-1.9546,-2.0262,-2.1822,0.0,0.0,0.0,0.0,0.0,0.0,0.0,0.0,0.0,0.0,0.0,0.0,0.0,0.0,0.0,-3.8707,-3.8707,-3.8707,-3.9478,-3.99,-3.99,-4.1185,-4.1864,-4.1864,-4.2359,-4.2598,-4.2598,-4.2598,-4.2598,0.0,0.0,0.0,0.0,-4.291,-4.3039,-4.3075,-4.3369,-4.3497,-4.3497,-4.3497,-4.3497,-4.3497,-4.3497,-4.3497,-4.3497,-4.3497,-4.3497,-4.3497,-4.3497,-4.3497,-4.3532,-4.3652,-4.3753,-4.38,-4.3897,-4.3961,-4.3974,-4.4005,-4.4192,-4.443,-4.4519,-4.4896,-4.5222,-4.5322,-4.5053,-4.4682,-4.4355,-4.3181,-4.2181,-4.1854,-4.1066,-4.0489,-4.0489,-4.0489,-4.0489,-4.0489,-4.0489,-4.0489,-4.0489,-4.0489,-4.0489,-4.0489,-4.0489,-4.0489,-4.0489,-4.0489,-4.0489,-4.0489,-4.0489,-4.0489,-4.0489,-4.0489,-4.0489,-4.0489,-4.0489,-4.0489,0.0,-1.9823,-1.994,-1.9889,-1.9906,-1.9826,-1.9337,-1.9195,0.0,-1.8861,-1.8858,-1.9014,-1.9332,-1.995,-2.0503,0.0,0.0,0.0,0.0,0.0,0.0,0.0,0.0,0.0,0.0,0.0,0.0,0.0,0.0,0.0,0.0,-3.8707,-3.8707,-3.8707,-3.9423,-3.9808,-3.9808,-4.0671,-4.1075,-4.1038,-4.1075,-4.1111,-4.1111,-4.1111,-4.1111,0.0,0.0,0.0,0.0,-4.1919,-4.2213,-4.2286,-4.3094,-4.3406,-4.3406,-4.3461,-4.3497,-4.3497,-4.3497,-4.3497,-4.3497,-4.3497,-4.3497,-4.3497,-4.3497,-4.3497,-4.3497,-4.3532,-4.3548,-4.3634,-4.3753,-4.3851,-4.3929,-4.4005,-4.4221,-4.4493,-4.4776,-4.5052,-4.5302,-4.555,-4.5586,-4.5336,-4.4528,-4.372,-4.2893,-4.2027,-4.1143,-4.0566,-4.0508,-4.0489,-4.0489,-4.0489,-4.0489,-4.0489,-4.0489,-4.0489,-4.0489,-4.0489,-4.0489,-4.0489,-4.0489,-4.0489,-4.0489,-4.0489,-4.0489,-4.0489,-4.0489,-4.0489,-4.0489,-4.0489,-4.0489,-4.0489,-1.6339,0.0,-1.7398,-1.6817,-1.711,-1.7531,0.0,-1.7679,0.0,0.0,0.0,0.0,0.0,0.0,0.0,0.0,0.0,0.0,0.0,0.0,0.0,0.0,0.0,0.0,0.0,0.0,0.0,0.0,0.0,0.0,0.0,-3.8707,-3.8707,-3.8707,-3.8891,-3.8982,-3.8982,-4.0396,-4.0799,-4.0194,-4.0818,-4.1111,-4.1111,-4.1111,-4.1111,0.0,0.0,0.0,-4.113,-4.1313,-4.1387,-4.1479,-4.2268,-4.258,-4.2653,-4.3259,-4.3497,-4.3497,-4.3497,-4.3497,-4.3497,-4.3497,-4.3497,-4.3497,-4.3497,-4.3497,-4.3532,-4.3548,-4.3667,-4.3753,-4.3851,-4.3929,-4.4017,-4.425,-4.4493,-4.4776,-4.5052,-4.5322,-4.5513,-4.5586,-4.5586,-4.5528,-4.5316,-4.4586,-4.3739,-4.2912,-4.2047,-4.1258,-4.0585,-4.0489,-4.0489,-4.0489,-4.0489,-4.0489,-4.0489,-4.0489,-4.0489,-4.0489,-4.0489,-4.0489,-4.0489,-4.0489,-4.0489,-4.0489,-4.0489,-4.0489,-4.0489,-4.0489,-4.0489,-4.0489,-4.0489,-4.0489,-1.4479,-1.5632,-1.6597,-1.6187,-1.6452,-1.6823,0.0,0.0,0.0,0.0,0.0,0.0,0.0,0.0,0.0,0.0,0.0,0.0,0.0,0.0,0.0,0.0,0.0,0.0,0.0,0.0,0.0,0.0,0.0,0.0,0.0,-3.8707,-3.8707,-3.8707,-3.9056,-3.9074,-3.8707,-3.957,-3.979,-3.935,-3.979,-4.001,-4.001,-4.001,-4.001,0.0,0.0,0.0,-4.0047,-4.0414,-4.0561,-4.0634,-4.1442,-4.1754,-4.1864,-4.2653,-4.2947,-4.3002,-4.3369,-4.3497,-4.3497,-4.3497,-4.3497,-4.3497,-4.3497,-4.3497,-4.3513,-4.3582,-4.3719,-4.3851,-4.4017,-4.4121,-4.425,-4.4519,-4.4776,-4.503,-4.518,-4.5419,-4.5586,-4.5586,-4.5586,-4.5586,-4.5586,-4.4874,-4.4028,-4.322,-4.2354,-4.1489,-4.0604,-4.0489,-4.0489,-4.0489,-4.0489,-4.0489,-4.0489,-4.0489,-4.0489,-4.0489,-4.0489,-4.0489,-4.0489,-4.0489,-4.0489,-4.0489,-4.0489,-4.0489,-4.0489,-4.0489,-4.0489,-4.0489,-4.0489,-4.0489,-1.3718,-1.5248,-1.6693,-1.6472,-1.6693,-1.6967,0.0,0.0,0.0,0.0,0.0,0.0,0.0,0.0,0.0,0.0,0.0,0.0,0.0,0.0,0.0,0.0,0.0,0.0,0.0,0.0,0.0,0.0,0.0,0.0,0.0,-3.8707,-3.8707,-3.8707,-3.935,-3.9386,-3.8707,-3.8817,-3.8817,-3.8707,-3.8707,-3.8707,-3.8707,-3.8707,-3.8707,-3.8707,0.0,0.0,-3.8762,-3.9441,-3.9717,-3.979,-4.0616,-4.0928,-4.102,-4.1827,-4.2121,-4.2231,-4.3039,-4.3387,-4.3497,-4.3497,-4.3497,-4.3497,-4.3497,-4.3532,-4.3582,-4.3682,-4.3749,-4.3929,-4.4279,-4.443,-4.4519,-4.48,-4.503,-4.5222,-4.5243,-4.5438,-4.5586,-4.5586,-4.5586,-4.5586,-4.5586,-4.4989,-4.422,-4.3412,-4.2547,-4.1681,-4.0796,-4.0566,-4.0489,-4.0489,-4.0489,-4.0489,-4.0489,-4.0489,-4.0489,-4.0489,-4.0489,-4.0489,-4.0489,-4.0489,-4.0489,-4.0489,-4.0489,-4.0489,-4.0489,-4.0489,-4.0489,-4.0489,-4.0489,-4.0489,-1.521,-1.6301,-1.6734,-1.5418,-1.6184,-1.7291,0.0,0.0,0.0,0.0,0.0,0.0,0.0,0.0,0.0,0.0,0.0,0.0,0.0,0.0,0.0,0.0,0.0,0.0,0.0,0.0,0.0,0.0,0.0,0.0,0.0,-3.8707,-3.8707,-3.8707,-3.8817,-3.8817,-3.8707,-3.9386,-3.9368,-3.8707,-3.8707,-3.8707,-3.8707,-3.8707,-3.8707,-3.8707,0.0,-3.8707,-3.8707,-3.8836,-3.8891,-3.8964,-3.9772,-4.0084,-4.0175,-4.1001,-4.1295,-4.1405,-4.2213,-4.2928,-4.3497,-4.3497,-4.3497,-4.3497,-4.3497,-4.3682,-4.3955,-4.4091,-4.4121,-4.4221,-4.4546,-4.4676,-4.48,-4.5074,-4.518,-4.5263,-4.5495,-4.5568,-4.5586,-4.5586,-4.5586,-4.5586,-4.5586,-4.549,-4.5105,-4.4239,-4.3412,-4.2585,-4.172,-4.095,-4.0489,-4.0489,-4.0489,-4.0489,-4.0489,-4.0489,-4.0489,-4.0489,-4.0489,-4.0489,-4.0489,-4.0489,-4.0489,-4.0489,-4.0489,-4.0489,-4.0489,-4.0489,-4.0489,-4.0489,-4.0489,-4.0489,-1.4468,-1.5645,-1.6571,-1.6412,-1.7577,-1.8679,0.0,0.0,0.0,0.0,0.0,0.0,0.0,0.0,0.0,0.0,0.0,0.0,0.0,0.0,0.0,0.0,0.0,0.0,0.0,0.0,0.0,0.0,0.0,0.0,-3.8707,-3.8707,-3.8707,-3.8707,-3.8707,-3.8707,-3.8707,-3.9074,-3.9074,-3.8707,-3.8707,-3.8707,-3.8707,-3.8707,-3.8707,-3.8707,0.0,-3.8707,-3.8707,-3.8707,-3.8707,-3.8744,-3.9111,-3.9515,-3.9992,-4.0818,-4.1111,-4.1167,-4.1534,-4.1901,-4.2301,-4.2885,-4.3061,-4.3167,-4.3801,-4.4114,-4.4318,-4.4572,-4.4519,-4.4511,-4.4872,-4.5007,-4.5074,-4.5342,-4.5419,-4.5438,-4.5568,-4.5586,-4.5586,-4.5586,-4.5586,-4.5586,-4.5586,-4.5586,-4.5297,-4.4432,-4.3989,-4.3278,-4.197,-4.145,-4.1027,-4.0546,-4.0489,-4.0489,-4.0489,-4.0489,-4.0489,-4.0489,-4.0489,-4.0489,-4.0489,-4.0489,-4.0489,-4.0489,-4.0489,-4.0489,-4.0489,-4.0489,-4.0489,-4.0489,-4.0489,-4.0489,-1.4069,-1.536,-1.6796,0.0,0.0,0.0,0.0,0.0,0.0,0.0,0.0,0.0,0.0,0.0,0.0,0.0,0.0,0.0,0.0,0.0,0.0,0.0,0.0,0.0,0.0,0.0,0.0,0.0,0.0,0.0,-3.8707,-3.8707,-3.8707,-3.8707,-3.8707,-3.8707,-3.8707,-3.8707,-3.8707,-3.8707,-3.8707,-3.8707,-3.8707,-3.8707,-3.8707,-3.8707,-3.8707,-3.8707,-3.8707,-3.8707,-3.8707,-3.8707,-3.8707,-3.9184,-3.9937,-4.0396,-4.0799,-4.1075,-4.0891,-4.0946,-4.1236,-4.2057,-4.2465,-4.2755,-4.3629,-4.4149,-4.4465,-4.4825,-4.48,-4.4819,-4.5201,-4.5283,-4.5342,-4.555,-4.5586,-4.5586,-4.5586,-4.5586,-4.5586,-4.5586,-4.5586,-4.5586,-4.5586,-4.5586,-4.5355,-4.4701,-4.4432,-4.3835,-4.2547,-4.222,-4.1854,-4.1181,-4.0931,-4.0719,-4.0508,-4.0489,-4.0489,-4.0489,-4.0489,-4.0489,-4.0489,-4.0489,-4.0489,-4.0489,-4.0489,-4.0489,-4.0489,-4.0489,-4.0489,-4.0489,-4.0489,-4.0489,-1.5571,-1.6778,-1.7821,-1.8747,0.0,0.0,0.0,0.0,0.0,0.0,0.0,0.0,0.0,0.0,0.0,0.0,0.0,0.0,0.0,0.0,0.0,0.0,0.0,0.0,0.0,0.0,0.0,0.0,0.0,0.0,-3.8707,-3.8707,-3.8707,-3.8707,-3.8707,-3.8707,-3.8707,-3.8707,-3.8707,-3.8707,-3.8707,-3.8707,-3.8707,-3.8707,-3.8707,-3.8707,-3.8707,-3.8707,-3.8707,-3.8707,-3.8707,-3.8707,-3.8707,-3.9184,-3.9808,-3.9129,-3.9827,-4.1001,-4.0249,-4.0487,-4.1111,-4.1199,-4.1713,-4.232,-4.2426,-4.3235,-4.4192,-4.4546,-4.4849,-4.514,-4.5495,-4.5568,-4.5568,-4.5605,-4.5586,-4.5586,-4.5586,-4.5586,-4.5586,-4.5586,-4.5586,-4.5586,-4.5586,-4.5586,-4.5566,-4.5509,-4.4816,-4.4259,-4.4143,-4.347,-4.2989,-4.2912,-4.22,-4.1373,-4.0566,-4.0489,-4.0489,-4.0489,-4.0489,-4.0489,-4.0489,-4.0489,-4.0489,-4.0489,-4.0489,-4.0489,-4.0489,-4.0489,-4.0489,-4.0489,-4.0489,-4.0489,-1.4502,-1.6173,-1.7802,0.0,0.0,0.0,0.0,0.0,0.0,0.0,0.0,0.0,0.0,0.0,0.0,0.0,0.0,0.0,0.0,0.0,0.0,0.0,0.0,0.0,0.0,0.0,0.0,0.0,0.0,0.0,0.0,-3.8707,-3.8707,-3.8707,-3.8707,-3.8707,-3.8707,-3.8707,-3.8707,-3.8707,-3.8707,-3.8707,-3.8707,-3.8707,-3.8707,-3.8707,-3.8707,-3.8707,-3.8707,-3.8707,-3.8707,-3.8762,-3.9239,-3.9331,-3.9239,-3.9955,-4.0267,-4.0304,-4.001,-4.0102,-4.0373,-4.0554,-4.0929,-4.1437,-4.2154,-4.2825,-4.3494,-4.4157,-4.4478,-4.4767,-4.5433,-4.5586,-4.5586,-4.5586,-4.5586,-4.5586,-4.5586,-4.5586,-4.5586,-4.5586,-4.5586,-4.5586,-4.5586,-4.5586,-4.5586,-4.5586,-4.5316,-4.4913,-4.4374,-4.4028,-4.3643,-4.3143,-4.2316,-4.145,-4.0566,-4.0489,-4.0489,-4.0489,-4.0489,-4.0489,-4.0489,-4.0489,-4.0489,-4.0489,-4.0489,-4.0489,-4.0489,-4.0489,-4.0489,-4.0489,-4.0489,-4.0489,-1.4259,-1.5987,-1.7851,0.0,0.0,0.0,0.0,0.0,0.0,0.0,0.0,0.0,0.0,0.0,0.0,0.0,0.0,0.0,0.0,0.0,0.0,0.0,0.0,0.0,0.0,0.0,0.0,0.0,0.0,0.0,0.0,-3.7936,-3.7936,-3.7936,-3.7936,-3.7936,-3.7936,-3.7936,-3.8065,-3.8322,-3.8322,-3.845,-3.8707,-3.8707,-3.8707,-3.8707,-3.8707,-3.8707,-3.8707,-3.8707,-3.8707,-3.8762,-3.9313,-3.9331,-3.9184,-4.0029,-4.0157,-3.9845,-3.9606,-3.9515,-3.9577,-3.9833,-4.0234,-4.072,-4.1599,-4.2237,-4.2792,-4.3483,-4.3924,-4.4342,-4.501,-4.5393,-4.5586,-4.5586,-4.5586,-4.5586,-4.5586,-4.5586,-4.5586,-4.5586,-4.5586,-4.5586,-4.5586,-4.5586,-4.5586,-4.5586,-4.5586,-4.5374,-4.4778,-4.4701,-4.4297,-4.322,-4.2566,-4.1758,-4.0585,-4.0489,-4.0489,-4.0489,-4.0489,-4.0489,-4.0489,-4.0489,-4.0489,-4.0489,-4.0489,-4.0489,-4.0489,-4.0489,-4.0489,-4.0489,-4.0489,-4.0489,-1.53,-1.6571,0.0,0.0,0.0,0.0,0.0,0.0,0.0,0.0,0.0,0.0,0.0,0.0,0.0,0.0,0.0,0.0,0.0,0.0,0.0,0.0,0.0,0.0,0.0,0.0,0.0,0.0,0.0,0.0,0.0,-3.6303,-3.6303,-3.6303,-3.6303,-3.6303,-3.6303,-3.6303,-3.6688,-3.7477,-3.7477,-3.79,-3.8707,-3.8707,-3.8707,-3.8707,-3.8707,-3.8707,-3.8707,-3.8707,-3.8707,-3.8707,-3.8707,-3.9184,-3.979,-3.9001,-3.9221,-3.9772,-3.8982,-3.8707,-3.8768,-3.9036,-3.964,-4.0347,-4.0619,-4.1337,-4.2127,-4.2408,-4.315,-4.3942,-4.4226,-4.4932,-4.5566,-4.5586,-4.5586,-4.5586,-4.5586,-4.5586,-4.5586,-4.5586,-4.5586,-4.5586,-4.5586,-4.5586,-4.5586,-4.5586,-4.5586,-4.5586,-4.5586,-4.5586,-4.4951,-4.3278,-4.3104,-4.2393,-4.0642,-4.0489,-4.0489,-4.0489,-4.0489,-4.0489,-4.0489,-4.0489,-4.0489,-4.0489,-4.0489,-4.0489,-4.0489,-4.0489,-4.0489,-4.0489,-4.0489,-4.0489,-1.4467,0.0,0.0,0.0,0.0,0.0,0.0,0.0,0.0,0.0,0.0,0.0,0.0,0.0,0.0,0.0,0.0,0.0,0.0,0.0,0.0,0.0,0.0,0.0,0.0,0.0,0.0,0.0,0.0,0.0,0.0,-3.6303,-3.6303,-3.6303,-3.6303,-3.6303,-3.6303,-3.6303,-3.6413,-3.6652,-3.6652,-3.7367,-3.8707,-3.8707,-3.8707,-3.8707,-3.8707,-3.8707,-3.8707,-3.8707,-3.8707,-3.8707,-3.8707,-3.8854,-3.9093,-3.9423,-3.9817,-4.0145,-3.9904,-3.9955,-4.0029,-3.9537,-3.9677,-4.0028,-4.0098,-4.0447,-4.0977,-4.1666,-4.2106,-4.2525,-4.3209,-4.359,-4.407,-4.5316,-4.5586,-4.5586,-4.5586,-4.5586,-4.5586,-4.5586,-4.5586,-4.5586,-4.5586,-4.5586,-4.5586,-4.5586,-4.5586,-4.5586,-4.5586,-4.5586,-4.4951,-4.3278,-4.3104,-4.2393,-4.0642,-4.0489,-4.0489,-4.0489,-4.0489,-4.0489,-4.0489,-4.0489,-4.0489,-4.0489,-4.0489,-4.0489,-4.0489,-4.0489,-4.0489,-4.0489,-4.0489,-4.0489,0.0,0.0,0.0,0.0,0.0,0.0,0.0,0.0,0.0,0.0,0.0,0.0,0.0,0.0,0.0,0.0,0.0,0.0,0.0,0.0,0.0,0.0,0.0,0.0,0.0,0.0,0.0,0.0,0.0,0.0,0.0,-3.5312,-3.5312,-3.5312,-3.5312,-3.5312,-3.5312,-3.5312,-3.5477,-3.5789,-3.5789,-3.6468,-3.7753,-3.7753,-3.7918,-3.823,-3.856,-3.8707,-3.8707,-3.8707,-3.8707,-3.8707,-3.884,-3.8851,-3.8936,-3.9515,-3.9854,-3.9973,-3.9973,-4.008,-4.0159,-3.9774,-3.9762,-3.9914,-4.0017,-4.0177,-4.0403,-4.0939,-4.1375,-4.1812,-4.2345,-4.2746,-4.3302,-4.4355,-4.4605,-4.4605,-4.4605,-4.4605,-4.4605,-4.4605,-4.4855,-4.5066,-4.5066,-4.5355,-4.5586,-4.5586,-4.5297,-4.497,-4.4643,-4.4605,-4.4085,-4.2739,-4.2585,-4.2027,-4.0604,-4.0489,-4.0489,-4.0489,-4.0489,-4.0489,-4.0489,-4.0489,-4.0489,-4.0489,-4.0489,-4.0489,-4.0489,-4.0489,-4.0489,-4.0489,-4.0489,-4.0489,0.0,0.0,0.0,0.0,0.0,0.0,0.0,0.0,0.0,0.0,0.0,0.0,0.0,0.0,0.0,0.0,0.0,0.0,0.0,0.0,0.0,0.0,0.0,0.0,0.0,0.0,0.0,0.0,0.0,0.0,0.0,-3.3807,-3.3807,-3.3807,-3.3807,-3.3807,-3.3807,-3.3807,-3.4174,-3.488,-3.488,-3.5312,-3.6083,-3.6229,-3.6688,-3.7452,-3.823,-3.8597,-3.8597,-3.8701,-3.8738,-3.875,-3.9017,-3.9156,-3.9183,-3.9427,-3.9526,-3.9551,-3.9551,-3.9532,-3.9623,-3.987,-3.9935,-3.9996,-4.0234,-4.0291,-4.0307,-4.0307,-4.0896,-4.1577,-4.1577,-4.2225,-4.2874,-4.2854,-4.2989,-4.3104,-4.3104,-4.3104,-4.3104,-4.3104,-4.3682,-4.4182,-4.4182,-4.4855,-4.5355,-4.5355,-4.4701,-4.3932,-4.3181,-4.3104,-4.2777,-4.1893,-4.1797,-4.145,-4.0566,-4.0489,-4.0489,-4.0489,-4.0489,-4.0489,-4.0489,-4.0489,-4.0489,-4.0489,-4.0489,-4.0489,-4.0489,-4.0489,-4.0489,-4.0489,-4.0489,-4.0489,0.0,0.0,0.0,0.0,0.0,0.0,0.0,0.0,0.0,0.0,0.0,0.0,0.0,0.0,0.0,0.0,0.0,0.0,0.0,0.0,0.0,0.0,0.0,0.0,0.0,0.0,0.0,0.0,0.0,0.0,-3.3807,-3.3807,-3.3807,-3.3807,-3.3807,-3.3807,-3.3807,-3.3807,-3.3899,0.0,-3.4064,-3.4156,-3.4376,-3.5697,-3.6376,-3.6597,-3.7404,-3.7753,-3.7819,-3.8662,-3.9017,-3.9045,-3.9324,-3.9408,-3.9427,-3.9477,-3.9628,-3.9807,-3.9807,-3.9954,-4.0137,-4.0215,-4.0196,-4.0215,-4.0272,-4.0291,-4.031,-4.031,-4.0442,-4.0611,-4.0665,-4.0869,-4.1072,-4.1066,-4.2104,-4.3104,-4.3104,-4.3104,-4.3104,-4.3104,-4.3239,-4.3355,-4.3355,-4.3508,-4.3643,-4.3643,-4.347,-4.3297,-4.3124,-4.3104,-4.2777,-4.1893,-4.1797,-4.145,-4.0566,-4.0489,-4.0489,-4.0489,-4.0489,-4.0489,-4.0489,-4.0489,-4.0489,-4.0489,-4.0489,-4.0489,-4.0489,-4.0489,-4.0489,-4.0489,-4.0489,-4.0489,0.0,0.0,0.0,0.0,0.0,0.0,0.0,0.0,0.0,0.0,0.0,0.0,0.0,0.0,0.0,0.0,0.0,0.0,0.0,0.0,0.0,0.0,0.0,0.0,0.0,0.0,0.0,0.0,0.0,-3.3238,-3.3238,-3.3587,-3.3807,-3.3807,-3.3807,-3.3807,-3.3807,-3.3807,-3.3807,-3.3807,-3.3807,-3.3807,-3.3844,-3.511,-3.5679,-3.5734,-3.656,-3.7216,-3.771,-3.8303,-3.883,-3.9324,-3.9599,-3.9693,-3.9717,-3.9848,-3.9975,-4.0098,-4.0098,-4.0176,-4.031,-4.031,-4.031,-4.031,-4.031,-4.031,-4.031,-4.0291,-4.0326,-4.0362,-4.0432,-4.0463,-4.0511,-4.0508,-4.1181,-4.1854,-4.1854,-4.1854,-4.1854,-4.1854,-4.2181,-4.2489,-4.2489,-4.2816,-4.297,-4.2547,-4.2489,-4.2335,-4.1912,-4.1854,-4.1681,-4.1219,-4.1181,-4.0989,-4.0527,-4.0489,-4.0489,-4.0489,-4.0489,-4.0489,-4.0489,-4.0489,-4.0489,-4.0489,-4.0489,-4.0489,-4.0489,-4.0489,-4.0489,-4.0489,-4.0489,-4.0534,0.0,0.0,0.0,0.0,0.0,0.0,0.0,0.0,0.0,0.0,0.0,0.0,0.0,0.0,0.0,0.0,0.0,0.0,0.0,0.0,0.0,0.0,0.0,0.0,0.0,0.0,0.0,0.0,0.0,-3.2394,-3.2394,-3.3018,-3.344,-3.3587,-3.3587,-3.366,-3.3807,-3.3807,-3.3807,-3.3807,-3.3807,-3.3807,-3.3825,-3.4504,-3.477,-3.4825,-3.5697,-3.6574,-3.7431,-3.7642,-3.8271,-3.9094,-3.9564,-3.9747,-3.9787,-4.0177,-4.031,-4.031,-4.031,-4.031,-4.031,-4.031,-4.031,-4.031,-4.031,-4.031,-4.0291,-4.0289,-4.0362,-4.0415,-4.0485,-4.0495,-4.0489,-4.0489,-4.0489,-4.0489,-4.0489,-4.0489,-4.0489,-4.0489,-4.1085,-4.1585,-4.1585,-4.2162,-4.2412,-4.1681,-4.1585,-4.1316,-4.0585,-4.0489,-4.0489,-4.0489,-4.0489,-4.0489,-4.0489,-4.0489,-4.0489,-4.0489,-4.0489,-4.0489,-4.0489,-4.0489,-4.0489,-4.0489,-4.0489,-4.0489,-4.0489,-4.0489,-4.0489,-4.0489,-4.0519,-4.0588,0.0,0.0,0.0,0.0,0.0,0.0,0.0,0.0,0.0,0.0,0.0,0.0,0.0,0.0,0.0,0.0,0.0,0.0,0.0,0.0,0.0,0.0,0.0,0.0,0.0,0.0,0.0,0.0,-3.1494,-3.1549,-3.1549,-3.1659,-3.2045,-3.2742,-3.2761,-3.3091,-3.3788,-3.3807,-3.3807,-3.3807,-3.3807,-3.3807,-3.3807,-3.3917,-3.3972,-3.4009,-3.4835,-3.5238,-3.5469,-3.6634,-3.7207,-3.7445,-3.865,-3.9127,-3.9223,-4.0005,-4.031,-4.031,-4.031,-4.031,-4.031,-4.031,-4.031,-4.031,-4.031,-4.031,-4.0291,-4.0289,-4.0362,-4.0415,-4.0485,-4.0495,-4.0489,-4.0489,-4.0489,-4.0489,-4.0489,-4.0489,-4.0489,-4.0489,-4.0585,-4.0662,-4.0662,-4.0758,-4.0796,-4.0681,-4.0662,-4.0623,-4.0508,-4.0489,-4.0489,-4.0489,-4.0489,-4.0489,-4.0489,-4.0489,-4.0489,-4.0489,-4.0489,-4.0489,-4.0489,-4.0489,-4.0489,-4.0489,-4.0489,-4.0489,-4.0489,-4.0489,-4.0489,-4.0504,-4.0615,-4.0681,0.0,0.0,0.0,0.0,0.0,0.0,0.0,0.0,0.0,0.0,0.0,0.0,0.0,0.0,0.0,0.0,0.0,0.0,0.0,0.0,0.0,0.0,0.0,0.0,0.0,0.0,0.0,0.0,-3.0467,-3.0723,-3.0723,-3.1146,-3.1549,-3.1916,-3.1935,-3.232,-3.3128,-3.3128,-3.3348,-3.3807,-3.3807,-3.3807,-3.3807,-3.3807,-3.3807,-3.3825,-3.4174,-3.4659,-3.5269,-3.5857,-3.6461,-3.7073,-3.781,-3.8404,-3.8899,-3.9395,-3.989,-4.031,-4.031,-4.031,-4.031,-4.031,-4.031,-4.031,-4.031,-4.031,-4.0308,-4.0344,-4.0396,-4.0466,-4.0495,-4.0492,-4.0489,-4.0489,-4.0489,-4.0489,-4.0489,-4.0489,-4.0489,-4.0489,-4.0489,-4.0489,-4.0489,-4.0489,-4.0489,-4.0489,-4.0489,-4.0489,-4.0489,-4.0489,-4.0489,-4.0489,-4.0489,-4.0489,-4.0489,-4.0489,-4.0489,-4.0489,-4.0489,-4.0489,-4.0489,-4.0489,-4.0489,-4.0489,-4.0489,-4.0489,-4.0489,-4.0489,-4.0534,-4.0602,-4.0668,-4.0757,0.0,0.0,0.0,0.0,0.0,0.0,0.0,0.0,0.0,0.0,0.0,0.0,0.0,0.0,0.0,0.0,0.0,0.0,0.0,0.0,0.0,0.0,0.0,0.0,0.0,0.0,0.0,0.0,-2.9567,-2.9898,-2.9898,-3.0467,-3.087,-3.1091,-3.1091,-3.1476,-3.2302,-3.2504,-3.2999,-3.3807,-3.3807,-3.3807,-3.3807,-3.3807,-3.386,-3.3895,-3.3815,-3.4305,-3.5095,-3.515,-3.5693,-3.6521,-3.6994,-3.7566,-3.8175,-3.8536,-3.9221,-3.9947,-3.9718,-3.9928,-4.0272,-4.0043,-3.9966,-3.9966,-3.9986,-4.0003,-4.0018,-4.0089,-4.0277,-4.0499,-4.0508,-4.0489,-4.0489,-4.0489,-4.0489,-4.0489,-4.0489,-4.0489,-4.0489,-4.0489,-4.0489,-4.0489,-4.0489,-4.0489,-4.0489,-4.0489,-4.0489,-4.0489,-4.0489,-4.0489,-4.0489,-4.0489,-4.0489,-4.0489,-4.0489,-4.0489,-4.0489,-4.0489,-4.0489,-4.0489,-4.0489,-4.0489,-4.0489,-4.0489,-4.0489,-4.0489,-4.0489,-4.0534,-4.0602,-4.0694,-4.0711,-4.0811,0.0,0.0,0.0,0.0,0.0,0.0,0.0,0.0,0.0,0.0,0.0,0.0,0.0,0.0,0.0,0.0,0.0,0.0,0.0,0.0,0.0,0.0,0.0,0.0,0.0,0.0,0.0,0.0,-2.903,-2.9049,-2.9049,-2.9085,-2.9475,-3.0246,-3.0265,-3.065,-3.1439,-3.2228,-3.2999,-3.3807,-3.3807,-3.3807,-3.3807,-3.3807,-3.3947,-3.4173,-3.3895,-3.3983,-3.4277,-3.4473,-3.4747,-3.5097,-3.6136,-3.6568,-3.6721,-3.7483,-3.8323,-3.8954,-3.8113,-3.8916,-4.0157,-3.9336,-3.9069,-3.9069,-3.9141,-3.9159,-3.9193,-3.924,-3.9868,-4.0499,-4.0508,-4.0489,-4.0489,-4.0489,-4.0489,-4.0489,-4.0489,-4.0489,-4.0489,-4.0489,-4.0489,-4.0489,-4.0489,-4.0489,-4.0489,-4.0489,-4.0489,-4.0489,-4.0489,-4.0489,-4.0489,-4.0489,-4.0489,-4.0489,-4.0489,-4.0489,-4.0489,-4.0489,-4.0489,-4.0489,-4.0489,-4.0489,-4.0489,-4.0489,-4.0489,-4.0489,-4.0489,-4.0629,-4.0694,-4.0694,-4.077,-4.0874,0.0,0.0,0.0,0.0,0.0,0.0,0.0,0.0,0.0,0.0,0.0,0.0,0.0,0.0,0.0,0.0,0.0,0.0,0.0,0.0,0.0,0.0,0.0,0.0,0.0,0.0,0.0,0.0,0.0,-2.8994,-2.8994,-2.8994,-2.9122,-2.9439,-2.9439,-2.9824,-3.0613,-3.1421,-3.1971,-3.2247,-3.2247,-3.2522,-3.3036,-3.3036,-3.3467,-3.4197,-3.4099,-3.4179,-3.4416,-3.4464,-3.4551,-3.4711,-3.5268,-3.5798,-3.6293,-3.6762,-3.7445,-3.8113,-3.7808,-3.8476,-3.9412,-3.9107,-3.9374,-3.9737,-3.9256,-3.9099,-3.9095,-3.918,-3.9461,-3.9858,-4.0373,-4.0489,-4.0489,-4.0489,-4.0489,-4.0489,-4.0489,-4.0489,-4.0489,-4.0489,-4.0489,-4.0489,-4.0489,-4.0489,-4.0681,-4.1258,-4.0854,-4.07,-4.1258,-4.0854,-4.0489,-4.0489,-4.0489,-4.0489,-4.0489,-4.0489,-4.0489,-4.0489,-4.0489,-4.0489,-4.0489,-4.0489,-4.0489,-4.0489,-4.0489,-4.0489,-4.0489,-4.0549,-4.0635,-4.0694,-4.0723,-4.082,0.0,0.0,0.0,0.0,0.0,0.0,0.0,0.0,0.0,0.0,0.0,0.0,0.0,0.0,0.0,0.0,0.0,0.0,0.0,0.0,0.0,0.0,0.0,0.0,0.0,0.0,0.0,0.0,0.0,0.0,-2.8975,-2.8994,-2.8994,-2.8994,-2.8994,-2.9402,-3.0191,-3.0723,-3.1127,-3.1384,-3.1384,-3.1678,-3.221,-3.221,-3.2785,-3.3788,-3.3864,-3.4195,-3.4632,-3.4632,-3.4655,-3.4735,-3.4945,-3.5324,-3.5817,-3.5999,-3.6585,-3.7254,-3.6967,-3.7808,-3.8954,-3.8667,-3.9182,-3.9812,-3.9254,-3.8903,-3.878,-3.9119,-3.9281,-3.9488,-4.0277,-4.0489,-4.0489,-4.0489,-4.0489,-4.0489,-4.0489,-4.0489,-4.0489,-4.0489,-4.0489,-4.0489,-4.0489,-4.0489,-4.07,-4.1277,-4.0873,-4.07,-4.1296,-4.0854,-4.0489,-4.0489,-4.0489,-4.0489,-4.0489,-4.0489,-4.0489,-4.0489,-4.0489,-4.0489,-4.0489,-4.0489,-4.0489,-4.0489,-4.0489,-4.0489,-4.0489,-4.0549,-4.0602,-4.0694,-4.0723,-4.084,0.0,0.0,0.0,0.0,0.0,0.0,0.0,0.0,0.0,0.0,0.0,0.0,0.0,0.0,0.0,0.0,0.0,0.0,0.0,0.0,0.0,0.0,0.0,0.0,0.0,0.0,0.0,0.0,-2.775,-2.8117,-2.8883,-2.8938,-2.8975,-2.8994,-2.8994,-2.9384,-3.0173,-3.0173,-3.0558,-3.1329,-3.1329,-3.1329,-3.1347,-3.1347,-3.1937,-3.2976,-3.3203,-3.3901,-3.4889,-3.4889,-3.5037,-3.5209,-3.5209,-3.5209,-3.5209,-3.5209,-3.5744,-3.6356,-3.5496,-3.6852,-3.8801,-3.7941,-3.8301,-3.9099,-3.9076,-3.853,-3.8136,-3.9031,-3.9296,-3.9488,-4.0277,-4.0489,-4.0489,-4.0489,-4.0489,-4.0489,-4.0489,-4.0489,-4.0489,-4.0489,-4.0489,-4.0489,-4.0489,-4.0489,-4.0508,-4.0527,-4.0527,-4.0527,-4.0527,-4.0527,-4.0527,-4.0489,-4.0489,-4.0489,-4.0489,-4.0489,-4.0489,-4.0489,-4.0489,-4.0489,-4.0489,-4.0489,-4.0489,-4.0489,-4.0489,-4.0489,-4.0489,-4.0629,-4.0694,-4.0694,-4.078,-4.0882,-1.4293,0.0,0.0,0.0,0.0,0.0,0.0,0.0,0.0,0.0,0.0,0.0,0.0,0.0,0.0,0.0,0.0,0.0,0.0,0.0,0.0,0.0,0.0,0.0,0.0,0.0,0.0,0.0,-2.6924,-2.7034,-2.7255,-2.7824,-2.8411,-2.8975,-2.8994,-2.9104,-2.9347,-2.9347,-2.9457,-2.9659,-2.9659,-2.9971,-3.0522,-3.0522,-3.1182,-3.2379,-3.3023,-3.3658,-3.4304,-3.4895,-3.5141,-3.5209,-3.5209,-3.5209,-3.5209,-3.5209,-3.5362,-3.5534,-3.5286,-3.6069,-3.7158,-3.691,-3.7827,-3.8932,-3.8336,-3.8443,-3.8837,-3.9138,-3.9262,-3.9488,-4.0277,-4.0489,-4.0489,-4.0489,-4.0489,-4.0489,-4.0489,-4.0489,-4.0489,-4.0489,-4.0489,-4.0489,-4.0489,-4.0489,-4.07,-4.1354,-4.145,-4.145,-4.145,-4.145,-4.12,-4.0566,-4.0489,-4.0489,-4.0489,-4.0489,-4.0489,-4.0489,-4.0489,-4.0489,-4.0489,-4.0489,-4.0489,-4.0489,-4.0489,-4.0489,-4.0489,-4.0534,-4.0564,-4.0564,-4.0718,-4.0882,0.0,0.0,0.0,0.0,0.0,0.0,0.0,0.0,0.0,0.0,0.0,0.0,0.0,0.0,0.0,0.0,0.0,0.0,0.0,0.0,0.0,0.0,0.0,0.0,0.0,-2.5603,-2.575,-2.6062,-2.6098,-2.6245,-2.6594,-2.7034,-2.7512,-2.7967,-2.8007,-2.8172,-2.8503,-2.8503,-2.8686,-2.8994,-2.8994,-2.9283,-2.982,-2.982,-3.0463,-3.1598,-3.2165,-3.2958,-3.3889,-3.4451,-3.4904,-3.5209,-3.5209,-3.5209,-3.5209,-3.5209,-3.5209,-3.5209,-3.5209,-3.5783,-3.6491,-3.6491,-3.7653,-3.8951,-3.8489,-3.8731,-3.924,-3.9621,-3.9765,-3.9912,-4.0373,-4.0489,-4.0489,-4.0489,-4.0489,-4.0489,-4.0489,-4.0489,-4.0489,-4.0489,-4.0489,-4.0489,-4.0489,-4.0489,-4.0662,-4.1181,-4.1258,-4.1258,-4.1258,-4.1258,-4.1066,-4.0546,-4.0489,-4.0489,-4.0489,-4.0489,-4.0489,-4.0489,-4.0489,-4.0489,-4.0489,-4.0489,-4.0489,-4.0489,-4.0489,-4.0534,-4.0574,-4.0534,-4.0545,-4.063,-4.0801,-4.0948,-1.5632,-1.5632,0.0,0.0,0.0,0.0,-1.724,-1.7092,0.0,0.0,0.0,0.0,0.0,0.0,0.0,0.0,0.0,0.0,0.0,0.0,0.0,0.0,0.0,0.0,-2.4061,-2.4061,-2.4392,-2.5219,-2.5274,-2.5603,-2.6429,-2.6465,-2.6521,-2.6612,-2.6612,-2.6943,-2.7658,-2.775,-2.8176,-2.8893,-2.8984,-2.9138,-2.9334,-2.9334,-2.9847,-3.0716,-3.1049,-3.2026,-3.339,-3.3808,-3.4464,-3.5209,-3.5209,-3.5209,-3.5209,-3.5209,-3.5209,-3.5209,-3.5209,-3.5706,-3.6375,-3.6375,-3.7536,-3.8929,-3.8929,-3.9114,-3.9487,-4.0271,-4.0495,-4.0489,-4.0489,-4.0489,-4.0489,-4.0489,-4.0489,-4.0489,-4.0489,-4.0489,-4.0489,-4.0489,-4.0489,-4.0489,-4.0489,-4.0489,-4.0489,-4.0489,-4.0566,-4.0604,-4.0508,-4.0566,-4.0604,-4.0508,-4.0489,-4.0489,-4.0489,-4.0489,-4.0489,-4.0489,-4.0489,-4.0489,-4.0489,-4.0489,-4.0489,-4.0489,-4.0519,-4.0574,-4.0694,-4.0574,-4.0636,-4.0829,-4.094,-4.1047,-1.6476,-1.6476,-1.6349,-1.5863,0.0,0.0,-1.5375,-1.5882,0.0,0.0,0.0,0.0,0.0,0.0,0.0,0.0,0.0,0.0,0.0,0.0,0.0,0.0,0.0,0.0,-2.318,-2.3235,-2.3566,-2.4373,-2.4428,-2.4777,-2.5585,-2.5621,-2.5933,-2.6594,-2.6612,-2.6686,-2.6833,-2.7475,-2.7969,-2.8285,-2.8934,-2.9355,-2.9551,-2.9551,-2.9738,-3.0122,-3.0871,-3.1428,-3.1955,-3.3398,-3.4464,-3.5209,-3.5209,-3.5209,-3.5209,-3.5209,-3.5209,-3.5209,-3.5209,-3.5305,-3.5458,-3.5458,-3.6585,-3.7978,-3.7978,-3.9004,-4.0202,-4.0438,-4.0508,-4.0489,-4.0489,-4.0489,-4.0489,-4.0489,-4.0489,-4.0489,-4.0489,-4.0489,-4.0489,-4.0489,-4.0489,-4.0489,-4.0489,-4.0489,-4.0489,-4.0489,-4.1104,-4.1296,-4.0585,-4.1104,-4.1277,-4.0566,-4.0489,-4.0489,-4.0489,-4.0489,-4.0489,-4.0489,-4.0489,-4.0489,-4.0489,-4.0489,-4.0489,-4.0489,-4.0621,-4.0668,-4.0694,-4.0668,-4.0768,-4.0954,-4.0987,-4.1047,-1.7418,-1.7309,-1.7201,-1.6805,0.0,0.0,0.0,0.0,0.0,0.0,0.0,0.0,0.0,0.0,0.0,0.0,0.0,0.0,0.0,0.0,0.0,0.0,0.0,0.0,-2.2354,-2.2391,-2.274,-2.3547,-2.3602,-2.3951,-2.4759,-2.4795,-2.4979,-2.5383,-2.5401,-2.5603,-2.5988,-2.6392,-2.6859,-2.735,-2.8162,-2.87,-2.9025,-2.942,-2.9769,-3.0068,-3.0506,-3.0971,-3.1484,-3.2382,-3.3471,-3.4636,-3.5037,-3.5209,-3.5209,-3.5209,-3.5209,-3.5209,-3.5209,-3.5209,-3.5209,-3.5209,-3.6069,-3.7177,-3.7632,-3.9021,-4.0466,-4.0492,-4.0489,-4.0489,-4.0489,-4.0489,-4.0489,-4.0489,-4.0489,-4.0489,-4.0489,-4.0489,-4.0489,-4.0489,-4.0489,-4.0489,-4.0489,-4.0489,-4.0489,-4.0489,-4.0873,-4.0989,-4.0546,-4.0873,-4.0969,-4.0546,-4.0489,-4.0489,-4.0489,-4.0489,-4.0489,-4.0489,-4.0489,-4.0489,-4.0489,-4.0489,-4.0534,-4.0588,-4.0668,-4.0754,-4.0849,-4.0849,-4.0894,-4.0994,-4.1022,-4.107,0.0,0.0,0.0,0.0,0.0,-1.7201,0.0,0.0,0.0,0.0,0.0,0.0,0.0,0.0,0.0,0.0,0.0,0.0,0.0,0.0,0.0,0.0,0.0,0.0,0.0,-2.1547,-2.1896,-2.2721,-2.2611,-2.2887,-2.3694,-2.3878,-2.3969,-2.3969,-2.4116,-2.4502,-2.5164,-2.5329,-2.5754,-2.6436,-2.7393,-2.8046,-2.8422,-2.9286,-2.982,-3.0142,-3.0171,-3.0567,-3.1197,-3.1408,-3.2306,-3.3624,-3.4598,-3.5057,-3.5209,-3.5209,-3.5209,-3.5209,-3.5209,-3.5209,-3.5209,-3.5209,-3.5897,-3.6927,-3.78,-3.9224,-4.0499,-4.0508,-4.0489,-4.0489,-4.0489,-4.0489,-4.0489,-4.0489,-4.0489,-4.0489,-4.0489,-4.0489,-4.0489,-4.0489,-4.0489,-4.0489,-4.0489,-4.0489,-4.0489,-4.0489,-4.0489,-4.0489,-4.0489,-4.0489,-4.0489,-4.0489,-4.0489,-4.0489,-4.0489,-4.0489,-4.0489,-4.0489,-4.0489,-4.0489,-4.0489,-4.0519,-4.0588,-4.0694,-4.0742,-4.084,-4.0994,-4.1006,-4.1011,-4.1011,-4.1074,-4.1108,0.0,0.0,0.0,0.0,-1.8888,0.0,0.0,0.0,0.0,0.0,0.0,0.0,0.0,0.0,0.0,0.0,0.0,0.0,0.0,0.0,0.0,0.0,0.0,0.0,0.0,-2.0649,-2.1015,-2.1859,-2.1216,-2.1161,-2.2041,-2.2758,-2.3144,-2.3144,-2.3823,-2.4245,-2.4337,-2.5054,-2.5538,-2.582,-2.7342,-2.8165,-2.8422,-2.9408,-2.9888,-2.9937,-3.0128,-3.0242,-3.0395,-3.1178,-3.1618,-3.1943,-3.3509,-3.456,-3.5209,-3.5209,-3.5209,-3.5209,-3.5209,-3.5209,-3.5209,-3.5209,-3.6296,-3.7819,-3.8764,-3.9717,-4.0499,-4.0508,-4.0489,-4.0489,-4.0489,-4.0489,-4.0489,-4.0489,-4.0489,-4.0489,-4.0489,-4.0489,-4.0489,-4.0489,-4.0489,-4.0489,-4.0489,-4.0489,-4.0489,-4.0489,-4.0489,-4.0489,-4.0489,-4.0489,-4.0489,-4.0489,-4.0489,-4.0489,-4.0489,-4.0489,-4.0489,-4.0489,-4.0489,-4.0489,-4.0489,-4.0602,-4.0681,-4.0694,-4.0876,-4.0974,-4.0994,-4.1066,-4.1081,-4.1085,-4.1108,-4.1108,0.0,0.0,0.0,0.0,0.0,0.0,-1.5578,0.0,-1.5248,0.0,0.0,0.0,0.0,0.0,0.0,0.0,0.0,0.0,0.0,0.0,0.0,0.0,0.0,0.0,0.0,0.0,0.0,0.0,-2.028,-2.0391,-2.1729,-2.2116,-2.252,-2.2997,-2.3327,-2.3731,-2.419,-2.452,-2.4744,-2.4838,-2.6061,-2.7009,-2.7744,-2.8688,-2.9497,-3.0064,-3.0157,-3.0204,-3.0223,-3.0586,-3.1045,-3.1618,-3.2783,-3.3757,-3.456,-3.5037,-3.5209,-3.5209,-3.5209,-3.5209,-3.5209,-3.5261,-3.6441,-3.7926,-3.8335,-3.9404,-4.0511,-4.0508,-4.0489,-4.0489,-4.0489,-4.0489,-4.0489,-4.0489,-4.0489,-4.0489,-4.0489,-4.0489,-4.0489,-4.0489,-4.0489,-4.0489,-4.0489,-4.0489,-4.0489,-4.0489,-4.0489,-4.0489,-4.0489,-4.0489,-4.0489,-4.0489,-4.0489,-4.0489,-4.0489,-4.0489,-4.0489,-4.0489,-4.0489,-4.0489,-4.0489,-4.0629,-4.0711,-4.0759,-4.0918,-4.1011,-4.1061,-4.1081,-4.1108,-4.1108,-4.1108,-4.1108,-2.1658,0.0,0.0,0.0,0.0,0.0,0.0,0.0,0.0,0.0,0.0,0.0,0.0,0.0,0.0,0.0,0.0,0.0,0.0,0.0,0.0,0.0,0.0,0.0,0.0,0.0,0.0,0.0,0.0,-1.9363,-2.1031,-2.1308,-2.1712,-2.23,-2.2758,-2.329,-2.3916,-2.4155,-2.4284,-2.4358,-2.5244,-2.6074,-2.6881,-2.8064,-2.9019,-2.9785,-3.0075,-3.0204,-3.0204,-3.0204,-3.0567,-3.1217,-3.2038,-3.2879,-3.3777,-3.4827,-3.5209,-3.5209,-3.5209,-3.5209,-3.5209,-3.5277,-3.632,-3.7594,-3.7832,-3.8958,-4.0219,-4.0431,-4.0489,-4.0489,-4.0489,-4.0489,-4.0489,-4.0489,-4.0489,-4.0489,-4.0489,-4.0489,-4.0489,-4.0489,-4.0489,-4.0489,-4.0489,-4.0489,-4.0489,-4.0489,-4.0489,-4.0489,-4.0489,-4.0489,-4.0489,-4.0489,-4.0489,-4.0489,-4.0489,-4.0489,-4.0489,-4.0489,-4.0489,-4.0489,-4.0489,-4.0636,-4.0749,-4.081,-4.0954,-4.1057,-4.1108,-4.1108,-4.1108,-4.1108,-4.1108,-4.1108,0.0,0.0,0.0,-1.8725,0.0,0.0,0.0,0.0,-1.6421,0.0,0.0,0.0,0.0,0.0,0.0,0.0,0.0,0.0,0.0,0.0,0.0,0.0,0.0,0.0,0.0,0.0,0.0,0.0,-1.7422,0.0,-1.9289,-2.0134,-2.0539,-2.0576,-2.2135,-2.3068,-2.3238,-2.3999,-2.4493,-2.4692,-2.5501,-2.5911,-2.5986,-2.7784,-2.8619,-2.8711,-2.9766,-3.0204,-3.0204,-3.0204,-3.0223,-3.0319,-3.114,-3.1981,-3.294,-3.4598,-3.5209,-3.5209,-3.5209,-3.5209,-3.5209,-3.5277,-3.5917,-3.6807,-3.7625,-3.8574,-3.9488,-4.0277,-4.0489,-4.0489,-4.0489,-4.0489,-4.0489,-4.0489,-4.0489,-4.0489,-4.0489,-4.0489,-4.0489,-4.0489,-4.0489,-4.0489,-4.0489,-4.0489,-4.0489,-4.0489,-4.0489,-4.0489,-4.0489,-4.0489,-4.0489,-4.0489,-4.0489,-4.0489,-4.0489,-4.0489,-4.0489,-4.0489,-4.0489,-4.0489,-4.0489,-4.0684,-4.081,-4.081,-4.1003,-4.1108,-4.1108,-4.1108,-4.1108,-4.1108,-4.1108,-4.1108,0.0,0.0,-2.2075,-1.9359,0.0,0.0,0.0,0.0,0.0,0.0,0.0,0.0,0.0,0.0,0.0,0.0,0.0,0.0,0.0,0.0,0.0,0.0,0.0,0.0,0.0,0.0,0.0,0.0,-1.7348,0.0,-1.9198,-1.9565,-1.995,-2.0484,-2.1053,-2.1944,-2.3198,-2.3477,-2.3969,-2.4707,-2.5077,-2.5536,-2.6118,-2.6811,-2.7755,-2.8822,-2.9183,-2.9669,-3.0204,-3.0204,-3.0204,-3.028,-3.114,-3.1656,-3.2114,-3.3796,-3.4732,-3.5209,-3.5209,-3.5209,-3.5209,-3.5277,-3.5898,-3.6769,-3.7625,-3.8151,-3.8719,-4.0104,-4.0104,-3.9815,-4.0354,-4.0489,-4.0489,-4.0489,-4.0489,-4.0489,-4.0489,-4.0489,-4.0489,-4.0489,-4.0489,-4.0489,-4.0489,-4.0489,-4.0489,-4.0489,-4.0489,-4.0489,-4.0489,-4.0489,-4.0489,-4.0489,-4.0489,-4.0489,-4.0489,-4.0489,-4.0489,-4.0489,-4.0574,-4.0629,-4.0629,-4.082,-4.0933,-4.0933,-4.1042,-4.1108,-4.1108,-4.1108,-4.1108,-4.1108,-4.1108,-4.1108,-2.0644,-2.1242,0.0,-1.9196,-1.8888,0.0,-1.6407,0.0,-1.7327,0.0,0.0,0.0,0.0,0.0,0.0,0.0,0.0,0.0,0.0,0.0,0.0,0.0,0.0,0.0,0.0,0.0,-1.5619,-1.7532,-1.6962,0.0,0.0,0.0,-1.9674,-2.0196,-2.0492,-2.1362,-2.2903,-2.3221,-2.3877,-2.4884,-2.498,-2.5304,-2.5855,-2.6231,-2.7166,-2.849,-2.8777,-2.9402,-3.0204,-3.0204,-3.0204,-3.0261,-3.0815,-3.1236,-3.1694,-3.3375,-3.4503,-3.5209,-3.5209,-3.5209,-3.5226,-3.5296,-3.5687,-3.6343,-3.7218,-3.7497,-3.7892,-3.9585,-3.97,-3.9488,-4.0277,-4.0489,-4.0489,-4.0489,-4.0489,-4.0489,-4.0489,-4.0489,-4.0489,-4.0489,-4.0489,-4.0489,-4.0489,-4.0489,-4.0489,-4.0489,-4.0489,-4.0489,-4.0489,-4.0489,-4.0489,-4.0489,-4.0489,-4.0489,-4.0489,-4.0489,-4.0489,-4.0489,-4.0615,-4.0694,-4.0694,-4.0885,-4.0994,-4.0994,-4.107,-4.1108,-4.1108,-4.1108,-4.1108,-4.1108,-4.1108,-4.1108]}]]